GFSNGP_500_spd_000.txt.gz
Wind_Speed
21 22 22 20 16 18 21 21 30 23 31 27 32 32 33 36 39 43 46 50 53 55 59 63 66 68 70 71 72 72 73 74 74 74 74 74 72 72 73 73 72 72 73 76
15 17 19 19 18 23 25 26 30 32 27 33 34 33 36 41 46 50 54 55 59 64 66 68 69 70 72 73 74 75 76 78 78 76 73 71 70 72 72 74 75 76 77 80
17 21 23 21 21 24 26 26 28 28 32 34 37 41 44 49 54 59 61 62 65 69 72 74 76 77 78 79 80 80 80 77 75 76 76 75 71 71 74 75 77 79 80 79
22 25 27 23 19 20 23 24 29 33 37 41 44 48 54 57 58 62 67 70 73 76 78 81 83 84 84 83 81 79 78 77 75 74 74 75 75 76 78 79 80 79 80 79
22 26 25 20 23 27 29 32 36 40 44 49 52 54 58 64 67 72 75 77 79 82 84 85 85 85 83 82 81 79 75 73 74 75 77 79 80 79 80 81 80 79 78 77
21 24 26 27 29 33 38 42 46 50 52 56 59 63 66 68 70 73 78 81 84 87 87 86 85 83 79 76 75 75 74 74 76 76 74 75 76 72 70 71 71 71 72 71
24 29 31 33 38 40 43 50 53 55 57 61 62 63 66 68 73 77 82 86 87 86 84 80 75 73 72 73 73 74 76 77 76 74 73 70 68 68 69 70 72 72 74 76
30 34 37 39 43 48 52 55 58 60 61 63 68 72 74 77 80 82 84 83 81 76 75 72 71 69 68 69 70 71 72 69 67 66 66 67 69 70 73 77 79 80 81 81
38 38 42 47 53 57 58 59 60 61 63 68 73 77 80 81 81 82 81 74 71 69 67 65 66 67 68 67 65 62 61 61 61 62 67 71 74 78 80 83 86 86 85 84
46 42 47 54 56 61 62 61 63 66 69 74 76 78 80 83 82 79 70 64 62 60 62 64 66 65 62 59 58 58 59 62 66 69 72 76 79 81 82 82 83 81 79 76
51 53 58 59 60 62 63 65 69 72 73 77 80 82 84 82 77 69 62 59 59 61 62 63 59 57 59 61 61 63 66 69 72 74 77 79 80 82 82 80 79 76 72 69
56 56 59 60 63 65 68 72 74 76 79 82 84 83 80 73 66 62 59 58 58 60 59 57 59 62 64 65 68 71 73 76 78 81 83 85 86 82 80 76 69 62 59 59
57 59 61 63 65 68 70 72 75 77 79 82 85 84 78 69 64 61 58 56 56 56 57 60 63 65 69 72 75 77 79 81 83 85 88 88 87 83 76 61 51 48 45 44
59 61 62 65 68 70 74 75 77 81 83 84 83 78 65 61 59 57 56 54 55 57 61 65 67 70 73 76 78 81 84 86 88 90 89 87 81 72 61 54 46 37 38 39
58 61 64 66 69 72 72 75 79 82 82 78 68 60 58 58 55 54 54 56 59 62 66 70 73 76 79 83 86 88 89 90 90 87 82 76 66 56 50 47 43 39 35 34
60 62 65 68 69 72 75 79 77 75 71 62 59 58 57 54 53 54 56 59 63 66 70 74 78 82 85 88 90 91 90 87 82 77 70 59 51 48 47 45 41 39 38 37
62 64 66 67 69 72 74 71 71 68 62 59 59 58 54 54 55 57 60 63 66 70 75 81 84 87 90 91 90 88 83 76 70 61 54 48 47 46 44 41 40 39 37 35
63 63 66 69 72 74 71 69 66 61 59 59 57 55 55 56 58 60 63 67 73 77 82 86 89 90 88 85 82 76 71 63 54 49 45 46 44 43 41 41 40 38 34 31
63 66 70 73 74 72 70 67 60 58 58 56 54 55 58 59 62 65 70 74 79 84 85 87 86 82 78 74 70 63 54 51 46 44 44 43 41 39 39 36 35 33 32 29
63 68 72 72 71 66 62 57 55 56 55 54 56 57 59 62 66 71 76 79 83 87 85 79 75 71 65 57 53 51 51 45 43 43 41 40 40 38 39 41 41 35 28 25
68 71 72 69 61 55 53 53 55 54 54 55 56 58 61 66 71 76 80 82 80 78 74 70 64 56 54 56 54 49 44 43 45 44 42 40 40 39 40 42 39 33 29 25
70 69 65 58 54 53 53 54 53 51 52 54 57 61 66 70 74 78 80 80 74 70 68 60 57 57 58 54 47 46 47 47 44 42 41 41 40 39 40 41 33 27 24 25
68 61 54 51 52 53 53 51 50 50 52 56 60 65 69 74 78 78 75 68 67 64 60 58 58 60 54 48 48 49 47 45 44 44 42 41 40 40 40 39 31 25 22 21
57 51 50 52 53 52 49 48 49 51 55 59 63 68 73 76 74 70 68 64 60 60 59 62 60 53 50 50 50 48 46 44 44 44 43 42 40 38 36 32 27 25 25 21
49 50 52 52 50 47 47 47 50 54 57 61 65 70 73 73 72 67 63 63 64 65 61 54 51 52 52 51 50 46 45 44 45 42 39 35 31 29 28 23 23 26 26 22
49 51 51 50 48 47 47 49 52 56 60 63 67 70 71 69 66 65 65 66 60 54 53 53 53 53 52 49 46 45 46 45 43 38 35 31 27 26 19 21 23 22 17 18
49 51 50 48 47 47 49 52 55 58 62 66 68 70 69 66 64 65 61 55 55 55 54 55 55 51 49 49 49 48 45 41 40 35 32 26 22 17 16 18 16 8 10 16

GFSNGP_500_spd_003.txt.gz
Wind_Speed
14 15 12 11 12 16 14 16 19 15 16 18 27 29 30 32 35 38 40 44 49 52 56 60 63 65 68 71 73 76 79 81 84 86 87 88 87 86 85 85 82 79 79 80
17 16 12 11 12 15 16 17 19 20 15 27 24 27 30 33 37 42 46 51 55 58 62 66 68 71 73 75 79 83 86 89 90 90 90 89 90 88 87 85 82 81 80 81
13 13 12 9 14 15 16 15 16 19 21 24 28 31 36 40 44 48 51 56 60 64 67 69 71 74 78 82 85 88 92 94 94 93 91 88 86 85 84 82 81 81 82 84
17 17 14 14 17 16 13 17 22 25 28 31 35 41 45 48 51 55 59 62 64 66 69 74 78 80 84 88 91 92 92 92 88 85 83 81 80 78 77 77 77 77 78 78
21 21 16 16 17 18 22 23 29 31 34 37 41 45 51 55 58 61 63 65 68 72 75 78 80 85 89 91 92 90 88 85 82 77 72 71 71 72 73 72 71 71 71 72
18 17 16 20 22 27 29 31 33 35 39 44 48 52 55 57 59 62 65 69 73 76 79 83 87 90 93 91 86 83 81 76 71 69 69 70 68 66 65 66 67 70 71 73
19 20 20 24 26 29 32 35 39 44 48 52 56 56 57 58 61 67 71 74 75 80 85 88 88 88 82 77 74 70 66 65 67 65 62 61 62 64 66 69 72 75 77 79
22 24 26 29 34 35 38 43 48 52 55 59 61 62 62 64 68 71 73 75 81 85 88 86 80 74 68 65 61 61 62 61 59 60 63 65 67 69 73 76 77 79 81 83
25 28 33 36 39 43 48 51 53 56 59 62 65 66 68 69 72 73 77 82 86 87 83 76 68 65 62 59 60 60 59 60 62 63 66 70 74 76 78 79 82 85 86 86
31 32 37 40 45 49 51 53 56 58 61 62 65 68 71 74 75 78 83 85 84 80 72 65 63 62 61 60 60 60 61 64 67 69 72 76 79 81 83 85 88 89 87 82
35 38 41 43 48 51 53 55 58 59 61 64 67 70 72 74 78 83 83 84 79 69 64 62 61 61 61 61 61 64 67 70 73 76 79 82 84 86 87 88 90 88 84 78
39 43 47 48 51 54 56 57 59 61 64 67 70 72 74 77 80 81 81 78 71 65 62 61 60 60 60 63 66 70 73 76 79 83 85 88 90 88 87 86 83 77 69 63
44 49 51 52 53 53 55 58 60 64 67 70 71 72 76 80 81 83 85 78 67 60 58 58 59 61 64 67 70 74 79 83 86 89 91 92 91 89 85 75 67 59 50 46
53 53 52 53 54 55 58 62 65 67 71 72 73 77 80 82 84 84 79 68 60 58 59 60 62 65 68 71 76 82 86 89 90 90 89 86 81 75 70 63 53 40 40 40
55 56 59 57 57 60 64 66 69 71 71 72 76 80 82 84 83 72 63 58 57 58 61 63 65 68 73 78 83 86 89 89 87 83 78 73 66 59 53 47 42 39 36 33
60 62 60 59 61 63 65 68 69 69 71 75 79 81 83 76 63 58 58 57 57 59 62 65 68 74 80 84 86 87 85 79 74 65 60 55 52 48 44 43 41 37 33 32
63 59 57 60 62 65 66 66 67 70 74 78 80 79 69 60 58 57 56 58 59 62 65 71 76 81 84 86 85 79 73 62 57 58 56 52 44 43 43 41 38 35 31 30
55 56 57 60 62 63 64 66 69 73 76 78 71 64 59 58 57 56 57 59 62 66 72 76 81 84 83 79 75 68 58 56 57 52 47 44 44 46 43 40 38 36 31 32
56 57 58 60 61 63 66 70 73 76 74 67 62 58 57 57 56 56 57 60 65 69 73 78 81 79 75 68 62 57 56 56 51 46 45 47 48 46 43 41 40 38 34 34
54 55 57 59 61 64 69 72 74 72 64 57 55 55 54 55 55 56 58 62 69 73 77 78 76 70 64 59 59 60 57 50 46 47 48 48 47 44 43 42 41 39 35 35
53 54 56 59 64 69 73 74 69 60 55 53 53 53 51 52 55 58 62 64 70 74 77 75 70 65 63 62 60 55 48 47 48 48 47 45 43 43 42 40 37 33 30 30
54 56 61 65 70 73 74 65 57 53 52 52 52 51 51 53 56 60 64 69 72 76 76 70 66 65 59 53 49 49 49 49 49 47 44 43 41 40 41 40 38 34 30 27
58 62 66 71 74 73 64 55 52 51 50 51 51 51 52 55 58 61 63 70 74 76 73 67 63 56 55 53 52 51 51 50 47 44 42 41 40 41 39 36 31 27 26 24
62 67 71 74 71 61 53 51 50 49 49 49 51 53 54 57 59 64 68 72 75 75 69 64 59 56 55 52 54 53 50 47 45 43 42 41 39 37 35 29 24 26 20 17
67 70 73 69 58 51 49 49 49 49 49 50 52 55 57 60 62 65 70 74 75 72 65 62 57 55 53 54 52 49 45 46 46 43 41 37 34 30 28 23 22 18 18 18
67 67 62 53 49 48 49 49 49 51 51 52 54 56 58 61 65 69 73 75 72 66 61 60 55 53 53 53 52 47 48 43 42 43 42 38 32 27 22 18 14 16 19 20
56 53 49 47 47 48 49 49 51 51 53 53 53 57 59 62 66 71 74 74 68 62 60 57 52 52 54 52 49 49 45 42 39 35 33 30 26 23 20 15 12 12 14 2

GFSNGP_500_spd_006.txt.gz
Wind_Speed
23 23 22 21 20 19 16 19 17 18 17 24 25 21 20 24 27 30 32 35 39 42 46 51 55 59 62 65 68 70 74 78 80 82 85 90 94 97 100 101 99 98 96 93
20 19 18 18 19 19 19 21 19 20 16 23 20 23 25 27 30 33 35 38 43 48 52 58 62 65 67 70 73 77 80 81 84 88 92 96 98 98 97 94 94 92 87 80
25 21 19 20 20 20 21 21 20 15 17 19 21 24 28 30 33 37 41 46 51 55 60 64 67 69 72 74 76 78 82 87 90 94 96 96 92 89 88 84 78 73 71 71
18 17 20 21 23 22 22 22 17 17 21 23 26 27 30 36 40 45 49 54 58 60 63 65 67 70 73 74 77 82 87 91 94 95 91 86 82 78 72 69 67 65 64 65
19 20 20 21 21 20 19 21 22 22 24 28 31 34 39 43 47 50 54 57 59 60 63 66 70 72 74 77 82 87 91 94 92 85 80 75 70 67 66 64 64 66 68 70
20 20 20 20 20 20 23 24 25 28 31 34 38 42 45 49 52 54 57 58 61 63 66 69 70 73 78 84 87 91 92 86 79 74 70 67 66 65 65 67 69 72 74 79
15 16 17 19 19 23 24 26 30 34 37 40 43 47 50 53 56 59 60 62 65 69 70 71 74 80 85 88 91 88 78 72 70 68 68 67 66 68 69 72 76 79 81 84
18 18 20 19 24 27 29 31 34 37 41 45 49 52 55 57 59 61 63 65 68 70 71 76 82 85 89 92 86 76 71 68 67 67 68 69 70 73 76 80 83 86 89 91
22 23 23 27 29 30 33 37 40 43 47 49 52 55 58 60 62 65 68 71 72 72 76 82 86 89 90 84 75 68 66 66 66 66 69 73 75 78 82 88 92 94 95 95
26 28 32 33 34 37 38 41 44 46 48 50 53 56 59 62 65 68 71 73 74 76 82 87 90 89 83 75 68 65 66 67 68 69 72 76 81 87 91 94 97 97 95 91
29 31 36 37 40 41 43 45 47 49 50 52 54 57 62 65 67 70 73 73 76 82 86 89 87 79 73 68 66 66 66 68 70 74 79 84 87 91 92 92 90 87 81 75
30 34 36 39 43 46 48 50 52 53 55 57 59 61 64 67 70 72 73 76 82 85 87 85 78 69 66 65 66 68 69 72 77 82 86 89 90 88 81 74 69 67 61 58
37 39 41 42 45 48 51 53 56 58 61 61 62 65 67 69 70 72 75 80 84 85 83 77 69 65 64 65 66 69 74 78 82 86 89 88 84 78 67 59 59 54 52 49
42 45 46 47 50 54 57 59 60 62 62 62 64 66 69 70 72 76 80 83 83 79 75 69 64 62 62 64 67 73 78 83 86 86 82 76 68 61 64 58 46 41 46 46
47 49 52 56 59 61 62 63 61 60 59 62 64 67 70 73 77 80 83 84 80 72 68 63 60 60 62 66 70 76 81 83 83 76 68 63 62 61 57 49 46 46 45 39
54 58 60 62 64 64 59 56 55 58 60 63 66 68 71 75 79 82 82 75 67 64 61 59 59 60 64 69 74 78 81 81 74 69 65 64 64 59 51 48 49 50 44 39
60 62 62 62 58 54 53 55 57 58 60 63 65 68 73 77 79 78 72 67 63 61 59 57 58 61 66 73 77 80 80 73 70 69 66 63 56 51 49 50 50 46 40 37
58 56 52 51 52 53 55 56 57 59 60 63 67 72 76 77 76 72 67 61 58 57 57 58 61 63 69 75 78 80 76 69 66 62 57 53 51 52 51 50 48 45 42 39
48 49 50 51 52 53 54 55 56 58 62 66 71 74 78 78 74 66 60 57 57 56 56 59 62 66 71 76 79 77 70 61 60 58 56 55 53 53 51 48 45 43 38 34
49 50 50 51 51 52 54 56 59 62 66 71 75 78 80 73 64 58 56 55 56 56 58 60 64 68 73 76 78 73 65 60 59 56 56 55 53 49 46 44 41 37 37 34
50 51 52 52 53 56 58 60 63 67 70 74 77 75 67 61 56 55 53 53 56 58 60 62 67 71 75 77 74 66 60 57 56 55 55 53 48 46 43 40 37 38 35 29
52 53 54 57 59 60 61 63 67 69 72 73 69 63 59 54 53 53 54 56 56 59 61 64 69 74 76 76 68 62 57 56 55 55 54 50 47 45 42 39 36 34 29 23
54 56 57 58 60 61 64 67 69 71 70 66 60 56 53 52 52 53 53 57 59 61 63 67 72 75 77 73 63 59 55 54 54 54 52 49 48 44 41 37 33 29 24 22
57 58 59 61 62 63 66 70 71 69 64 57 53 52 52 52 52 55 56 58 60 63 66 70 74 77 76 67 59 55 52 52 53 52 51 48 43 42 43 40 32 25 19 16
58 59 59 60 62 66 68 69 63 58 54 51 51 52 53 54 53 54 58 60 62 65 68 72 76 77 70 61 56 53 51 53 52 50 45 45 43 40 35 32 25 19 17 12
54 55 57 62 65 67 64 59 54 52 50 50 52 53 52 53 56 59 60 63 65 67 71 75 77 72 62 56 53 51 51 50 49 45 43 38 34 34 31 27 17 13 11 12
55 59 63 65 64 59 54 51 49 49 50 50 49 51 53 56 58 60 63 65 67 71 75 78 73 64 56 52 50 49 49 48 44 41 35 31 31 29 24 17 10 7 7 10

GFSNGP_500_spd_009.txt.gz
Wind_Speed
25 26 28 27 26 26 23 21 24 21 24 28 30 24 22 24 26 28 28 29 32 34 37 42 46 51 54 58 62 66 68 70 72 73 75 77 82 88 93 97 101 100 96 93
26 28 27 27 26 26 25 24 24 26 27 34 27 24 25 26 28 28 31 33 36 40 44 48 52 55 59 63 65 67 69 69 70 74 79 85 90 94 98 101 98 92 87 83
24 25 28 29 25 24 25 26 26 27 25 25 26 28 28 28 30 32 35 39 42 46 50 54 56 59 62 65 67 68 69 72 76 81 87 91 97 100 100 94 87 83 79 76
24 25 28 25 28 28 28 26 26 21 21 25 28 29 31 32 35 38 41 43 47 51 55 59 61 63 65 68 70 72 74 78 83 87 92 97 100 97 90 84 80 78 76 75
28 31 32 30 25 24 24 23 22 24 24 26 28 30 35 37 40 43 46 49 52 57 58 59 62 65 68 70 73 75 78 84 89 95 99 97 91 83 79 76 75 75 76 76
18 19 18 24 23 24 26 28 24 25 27 29 32 34 37 41 43 46 50 52 54 56 59 62 65 68 71 73 75 79 85 91 96 99 95 87 80 75 73 74 75 76 77 81
24 25 25 24 25 25 27 22 24 26 29 31 35 38 40 44 47 49 51 54 57 59 62 64 67 70 71 74 78 83 89 95 95 87 80 74 71 71 72 75 78 82 86 90
20 18 17 18 20 23 23 25 27 30 33 35 39 43 45 48 51 52 54 57 59 61 64 67 70 71 74 79 83 89 93 90 83 76 70 69 69 73 78 84 88 91 94 93
21 19 19 21 23 25 27 29 31 34 38 41 44 47 49 51 53 55 57 60 63 65 67 70 72 75 80 84 89 91 87 80 73 67 65 68 73 79 85 90 93 93 91 85
24 22 25 26 28 30 32 34 37 40 43 46 48 50 52 55 57 60 62 62 65 67 70 73 76 80 83 87 89 86 80 73 67 64 65 71 78 84 89 92 90 84 76 71
25 27 30 32 33 35 36 38 41 44 47 49 50 53 57 59 61 62 62 64 66 69 72 75 79 84 87 88 85 79 72 67 64 64 69 75 81 87 89 85 80 76 73 72
27 30 33 34 37 38 41 44 46 47 50 52 56 59 61 63 62 62 62 65 68 71 74 77 82 84 86 83 79 73 69 65 64 67 72 78 84 85 82 76 71 71 73 67
30 33 37 39 41 44 45 47 49 52 55 59 60 62 62 60 59 60 64 67 69 72 75 80 83 84 84 77 73 69 65 63 65 70 76 81 86 86 78 68 66 64 62 55
35 38 41 43 45 47 49 53 55 60 61 62 61 59 58 59 61 63 65 67 70 74 79 83 82 79 76 71 66 64 64 66 69 74 78 83 86 81 70 65 58 54 52 53
40 41 42 45 48 50 54 58 60 60 59 57 56 57 58 60 61 63 65 69 74 79 82 83 81 76 69 66 64 64 64 67 71 75 80 84 84 73 65 61 58 56 54 52
44 46 47 50 53 57 60 60 58 56 54 54 56 58 58 59 61 64 69 74 78 82 84 81 73 68 64 63 63 63 65 69 74 77 81 84 79 66 62 59 58 56 53 49
47 50 53 57 60 58 56 54 53 54 55 57 57 57 58 61 65 69 74 77 80 82 79 73 67 63 63 62 62 64 66 70 75 78 81 82 72 61 60 59 58 55 50 45
53 55 54 53 52 50 50 51 52 53 53 54 55 57 60 64 68 72 75 78 79 78 73 67 64 62 60 61 64 66 69 73 76 79 82 77 67 60 59 58 57 51 46 40
50 47 45 46 47 48 49 49 51 52 53 55 58 61 64 67 70 73 76 79 77 73 65 62 60 59 60 62 64 67 70 74 77 80 80 70 61 57 56 55 51 46 42 33
41 43 44 44 46 48 50 51 52 53 56 58 60 63 65 68 72 76 78 75 71 66 62 59 59 59 60 62 65 68 72 75 78 80 74 64 57 55 53 52 47 43 36 34
41 43 45 46 48 48 50 51 54 56 57 60 62 64 67 71 75 75 72 67 63 61 59 58 58 58 60 63 66 70 73 76 80 78 67 57 53 53 52 49 42 39 33 29
44 46 48 49 50 51 53 54 56 57 59 61 64 67 71 73 73 69 66 63 59 59 57 56 57 60 62 65 69 71 75 79 79 70 59 54 52 51 51 43 42 42 34 26
49 51 52 54 55 56 57 58 60 61 63 65 69 71 72 71 69 63 59 58 58 56 56 57 59 62 66 68 71 74 78 80 72 61 54 50 50 50 45 44 41 33 24 18
53 55 56 57 58 58 59 60 61 64 66 70 71 71 68 64 60 59 58 56 55 55 57 59 63 66 69 71 74 78 80 73 61 54 49 48 49 46 44 39 31 27 20 11
55 56 56 57 58 59 60 61 63 67 70 70 68 65 61 59 56 54 54 54 55 57 60 64 67 69 71 75 79 80 73 61 52 49 46 45 43 41 36 31 27 21 12 9
56 56 56 56 57 59 62 64 68 69 67 63 60 57 56 55 54 53 53 55 58 62 66 69 70 72 76 80 79 70 58 49 47 44 44 41 38 33 30 26 20 11 6 9
55 55 56 58 60 63 65 67 66 63 60 55 51 52 53 53 53 54 57 60 65 68 69 70 73 78 80 75 63 53 47 45 43 42 39 36 29 27 22 17 12 5 6 6

GFSNGP_500_spd_012.txt.gz
Wind_Speed
26 26 29 29 29 29 30 26 29 21 26 29 27 22 26 26 26 30 32 33 33 33 34 37 41 45 50 54 57 59 61 63 66 69 71 73 76 79 82 85 90 95 99 100
26 26 26 27 29 30 29 28 27 24 25 27 26 25 26 26 28 32 32 32 33 35 39 44 47 51 53 55 57 60 63 65 67 71 74 76 79 82 86 91 96 99 99 94
28 28 27 30 28 27 26 26 26 26 24 26 26 26 25 27 32 34 34 34 37 40 45 48 51 53 54 57 61 63 65 68 71 74 76 80 83 88 92 96 97 95 89 80
21 24 28 23 25 25 26 25 26 25 24 23 23 24 28 33 34 34 35 38 42 45 49 51 53 55 58 61 63 66 69 72 74 76 80 83 88 93 95 95 93 86 78 74
21 23 21 24 25 25 27 27 28 28 23 23 25 30 33 34 34 35 39 43 46 48 50 53 55 58 61 64 67 70 72 74 76 79 83 88 92 94 93 90 83 74 72 76
25 25 26 23 27 26 26 24 22 21 23 27 31 34 35 35 37 40 43 46 48 50 53 56 59 63 65 68 70 71 73 76 79 83 88 92 93 91 88 81 73 71 75 82
29 33 36 32 23 27 26 25 24 28 29 31 32 32 34 38 40 43 46 49 51 54 58 61 63 66 68 69 70 72 75 79 83 88 91 92 90 85 78 72 72 75 79 86
24 24 25 23 26 28 27 26 26 26 29 31 32 35 38 40 44 46 49 53 56 59 62 64 66 66 67 68 71 74 78 82 87 90 90 89 84 76 72 72 74 79 83 88
19 18 19 19 20 22 23 24 26 28 31 33 36 38 41 44 47 51 54 58 61 63 65 65 64 65 68 70 72 76 81 86 88 88 88 82 76 72 71 74 78 82 87 90
18 18 20 21 23 25 27 29 30 32 33 36 39 43 47 49 53 56 60 62 63 63 62 62 64 66 68 70 75 80 84 87 89 87 80 74 72 73 74 76 80 84 88 88
21 23 25 26 29 30 31 32 34 36 38 41 44 48 52 54 58 61 63 64 62 61 61 63 65 66 70 74 79 83 87 89 88 80 74 71 71 73 74 77 82 87 89 82
24 27 29 31 31 31 32 34 37 40 43 47 50 53 55 59 62 64 62 59 59 60 60 61 64 69 74 79 83 86 89 86 80 75 72 70 71 70 73 77 80 85 82 72
28 27 30 31 31 33 36 39 42 45 49 51 53 56 61 63 63 58 57 57 58 58 60 63 69 74 77 81 84 87 83 79 76 72 70 70 71 72 71 72 78 81 72 64
28 27 30 33 35 38 40 43 47 50 52 54 58 62 65 61 56 57 57 56 56 59 64 68 72 76 79 82 85 81 78 74 72 69 69 70 70 72 74 75 77 76 63 61
31 32 33 36 38 40 44 48 50 54 57 61 64 62 55 55 56 55 55 56 60 64 68 71 74 78 82 84 82 77 72 68 67 66 67 69 70 73 75 77 80 73 59 57
33 34 37 39 41 45 48 52 56 60 62 58 54 53 54 54 53 54 57 60 63 67 70 73 77 81 83 82 77 70 66 65 66 66 67 69 71 74 76 79 79 65 57 54
37 37 38 41 44 48 52 57 56 51 49 50 51 51 51 52 54 57 60 63 66 70 73 76 80 81 80 76 70 66 64 64 65 66 68 70 73 75 78 80 74 57 52 52
36 38 41 44 48 50 47 44 45 46 47 47 49 50 51 54 57 60 63 67 70 73 77 81 80 77 75 71 66 63 62 63 64 65 68 71 75 78 80 78 65 51 48 45
38 40 42 41 39 40 41 42 44 47 48 49 50 52 56 58 61 63 66 69 72 75 79 79 76 73 69 65 63 61 62 62 64 66 70 73 76 80 80 69 54 47 47 38
36 35 34 36 37 39 42 44 46 48 50 52 54 57 59 61 63 65 66 70 77 79 80 76 72 67 64 62 60 61 62 64 66 69 72 75 79 81 71 56 48 45 42 37
31 33 36 38 40 43 46 48 50 51 52 53 55 57 60 62 65 69 72 75 78 78 75 70 66 63 60 59 59 61 64 67 70 71 74 79 81 72 56 46 43 43 38 39
34 36 38 41 44 46 47 49 50 52 54 57 59 61 63 66 69 73 77 78 77 73 68 64 62 60 59 59 61 65 69 70 71 75 80 80 69 54 45 42 41 37 36 28
37 41 43 44 45 48 50 51 52 54 56 59 62 65 68 71 75 77 76 75 71 66 62 61 60 59 60 63 67 69 70 72 76 81 78 63 50 43 41 40 37 33 26 22
44 46 47 49 50 53 54 54 55 57 60 64 67 70 72 75 77 77 72 67 63 60 59 59 58 61 65 68 70 71 73 77 80 72 56 45 42 40 39 36 31 26 24 17
48 50 52 52 53 55 56 56 58 62 64 66 69 73 76 76 73 68 63 58 57 57 56 59 64 66 68 70 72 75 79 77 63 50 42 40 38 37 35 30 25 21 17 7
54 55 56 57 57 57 58 60 62 64 67 70 73 74 73 69 64 58 55 55 54 57 61 64 67 69 71 73 77 79 70 56 48 43 41 38 36 34 28 23 20 14 7 6
58 59 59 58 57 58 60 62 64 67 70 72 73 70 65 59 54 53 53 55 59 63 66 69 70 72 77 79 74 60 52 48 45 41 38 34 32 28 19 17 11 7 4 10

GFSNGP_500_spd_015.txt.gz
Wind_Speed
36 35 34 33 33 33 33 29 31 21 24 26 29 27 25 25 27 27 28 29 31 30 29 30 33 38 42 46 50 53 56 59 61 64 66 69 70 73 75 78 81 84 88 92
32 35 34 35 32 32 34 33 30 25 23 26 26 26 25 26 25 27 29 30 29 30 34 38 40 44 48 51 54 56 59 61 64 67 69 71 73 76 77 80 84 88 91 92
22 27 26 27 23 26 27 27 26 25 20 27 26 24 25 26 27 28 29 30 34 35 37 40 43 47 50 53 57 59 62 65 67 69 71 73 75 77 79 83 86 90 91 93
23 25 27 20 23 24 25 26 25 23 23 25 25 24 25 25 26 28 30 34 35 37 40 43 47 50 54 57 59 62 65 68 69 70 72 74 76 79 82 85 88 91 91 88
23 25 20 17 18 21 21 23 25 23 24 27 27 26 25 25 28 32 35 35 37 40 43 47 51 54 57 59 63 66 68 69 69 70 72 74 78 82 84 86 89 88 86 82
23 24 18 14 15 18 23 23 23 24 29 32 33 32 25 29 33 34 34 36 39 43 47 51 54 57 61 64 66 67 68 68 69 71 73 77 81 83 85 87 87 85 80 79
20 20 20 20 20 25 27 20 24 27 27 24 24 28 31 32 33 34 37 40 44 48 52 55 59 63 66 67 66 65 66 67 69 72 76 79 81 83 86 87 84 80 76 75
22 23 26 22 19 27 31 29 23 23 27 29 29 29 31 32 35 38 41 45 49 52 55 60 65 66 67 66 64 65 66 67 71 75 78 81 83 86 86 84 80 75 73 71
19 18 19 19 21 22 25 27 26 26 27 27 28 30 32 35 38 43 46 50 52 56 61 65 66 66 64 63 64 64 65 69 73 76 80 84 86 85 83 79 74 72 72 72
13 14 17 18 20 22 24 24 24 24 26 28 30 33 37 41 44 47 49 53 57 62 65 67 65 62 62 62 62 64 68 71 74 79 83 85 85 83 78 73 71 72 73 73
13 15 18 20 23 24 25 26 28 29 31 32 35 38 41 44 47 50 53 57 62 66 67 63 61 61 60 61 64 67 71 74 79 82 85 84 82 78 73 69 71 72 74 76
20 19 19 22 26 28 29 30 31 33 34 36 39 42 44 47 50 54 58 63 66 63 59 59 58 58 60 63 67 71 75 79 83 85 85 83 79 71 67 67 69 72 75 76
27 27 28 28 28 29 31 32 33 36 38 40 42 44 47 51 56 60 63 62 57 55 54 55 57 59 62 66 70 74 79 83 86 87 85 81 73 67 63 64 67 70 73 75
33 33 32 31 31 31 32 34 36 37 39 42 44 48 52 56 60 58 53 52 51 51 53 56 59 62 65 68 73 78 83 86 88 86 81 74 67 65 65 66 67 68 70 74
36 32 30 30 32 33 34 35 36 38 41 44 48 52 55 53 50 49 48 48 49 53 56 59 62 65 68 73 79 84 87 87 84 79 72 67 65 66 67 68 69 70 70 76
32 32 32 32 32 33 34 37 39 41 45 49 50 47 45 45 45 45 47 50 54 57 60 62 66 70 75 79 84 87 86 83 78 70 65 64 65 66 67 69 70 72 76 77
30 31 33 34 35 35 36 39 42 45 46 43 42 42 43 43 45 47 50 53 56 60 63 67 71 76 82 87 88 86 82 74 68 63 63 64 66 68 70 71 73 77 77 62
33 33 32 32 33 37 40 42 42 40 38 39 41 42 44 46 48 49 52 57 61 64 68 73 77 83 87 88 86 80 74 67 63 62 63 66 68 71 72 75 79 77 60 45
31 33 33 35 37 39 39 38 36 36 38 40 43 44 47 48 50 54 57 61 67 69 73 79 84 86 86 84 78 70 65 63 62 63 65 68 70 72 75 80 74 56 44 38
33 35 36 37 37 37 34 34 37 39 42 44 45 48 49 52 55 58 62 67 72 74 79 82 84 83 81 74 66 63 62 62 63 65 67 70 72 75 79 67 52 42 38 36
33 34 35 34 33 34 35 37 41 44 45 46 49 51 54 58 60 64 68 71 75 79 82 83 82 80 71 63 61 61 62 64 66 68 69 72 76 75 59 47 39 36 34 32
31 31 31 32 33 35 39 42 43 45 48 50 53 56 60 63 65 68 71 74 78 81 81 79 76 66 60 59 60 62 64 67 69 70 73 76 67 50 42 38 35 33 32 26
31 33 34 36 38 41 44 45 47 50 53 55 57 61 63 65 67 70 74 77 80 79 77 71 62 58 58 60 64 65 68 69 72 76 73 58 46 40 37 35 32 31 25 21
33 34 34 37 41 45 46 49 52 54 57 60 61 62 63 65 69 72 76 79 78 75 67 58 56 57 60 64 67 69 70 75 76 63 50 45 41 36 34 30 29 25 21 14
37 40 44 47 49 50 52 55 57 59 60 62 62 63 65 69 72 77 79 77 75 64 57 56 58 61 65 68 70 72 77 69 54 47 45 42 35 31 28 27 24 18 13 3
42 45 48 51 53 55 57 58 60 61 63 63 64 66 69 72 76 79 76 73 62 56 56 58 60 64 67 69 72 75 61 52 51 48 43 37 30 26 25 22 16 9 2 12
48 49 51 54 56 57 59 60 62 62 62 63 65 69 72 76 78 74 69 60 54 54 57 60 64 67 69 72 72 57 53 52 47 40 34 30 25 22 18 12 6 1 10 17

GFSNGP_500_spd_018.txt.gz
Wind_Speed
34 33 35 36 37 37 36 31 34 26 29 26 29 28 29 30 29 28 27 27 27 28 30 29 29 32 36 39 43 46 49 53 57 60 63 66 68 70 72 73 74 77 78 80
32 34 37 40 40 38 36 36 32 33 30 28 32 31 30 31 29 28 27 28 29 30 29 30 33 36 39 43 46 49 53 57 61 64 67 69 71 71 71 73 76 76 79 82
31 33 33 34 36 36 35 35 30 33 21 32 34 33 30 28 27 27 29 30 29 29 31 33 37 39 42 46 49 53 58 62 65 69 70 71 70 70 72 73 75 78 81 84
26 32 33 27 30 32 33 32 29 24 25 28 29 28 27 27 28 30 30 29 29 32 34 36 39 42 45 49 53 58 62 66 70 71 70 69 69 71 72 74 77 80 84 87
19 20 20 21 24 23 23 22 24 25 26 27 27 28 29 30 30 30 31 31 31 35 37 39 42 45 49 53 58 62 67 71 71 68 67 68 70 71 73 76 80 84 88 91
18 18 18 20 21 23 24 21 20 22 24 26 26 28 28 30 31 33 30 30 35 38 38 41 45 49 53 58 62 67 70 70 66 65 67 68 70 72 75 80 84 89 91 93
26 16 18 23 25 22 18 16 20 23 26 26 25 26 26 27 28 29 32 35 35 37 40 45 49 54 58 62 67 71 68 64 65 65 66 68 71 74 79 84 88 91 92 92
19 20 16 14 18 21 20 23 23 24 23 25 25 28 28 29 30 31 32 33 37 41 45 49 54 59 62 67 69 64 62 62 63 64 66 69 73 79 85 90 92 92 90 87
13 13 13 14 14 21 21 20 23 25 25 27 27 27 28 28 28 30 34 38 42 46 50 54 58 61 66 65 60 59 59 60 61 65 69 74 79 85 91 93 93 91 87 79
14 12 12 13 16 18 20 21 22 23 25 26 26 26 27 29 32 36 40 43 46 50 54 57 61 64 58 56 56 57 58 61 64 69 75 81 87 92 93 93 90 84 77 70
12 11 11 12 15 18 20 22 23 24 25 27 28 29 31 34 38 40 43 46 50 54 57 60 56 53 53 53 55 58 61 65 70 75 82 87 90 92 92 89 84 76 70 68
12 13 15 16 17 19 22 25 28 30 31 31 32 34 36 39 41 43 46 49 53 56 54 51 50 50 51 54 58 61 66 71 77 82 87 90 92 91 88 80 71 68 69 71
19 21 23 23 25 26 27 28 30 31 32 33 34 36 38 40 43 46 50 52 51 47 48 48 48 50 53 58 62 66 72 78 83 88 91 92 92 88 80 70 66 66 69 71
28 28 28 29 31 31 30 30 30 30 31 32 34 37 40 43 46 48 48 44 45 45 46 47 50 53 58 62 67 73 78 83 88 91 92 92 88 79 71 66 65 67 69 72
32 32 34 35 35 34 32 30 30 31 33 34 36 40 44 45 46 42 42 43 44 46 48 49 53 57 62 68 73 77 83 88 91 93 93 87 77 70 66 67 69 70 72 74
38 39 38 34 32 32 31 31 31 32 35 40 40 41 43 41 39 40 42 44 46 47 50 53 59 64 68 72 77 83 88 91 93 92 85 75 68 66 68 70 71 73 76 80
36 31 30 29 29 30 32 35 37 36 37 38 40 41 38 38 39 42 44 46 48 51 55 59 64 69 74 77 82 87 92 93 91 84 73 67 67 69 71 72 73 76 77 64
33 34 36 36 36 33 32 32 34 36 37 39 38 37 38 40 42 44 47 49 52 55 59 64 69 74 79 82 86 90 92 91 83 71 67 67 70 71 73 75 78 74 56 43
30 29 29 30 32 33 33 34 35 37 37 37 37 38 41 43 44 47 50 53 56 60 64 70 74 77 80 84 89 91 89 80 70 66 67 70 71 73 76 78 68 50 41 35
31 32 32 33 33 33 34 35 35 35 35 37 38 40 42 44 47 50 53 56 59 64 69 74 76 79 83 87 89 88 77 68 66 66 69 72 73 77 74 59 45 38 34 33
31 32 33 33 33 33 32 32 33 35 36 39 41 42 44 47 50 53 57 61 65 69 73 75 77 81 86 87 87 76 66 65 66 69 71 73 76 65 50 44 37 33 32 29
33 33 32 30 30 31 32 32 34 37 39 41 43 46 49 52 55 59 63 66 69 72 74 76 80 85 86 85 74 65 63 64 67 70 71 73 57 48 46 38 32 30 28 23
30 26 27 29 31 32 34 36 37 39 43 46 48 51 53 57 60 64 66 69 72 74 75 79 84 85 83 73 64 62 63 66 69 70 71 55 50 47 40 31 28 26 24 18
28 30 32 33 34 36 37 40 42 44 46 49 52 55 58 62 64 67 70 72 73 74 78 83 83 80 70 62 61 62 65 68 69 69 53 51 47 40 32 25 25 24 19 3
34 35 35 36 38 39 40 43 45 47 50 54 56 59 63 66 68 70 71 72 73 76 81 82 77 66 60 60 62 65 67 70 66 52 50 44 37 32 25 21 21 16 6 12
35 36 37 38 40 42 44 47 50 52 55 58 61 65 67 68 69 69 70 72 76 80 79 72 63 59 59 62 65 66 70 62 51 49 42 37 34 29 22 19 14 8 11 15
38 40 41 43 45 47 50 52 55 59 62 65 67 66 66 67 68 68 72 76 79 77 68 61 59 60 62 64 65 70 57 51 49 43 39 36 31 24 19 14 7 10 18 19

GFSNGP_500_spd_021.txt.gz
Wind_Speed
30 30 26 23 35 19 33 32 31 30 32 28 28 28 26 28 29 33 33 32 30 30 31 31 33 34 34 35 38 40 42 46 50 52 56 61 65 69 73 75 74 72 73 74
25 25 25 27 28 29 26 27 28 27 26 30 32 32 34 32 32 33 34 32 30 31 32 33 35 34 36 38 40 42 46 49 53 57 62 66 70 75 76 72 70 71 71 73
25 23 24 28 30 31 30 30 31 29 27 33 35 36 39 37 33 33 31 31 31 32 35 34 34 37 39 40 42 45 48 53 57 62 67 71 75 75 70 68 68 70 72 76
27 26 27 26 27 31 33 34 33 31 33 36 34 39 37 34 32 32 32 33 33 34 34 36 38 38 39 42 45 48 52 57 62 67 71 75 70 66 66 67 69 72 77 84
24 24 26 23 25 27 31 31 35 34 35 30 30 31 33 32 32 32 32 32 33 35 37 37 37 39 42 44 48 52 57 61 66 71 73 66 63 64 66 69 73 78 84 89
20 18 17 20 24 25 27 23 24 24 25 27 30 32 29 29 30 30 32 34 36 38 39 36 39 41 44 47 52 57 62 66 70 68 61 61 62 66 69 74 78 84 90 94
20 17 15 17 21 21 20 19 22 23 24 25 27 27 25 29 28 29 31 33 33 34 36 37 40 43 47 52 56 61 66 68 61 58 59 62 65 69 73 79 85 92 94 96
20 21 16 16 18 20 19 20 19 20 21 24 23 24 24 28 31 32 31 32 32 34 37 39 43 47 51 55 61 65 63 56 55 57 61 64 69 74 80 86 92 95 97 98
26 21 18 16 16 15 17 21 21 21 23 24 25 26 26 27 28 29 31 32 34 36 38 42 46 50 55 60 63 56 53 54 56 60 64 69 74 80 85 91 95 97 100 97
20 19 14 14 14 15 15 17 20 19 19 20 22 24 25 26 27 29 31 33 36 39 42 46 50 55 60 57 51 51 53 56 59 64 69 73 79 85 92 96 97 100 94 84
16 13 14 14 13 13 14 15 17 19 21 23 24 25 27 29 31 33 35 37 39 43 46 50 55 56 50 48 50 53 55 59 64 69 74 79 85 91 96 98 100 92 80 74
16 15 11 10 10 12 14 16 18 20 23 26 28 30 32 33 34 35 36 39 42 45 50 53 49 46 46 49 52 55 60 64 69 74 79 85 90 93 97 99 91 80 73 72
16 14 12 14 16 18 20 23 25 26 28 30 32 33 34 34 34 36 38 41 45 49 49 43 43 46 49 52 56 60 63 68 73 79 83 89 93 96 97 91 80 73 71 73
19 19 19 21 23 24 25 27 30 32 33 33 32 31 31 32 35 37 41 45 46 43 41 42 45 48 52 56 60 63 68 74 79 83 88 92 96 97 94 84 74 69 72 76
27 27 27 27 28 29 31 34 35 34 31 30 30 31 32 34 39 42 43 43 39 39 42 45 49 52 56 59 62 68 73 78 83 87 90 95 96 94 83 74 71 73 76 80
32 33 33 33 33 35 37 38 34 31 30 31 32 34 38 39 39 42 39 37 38 42 45 48 52 56 59 62 67 72 78 82 86 88 92 95 95 83 74 70 74 77 81 73
40 40 37 37 38 39 37 33 31 31 33 36 37 35 37 40 39 36 36 39 42 44 47 52 55 58 62 67 72 78 82 85 87 90 94 93 84 74 69 72 75 79 65 54
38 38 39 40 39 37 36 36 35 33 32 34 35 37 38 36 34 36 39 41 44 47 52 55 59 63 67 73 78 82 84 85 88 92 92 83 73 69 70 73 77 62 54 49
40 40 38 37 37 36 33 31 32 33 34 35 36 35 33 34 36 39 41 44 48 52 55 58 62 67 73 78 81 83 84 87 90 90 83 72 67 69 72 76 63 55 49 41
30 29 29 30 31 32 32 32 33 34 34 34 32 33 34 36 39 41 45 49 52 55 58 63 68 73 77 79 81 83 86 89 88 81 71 66 67 70 74 64 56 49 41 35
28 29 30 31 32 32 32 32 33 32 32 33 33 34 37 39 43 46 49 51 54 58 64 70 74 77 78 80 82 84 88 87 81 70 65 66 68 73 62 55 49 39 32 30
30 31 31 32 32 32 32 30 30 31 32 34 36 38 41 45 47 49 52 55 60 66 70 73 76 77 79 81 83 87 86 78 69 64 65 67 71 59 53 47 39 30 27 26
28 29 29 28 29 29 29 30 32 35 36 37 40 43 46 48 50 53 58 63 67 70 73 75 76 78 79 82 85 83 74 67 63 64 65 70 57 51 44 36 32 23 23 21
28 28 28 29 30 31 32 35 36 38 40 42 44 46 48 51 55 60 64 68 70 72 74 74 76 77 80 85 81 71 64 61 63 64 70 55 50 44 36 32 26 21 19 10
31 32 33 33 33 34 37 38 39 41 43 45 48 51 54 57 62 65 68 69 71 72 73 75 77 81 84 76 67 62 60 63 64 68 53 49 43 38 35 29 19 16 12 6
32 34 35 36 37 37 38 40 42 45 48 51 54 57 60 63 65 67 68 69 70 71 74 77 82 81 72 64 61 60 62 64 65 52 49 44 39 36 28 20 13 9 6 13
30 32 34 36 37 39 41 43 46 49 52 55 58 60 62 64 66 67 67 68 70 74 78 81 76 68 62 60 59 61 65 61 51 48 44 41 36 28 18 11 6 5 17 20

GFSNGP_500_spd_024.txt.gz
Wind_Speed
38 38 26 24 22 27 30 29 31 31 27 24 25 25 23 22 23 23 25 26 29 32 33 33 33 33 33 35 37 38 39 41 43 45 49 51 56 60 65 70 74 71 67 66
12 30 27 31 29 28 28 31 30 30 25 28 29 29 20 28 27 27 29 31 33 32 33 34 34 35 36 37 38 39 41 42 44 47 52 56 60 65 70 73 68 64 64 67
17 14 12 14 13 24 30 19 28 25 20 26 26 27 28 29 31 32 32 33 32 33 33 34 35 36 36 37 39 40 41 43 47 51 56 60 65 70 71 64 62 63 66 71
19 16 16 13 15 16 22 21 22 25 25 28 27 26 26 30 32 33 34 31 32 34 35 35 35 36 37 39 41 42 43 46 51 55 59 64 69 66 62 61 63 67 73 79
16 17 15 15 15 19 20 22 25 26 28 33 27 28 31 32 29 29 29 30 32 33 33 34 36 38 39 42 40 43 46 50 54 58 63 67 61 59 60 63 68 74 79 84
15 14 12 14 15 18 20 22 25 28 30 29 29 31 29 29 28 28 29 29 29 31 33 36 39 38 36 39 42 46 50 54 58 63 65 58 58 60 64 69 74 78 82 88
15 14 13 10 15 15 16 18 21 22 23 23 25 25 25 27 28 27 27 28 30 31 33 34 35 34 38 42 45 49 52 57 63 61 57 58 60 65 69 74 77 82 87 91
17 16 15 16 14 14 13 17 20 22 22 22 23 24 23 21 24 24 26 27 28 30 32 33 35 38 41 45 47 51 56 60 55 55 57 60 64 69 73 78 82 86 91 96
20 18 16 15 11 14 16 18 19 19 18 17 21 23 24 24 23 24 25 28 30 31 33 35 37 41 43 46 50 56 55 51 53 56 59 64 67 72 77 83 87 92 96 102
19 18 17 17 17 14 12 12 14 15 16 17 16 17 18 21 23 25 27 28 29 32 35 37 40 42 45 50 54 49 49 51 54 57 62 66 71 77 82 87 91 96 100 105
18 14 16 16 12 12 11 11 11 12 14 15 16 18 20 22 24 26 29 31 33 35 36 38 40 44 50 50 46 48 50 53 57 62 65 70 76 82 87 92 97 100 103 105
19 19 14 13 12 8 8 9 10 11 13 15 18 21 23 26 27 28 30 32 33 34 36 39 45 48 45 44 46 49 52 56 61 65 70 74 80 84 90 94 97 101 100 92
16 15 14 12 11 10 11 12 15 17 19 21 24 27 29 31 31 32 32 33 34 36 41 45 44 42 43 45 48 51 56 59 64 69 74 79 84 89 91 93 97 98 88 77
17 16 18 16 12 13 14 17 19 21 24 27 30 33 32 31 31 32 33 34 37 41 41 41 40 41 44 47 51 55 59 63 68 73 79 84 88 92 95 97 97 88 73 71
21 21 19 18 17 20 22 23 25 28 30 33 32 29 28 29 30 32 36 38 38 40 39 39 40 44 46 50 54 58 62 68 73 79 83 87 91 93 95 95 90 76 68 72
22 21 23 24 25 27 29 31 31 33 35 32 29 28 29 32 35 35 35 37 38 37 37 40 43 46 50 53 57 61 68 73 79 83 86 88 91 93 93 88 75 67 72 69
29 28 28 29 32 34 36 35 35 35 32 30 32 35 36 33 33 34 37 37 36 37 40 43 46 50 53 57 61 68 73 78 82 85 87 89 91 92 86 73 66 70 69 59
32 31 31 34 35 35 35 36 36 34 34 35 34 31 32 33 35 37 36 35 37 40 43 47 50 53 56 62 68 73 77 81 84 86 88 90 91 85 73 65 67 68 57 52
34 34 35 35 36 36 35 34 33 34 32 31 32 33 34 36 36 35 36 37 40 43 48 50 52 57 64 69 73 78 81 83 84 86 88 89 82 71 63 64 67 57 53 41
27 28 29 31 31 31 31 30 31 32 32 32 32 34 36 36 35 35 38 41 44 48 50 53 58 64 69 74 77 80 82 83 85 86 88 81 70 62 61 65 55 51 42 32
21 23 24 25 27 28 29 30 31 31 31 32 34 36 35 34 36 39 41 45 47 49 53 58 64 70 74 76 78 80 81 84 86 88 79 68 61 59 63 52 49 40 34 26
24 25 26 28 28 28 29 29 30 31 33 34 33 33 34 36 39 41 44 46 50 55 60 64 69 73 75 77 78 80 83 87 86 78 67 60 58 62 51 46 38 33 27 22
24 24 25 26 27 29 29 30 31 32 32 32 33 35 37 40 41 44 48 51 56 60 65 69 72 74 76 77 80 84 87 84 75 65 59 58 62 50 45 37 32 28 20 16
25 26 27 27 28 29 29 30 31 33 34 34 36 38 39 42 45 49 52 57 61 64 68 71 73 74 76 80 83 87 81 71 63 57 58 61 50 45 37 33 27 18 13 2
29 30 31 30 30 30 32 33 33 33 35 36 37 40 43 46 49 53 58 61 65 68 71 73 74 76 79 84 85 78 67 60 57 59 59 49 45 37 34 28 18 10 2 10
28 27 27 27 29 31 33 34 34 34 36 39 42 45 49 52 56 59 62 65 68 70 72 73 75 79 84 83 73 63 57 59 61 56 49 45 38 34 30 19 7 3 12 17
24 25 26 27 29 31 32 34 36 39 41 44 48 51 54 57 59 62 65 68 69 70 72 74 79 83 80 69 59 58 61 61 54 50 45 38 33 30 20 5 4 11 20 22

GFSNGP_500_spd_027.txt.gz
Wind_Speed
13 10 10 39 33 31 31 29 25 26 19 17 16 16 17 18 17 16 15 15 16 19 24 26 28 29 30 32 35 37 37 37 39 40 42 46 47 51 55 60 63 67 65 63
12 19 20 24 27 26 30 31 26 20 17 17 18 17 17 17 16 15 15 18 21 23 25 26 27 28 31 35 36 36 37 39 40 44 47 47 51 55 59 63 66 62 62 64
26 23 22 17 17 18 24 28 24 22 21 21 21 21 19 20 21 19 21 22 24 26 26 27 29 31 33 34 35 37 39 41 44 44 46 50 54 58 61 63 60 61 64 68
8 12 9 23 21 24 22 24 20 18 23 21 22 20 21 19 19 22 24 24 26 27 27 28 30 31 33 34 37 39 41 43 43 46 49 54 56 61 59 58 60 63 67 73
9 10 11 12 15 19 24 26 23 22 28 27 21 19 18 19 21 23 25 26 26 24 25 26 28 30 33 35 38 38 38 41 45 49 52 55 60 56 56 58 62 67 73 76
3 8 8 10 12 14 17 19 21 20 21 20 20 20 22 22 23 24 23 22 22 23 24 26 28 31 33 34 36 37 40 44 47 50 55 57 54 55 57 61 67 72 76 81
6 9 11 10 13 13 15 17 19 20 21 21 22 22 21 21 21 21 21 21 22 23 25 28 29 31 33 36 38 41 43 46 48 54 53 52 53 57 60 66 70 74 79 86
8 6 12 13 12 13 12 14 14 15 16 17 17 18 18 18 18 18 19 20 22 25 27 30 32 33 35 37 40 43 45 48 52 50 49 52 56 61 65 68 72 78 84 90
13 12 13 12 11 11 13 13 12 14 15 15 13 13 14 17 19 21 23 24 25 28 30 32 33 35 37 40 42 43 47 49 46 48 51 55 60 64 68 73 79 85 90 93
11 13 15 13 12 11 9 13 12 14 15 15 14 12 13 13 16 19 23 26 28 29 31 33 35 36 38 39 41 45 45 44 46 50 55 59 64 67 73 79 84 89 93 96
14 15 16 16 14 13 13 13 11 10 10 9 10 12 14 16 18 21 23 26 27 29 31 32 34 35 37 41 43 43 43 45 49 54 57 61 66 71 77 84 89 93 97 100
11 15 15 14 12 12 13 12 9 7 7 9 11 13 14 17 20 23 26 27 27 28 29 31 33 37 41 41 41 42 44 49 53 57 60 64 70 76 83 88 92 95 98 101
13 14 18 15 16 13 11 9 8 10 11 13 14 15 18 23 26 26 26 26 27 29 31 34 38 39 40 39 41 44 48 52 56 60 63 69 75 80 85 88 92 95 98 99
16 19 19 17 18 15 11 9 10 12 14 16 18 21 24 25 24 24 25 27 29 31 35 36 38 38 38 40 44 48 51 55 58 63 69 75 80 84 87 90 92 95 96 84
22 19 18 18 17 15 13 14 15 17 18 20 23 25 25 23 24 25 27 29 33 34 35 38 38 38 40 43 47 51 54 57 63 69 74 79 82 85 89 93 96 95 81 67
23 20 18 19 20 19 19 20 22 24 26 27 28 27 25 25 27 30 33 32 31 34 37 38 38 40 43 46 51 53 57 62 68 73 78 81 84 87 91 95 93 79 67 65
18 20 20 20 19 22 26 27 28 30 30 29 28 26 27 31 33 30 30 32 34 37 37 38 40 43 46 50 52 56 62 68 74 79 81 83 86 90 94 90 78 65 63 61
20 19 20 22 25 27 27 29 31 32 32 30 28 29 31 30 30 31 32 34 37 36 38 40 42 45 48 52 57 62 67 73 79 81 82 85 90 93 90 77 64 60 58 52
24 25 25 27 28 30 31 32 33 32 30 29 29 29 30 31 31 32 34 36 35 36 39 41 44 47 52 57 62 67 73 78 81 82 84 89 92 89 75 63 59 58 51 43
28 30 30 29 29 29 29 29 28 27 27 27 28 29 31 31 33 35 35 33 35 38 41 44 48 52 57 62 67 72 77 79 81 83 88 91 90 74 60 59 58 49 42 34
25 23 22 21 23 24 24 24 25 26 28 29 30 30 31 33 35 32 32 35 38 40 44 48 52 57 62 67 71 76 77 80 83 87 90 89 72 60 59 58 48 41 33 27
20 20 21 22 24 25 26 27 28 29 30 30 31 32 33 32 32 34 35 38 41 44 48 52 57 62 67 71 75 76 79 83 87 89 88 71 61 60 57 47 40 32 27 18
23 24 24 25 26 26 26 27 28 28 29 29 30 31 32 33 34 35 38 41 44 48 53 57 62 66 70 74 75 78 83 87 87 86 71 62 61 57 48 41 31 24 16 11
22 23 24 24 25 25 25 26 27 28 28 30 31 32 33 34 35 38 41 45 49 54 57 61 65 69 72 73 77 81 86 86 84 69 62 62 57 49 41 31 23 15 7 4
23 24 25 25 26 27 28 28 27 27 29 30 32 32 33 35 38 42 46 50 54 57 61 65 68 71 73 76 80 84 85 84 68 61 61 55 50 41 31 23 13 4 4 13
24 24 25 25 26 25 25 25 26 27 28 30 32 35 37 39 43 47 50 53 57 61 64 67 69 72 76 79 84 84 81 64 60 59 53 47 38 29 24 16 3 6 16 19
17 18 19 21 22 23 24 25 27 29 31 33 35 38 41 44 47 50 54 58 60 64 66 68 71 75 79 81 82 74 60 60 57 51 45 36 31 28 18 3 11 19 22 24

GFSNGP_500_spd_030.txt.gz
Wind_Speed
5 11 12 15 19 12 13 13 14 18 27 26 25 27 26 23 21 20 18 18 18 18 18 18 19 22 24 26 29 31 33 36 38 39 40 42 44 47 50 50 54 58 61 64
3 4 6 18 14 14 8 21 23 26 32 36 29 25 24 21 19 18 16 15 16 17 17 19 21 23 25 28 30 32 35 37 38 39 41 42 46 48 50 53 58 62 63 60
9 24 22 14 23 10 23 27 23 25 22 20 23 22 20 19 17 16 17 16 16 18 19 21 24 26 28 29 31 33 34 36 38 41 43 46 46 48 54 56 61 60 59 60
16 13 16 18 20 20 18 18 18 16 20 21 19 18 15 13 15 19 19 21 20 20 21 24 25 25 27 29 31 32 34 37 39 40 42 44 48 52 54 60 58 57 60 64
15 13 10 16 17 16 16 20 24 21 19 19 19 18 15 13 16 19 19 19 21 22 23 23 23 25 27 28 30 33 36 38 41 41 44 47 51 54 58 55 56 59 64 69
5 8 10 13 14 15 18 17 17 15 15 18 18 15 16 18 17 17 18 20 20 21 20 22 23 24 27 30 32 34 37 40 41 43 47 51 53 56 53 54 58 62 68 73
3 7 8 9 11 12 16 20 20 21 19 17 18 20 19 17 17 17 17 17 17 19 21 22 24 26 29 31 34 36 38 40 43 47 49 53 53 52 53 57 62 67 72 77
5 6 10 12 12 14 16 17 18 19 19 18 17 15 15 15 14 14 15 17 17 19 21 24 27 29 31 33 35 37 40 43 45 48 52 50 49 53 57 61 66 71 76 82
11 8 9 10 11 14 13 15 15 14 13 13 13 13 12 12 12 13 15 18 20 21 23 26 29 31 32 35 37 39 41 43 47 49 47 48 52 56 61 66 69 74 79 84
13 13 10 12 12 11 10 11 11 11 10 11 11 11 9 10 11 12 14 17 20 23 26 29 31 33 34 35 37 39 42 46 46 45 48 51 55 59 64 68 74 79 84 87
12 8 10 13 11 13 9 11 13 12 12 12 11 11 10 11 12 13 15 18 22 25 27 29 30 31 33 36 37 42 44 44 44 47 50 53 58 62 67 74 81 85 89 93
13 14 14 19 18 15 13 15 14 11 9 9 10 9 10 11 12 14 19 22 24 26 26 27 30 32 34 37 40 42 43 43 45 48 52 56 60 66 74 80 85 89 91 95
13 10 15 17 15 15 14 13 13 12 10 9 9 12 12 13 16 20 21 22 23 25 26 28 30 33 38 38 41 41 41 44 47 50 54 59 65 71 76 82 87 89 93 98
12 15 11 18 18 20 18 16 12 9 9 10 12 13 15 18 20 21 22 23 25 27 29 32 35 35 38 40 40 40 42 45 49 53 58 63 69 75 80 84 87 90 95 98
14 14 18 20 20 21 17 14 11 9 11 12 14 16 19 21 23 23 24 25 27 30 32 31 34 36 39 38 39 42 44 48 52 57 62 67 74 79 82 87 90 92 94 78
16 23 21 17 21 18 18 16 15 16 17 18 20 22 24 26 27 26 27 29 30 28 30 33 36 37 37 38 41 43 46 51 56 62 67 74 78 81 85 89 91 92 77 64
22 24 23 22 24 21 21 23 25 23 25 26 27 28 29 29 29 28 29 27 28 30 33 35 37 36 37 39 42 46 51 56 62 67 72 77 80 83 88 91 91 76 63 62
20 23 23 24 26 27 26 25 25 27 28 29 30 31 31 30 29 28 28 28 30 33 35 36 35 37 39 42 46 51 56 61 66 71 75 78 81 86 91 91 77 63 60 55
18 19 18 18 19 22 25 28 29 31 32 33 33 31 29 27 26 28 29 31 32 35 35 35 37 39 42 46 51 55 60 65 70 74 77 80 85 90 90 77 63 60 55 45
22 24 26 26 27 28 30 32 33 33 31 28 26 24 25 27 28 29 30 32 35 34 35 37 39 42 46 50 55 59 64 69 73 76 79 83 89 91 78 64 61 54 45 38
27 27 28 28 29 29 30 27 26 26 24 24 24 25 27 28 29 30 32 32 33 34 36 38 41 46 50 54 58 64 68 72 75 77 82 88 89 78 63 61 54 45 36 27
20 22 23 23 23 24 24 23 23 23 24 25 27 28 28 28 29 29 30 32 34 35 37 41 46 50 54 58 63 67 70 73 76 82 87 89 76 62 60 53 46 35 25 16
21 22 22 23 24 25 25 25 26 26 27 27 26 26 27 27 28 30 32 34 35 38 41 46 50 54 58 63 66 68 72 76 83 87 88 72 61 59 53 46 34 24 16 5
21 22 22 23 24 25 25 25 25 25 26 26 27 26 26 28 30 32 33 36 38 42 47 50 55 59 62 65 68 71 76 83 85 86 69 61 58 53 45 35 25 17 4 8
24 24 24 25 25 25 25 25 25 26 25 24 24 24 26 28 31 34 36 39 43 47 51 55 59 62 64 67 71 76 83 84 83 66 59 56 51 44 36 28 20 4 8 15
22 23 24 24 24 23 23 21 20 20 20 21 24 27 29 31 33 37 40 44 47 51 55 59 61 63 66 71 77 82 82 79 63 58 56 51 43 36 31 21 4 9 18 20
20 20 19 17 16 16 17 19 20 23 25 26 28 29 32 35 38 41 45 48 52 55 59 61 62 66 70 76 81 82 73 61 56 55 50 43 37 32 21 3 13 22 23 24

GFSNGP_500_spd_033.txt.gz
Wind_Speed
13 10 17 7 8 7 13 22 29 27 36 40 38 43 39 36 33 32 26 27 26 25 23 21 21 21 22 23 25 27 28 31 33 36 38 40 42 43 46 49 52 52 54 58
12 8 8 4 9 11 7 11 9 36 38 33 35 35 32 27 24 27 27 26 23 20 18 19 20 21 21 22 25 28 30 32 34 37 39 40 41 45 47 48 50 53 57 60
12 13 10 11 7 18 15 25 34 33 34 32 32 32 28 26 26 26 25 23 22 21 18 18 19 20 23 25 28 30 31 33 36 37 38 40 43 46 47 49 53 57 60 64
10 9 12 11 11 19 22 14 24 32 36 30 28 26 26 26 26 24 22 20 18 18 18 19 20 22 24 27 29 29 31 34 35 37 40 42 45 47 49 53 56 60 62 60
4 5 6 4 3 4 10 13 15 25 27 24 26 22 22 22 21 20 22 22 20 20 20 21 22 23 24 25 27 29 31 33 36 38 42 44 45 48 52 55 60 59 58 61
1 2 3 3 1 2 5 4 9 9 11 13 13 16 18 18 20 21 20 18 18 19 20 22 22 22 24 26 27 29 32 35 38 40 41 44 48 50 54 58 55 56 60 63
5 1 2 3 2 1 4 4 9 14 14 15 17 18 21 19 17 15 17 18 19 20 20 20 22 24 25 26 29 31 35 37 38 40 43 46 49 53 54 53 55 57 60 65
2 1 4 6 8 8 8 10 12 13 13 12 14 19 19 18 16 18 18 18 17 18 19 20 21 24 26 29 31 34 35 37 40 42 44 47 52 51 51 53 55 58 63 70
6 6 5 8 7 8 8 8 9 10 12 12 13 15 16 17 16 15 15 15 16 17 19 21 22 25 28 30 31 34 36 38 41 43 47 49 49 49 51 54 57 62 67 73
15 14 11 9 10 10 12 12 13 14 14 15 16 15 14 14 13 13 15 15 15 17 19 22 25 27 29 31 32 34 36 39 41 45 47 47 48 50 53 56 61 67 72 79
17 15 16 13 13 10 12 12 13 14 14 15 14 14 15 14 13 12 12 12 14 18 21 24 26 27 29 30 33 35 38 42 43 46 46 47 49 52 56 62 67 72 79 84
16 13 10 12 14 11 14 11 13 14 14 15 15 14 12 11 11 11 12 14 17 20 22 23 25 27 29 32 34 38 40 43 44 44 45 47 50 55 61 67 73 79 84 88
17 15 13 14 15 15 15 12 14 14 12 10 8 8 9 10 11 12 16 18 20 21 22 24 26 29 32 35 38 38 41 43 43 44 46 49 54 58 63 71 78 82 86 91
17 13 9 13 16 16 14 14 13 12 9 8 8 9 10 11 13 16 19 21 23 24 25 27 30 33 35 34 37 40 41 41 43 45 49 53 58 63 69 74 79 83 89 95
13 12 15 12 17 15 18 18 16 11 9 8 8 10 12 15 18 21 22 24 25 26 28 31 32 32 34 36 39 40 40 41 44 48 52 57 62 68 73 78 82 86 93 97
19 17 14 14 18 20 22 21 17 14 12 12 14 16 18 20 22 23 25 26 27 28 30 30 32 34 35 38 39 39 41 43 47 52 57 61 67 71 77 81 86 92 96 82
13 16 16 18 18 20 26 23 19 20 19 19 22 25 27 27 28 29 29 29 29 28 29 32 34 35 38 37 39 40 43 46 51 56 60 66 71 76 80 84 90 95 80 68
13 18 21 22 22 25 24 22 24 25 25 27 29 29 30 31 31 31 29 27 28 29 31 33 35 35 36 38 39 41 46 51 55 60 66 71 75 78 83 90 95 80 66 59
17 20 21 22 23 26 29 29 28 28 28 29 32 33 32 31 28 25 26 29 30 30 32 34 33 35 37 38 41 45 50 55 60 65 69 73 77 83 90 93 80 65 58 50
17 16 16 16 17 19 21 23 26 28 29 31 31 28 26 25 26 28 28 29 29 31 31 33 34 36 38 41 46 51 55 60 64 68 73 76 81 89 92 79 65 57 50 39
19 20 22 23 25 26 27 28 27 27 26 25 24 25 25 26 28 28 27 28 30 31 32 34 35 38 41 46 50 55 60 64 68 71 76 81 88 90 76 63 56 49 38 25
15 19 22 24 26 26 26 25 23 23 23 24 25 26 27 27 26 26 28 30 30 32 33 35 38 41 46 50 55 60 64 67 71 75 80 88 88 75 62 55 47 38 27 15
16 17 17 17 18 20 21 23 24 25 25 26 26 25 24 26 27 28 29 29 30 32 35 38 42 46 51 55 59 63 66 69 74 80 88 87 74 61 55 47 37 27 17 5
19 20 21 22 22 23 23 24 24 24 24 24 25 26 26 26 26 27 27 30 33 35 38 42 46 50 54 59 61 64 68 73 79 88 86 73 59 55 48 37 29 18 3 7
22 22 23 23 23 23 23 23 23 24 25 25 26 24 23 24 25 28 30 32 35 38 42 46 50 54 58 61 64 68 72 78 87 84 70 58 54 47 38 30 20 2 9 14
24 23 24 24 24 25 24 25 25 24 23 22 22 23 24 26 27 29 32 36 39 42 46 50 54 57 60 63 67 72 78 85 81 69 57 54 46 38 32 21 2 13 17 19
24 24 24 24 24 24 22 20 19 19 21 22 23 24 25 27 30 33 36 40 44 48 51 54 57 59 62 66 71 78 84 78 65 56 54 46 39 33 22 3 16 21 22 21

GFSNGP_500_spd_036.txt.gz
Wind_Speed
17 19 19 22 18 7 15 14 19 16 23 29 24 36 38 34 32 32 34 32 31 31 32 32 32 31 30 28 27 28 28 28 29 31 32 34 37 39 41 44 46 48 51 52
15 14 16 17 15 12 8 13 13 28 28 33 39 39 35 33 31 30 32 30 28 28 28 28 28 28 28 28 27 26 25 26 29 32 33 35 38 40 42 45 47 50 51 54
13 18 16 26 16 14 13 13 18 25 21 26 32 34 28 36 31 28 27 29 27 27 26 26 26 27 25 23 22 22 25 28 31 33 34 37 38 41 44 46 48 51 54 58
13 18 18 21 18 15 20 17 29 19 32 30 29 29 37 34 32 27 25 22 21 23 24 23 21 19 19 20 22 24 27 29 31 33 35 37 40 43 46 47 50 53 56 61
10 12 12 12 17 18 14 15 19 20 27 31 32 32 37 31 28 25 24 22 22 21 19 17 16 17 19 22 24 26 27 30 32 33 36 38 42 43 46 49 52 55 60 58
2 6 8 6 8 12 12 18 19 22 23 21 25 26 25 23 21 21 21 20 18 16 17 17 19 21 23 24 24 26 28 30 32 34 38 41 42 45 48 50 54 57 56 57
3 4 5 7 7 8 9 9 10 13 16 18 16 13 21 19 16 15 16 15 16 17 19 22 23 22 22 23 24 26 28 31 34 37 38 41 43 46 49 53 55 54 54 58
5 6 3 6 7 6 10 10 11 13 13 14 13 11 9 11 11 13 13 14 16 19 20 20 20 20 21 22 25 28 31 33 35 37 40 42 45 48 51 51 51 53 55 59
6 6 6 5 4 4 2 8 12 11 9 10 9 11 15 12 10 14 14 15 17 17 17 17 17 20 22 25 28 30 31 34 35 38 40 43 47 49 50 50 52 54 58 63
12 12 9 7 6 5 5 5 6 8 9 10 10 10 11 12 11 13 13 14 15 15 16 17 19 22 24 26 29 30 32 34 36 38 42 44 48 47 48 50 53 58 62 67
18 15 11 10 8 7 7 8 7 7 9 11 12 12 12 13 13 12 12 12 12 14 15 18 21 23 25 27 29 31 33 35 38 41 42 45 45 47 49 53 57 62 66 72
18 12 9 8 9 10 8 8 8 9 8 9 10 12 13 14 14 11 9 11 12 14 17 20 22 23 25 27 30 32 35 38 39 42 44 44 46 49 53 57 62 67 73 78
15 14 11 11 9 10 9 10 7 9 11 11 13 13 12 7 7 10 11 12 16 18 20 21 23 25 27 29 33 35 36 38 41 43 43 45 48 51 55 62 67 73 77 82
14 14 15 12 14 13 13 12 10 13 13 11 9 7 7 9 10 12 14 17 19 21 23 24 26 28 31 33 32 35 37 40 42 42 44 47 50 55 59 64 69 74 80 84
11 15 14 13 9 13 13 13 13 13 14 10 8 8 9 10 11 14 18 20 22 24 25 27 30 31 30 31 34 36 39 40 40 43 45 49 53 58 64 70 75 79 83 91
15 13 12 12 13 14 14 17 18 17 13 11 9 10 11 13 16 21 23 25 26 28 29 30 29 29 31 34 36 38 38 40 42 44 49 53 58 64 70 74 78 82 90 93
13 16 16 15 11 12 17 20 22 22 18 14 14 15 18 21 24 27 28 29 30 30 28 27 29 32 34 36 36 37 39 41 44 48 52 58 63 69 73 77 81 89 92 85
11 13 14 14 16 17 19 21 23 24 18 18 20 23 25 28 30 31 31 29 27 26 27 30 32 34 36 35 37 39 40 43 47 52 58 63 67 72 75 79 87 92 82 66
12 13 15 17 18 21 23 24 26 26 25 26 28 28 30 29 30 29 26 25 26 28 30 33 34 34 35 37 38 39 42 46 52 56 61 66 70 74 78 84 91 81 65 55
15 15 14 15 16 18 20 23 25 26 27 25 26 26 26 26 25 25 25 26 29 31 32 33 33 34 36 37 39 42 47 52 56 61 65 69 73 77 84 90 81 62 54 46
13 14 15 17 17 17 18 20 22 23 25 25 25 25 24 24 24 26 27 29 30 31 32 32 34 34 37 39 43 47 51 57 61 64 68 72 76 83 88 77 60 52 44 33
15 16 18 20 21 22 24 25 25 25 23 22 22 23 23 24 26 27 28 29 30 31 31 32 34 36 39 43 47 52 57 61 64 68 72 76 82 87 75 58 51 43 32 20
16 16 16 16 16 18 18 18 19 20 21 23 23 24 25 25 26 27 28 29 29 29 31 34 36 39 43 47 53 57 60 64 67 71 75 82 86 73 57 51 43 32 21 7
18 18 19 19 19 19 20 20 22 23 23 23 23 24 25 26 27 27 26 27 29 30 32 36 39 43 49 53 57 60 63 67 70 76 83 87 72 57 52 43 34 22 6 6
21 20 21 20 20 20 21 22 22 23 23 23 24 25 26 25 24 25 27 28 29 31 34 39 45 49 53 57 59 62 66 70 76 83 86 71 58 52 45 35 23 6 8 13
24 23 22 22 22 22 22 22 23 23 23 24 25 24 22 23 25 26 27 29 31 36 41 45 50 54 57 59 62 66 69 75 84 85 70 59 51 45 37 25 7 12 17 17
26 26 26 25 24 23 23 23 24 24 23 22 21 22 24 24 25 28 31 34 38 41 46 50 53 56 58 61 64 69 75 84 82 68 57 49 44 38 26 6 14 20 21 18

GFSNGP_500_spd_039.txt.gz
Wind_Speed
16 18 20 17 19 15 17 13 3 2 10 21 27 8 17 35 40 41 36 34 36 38 39 40 39 36 35 36 36 34 33 32 33 33 30 30 31 34 37 39 43 45 48 50
9 11 20 18 18 12 3 13 8 9 14 12 3 25 31 33 34 33 37 36 35 34 33 32 30 33 34 33 33 32 31 32 29 28 29 30 34 36 38 41 43 46 49 51
11 14 17 22 27 12 9 3 1 8 20 26 30 39 27 26 27 27 31 30 29 28 29 30 31 30 28 29 30 30 28 26 26 28 31 33 35 37 39 42 45 47 50 52
7 10 14 22 21 12 14 7 7 18 21 26 29 24 25 23 28 29 29 28 25 24 25 26 24 24 24 23 22 23 24 26 28 30 32 33 36 38 41 43 47 48 51 54
6 11 13 13 13 17 7 3 1 10 16 18 24 19 22 21 18 20 24 26 26 27 26 24 22 19 17 19 21 23 24 26 28 30 32 35 37 40 43 45 47 50 52 55
4 8 10 11 9 12 9 7 9 12 14 18 17 20 25 17 14 15 19 25 23 23 21 17 16 16 17 19 20 22 23 26 28 31 33 36 39 42 43 46 48 50 55 57
3 7 9 10 8 8 8 9 9 10 15 16 19 19 18 23 22 21 19 17 15 15 16 17 16 15 17 19 20 22 24 27 29 32 35 38 39 42 43 46 49 53 54 55
3 6 6 7 7 5 7 12 12 10 11 11 14 20 19 17 16 14 16 17 14 13 11 11 14 16 18 18 20 22 25 28 31 34 36 38 40 42 45 49 50 52 52 55
4 6 9 7 3 5 3 9 10 10 10 9 10 11 12 11 10 9 10 10 10 10 11 13 14 15 16 18 21 24 27 29 31 34 36 39 41 45 46 48 49 51 53 56
8 8 12 9 6 2 4 5 6 8 8 10 9 13 14 10 12 9 8 9 9 9 11 12 14 14 16 19 22 24 27 29 32 35 38 40 43 44 47 48 49 52 55 59
11 12 14 11 6 3 3 7 8 5 7 9 8 9 12 11 9 9 10 8 7 9 9 10 12 15 18 20 23 26 29 32 34 37 39 40 43 45 47 48 51 54 58 62
15 13 10 8 5 5 4 5 7 5 5 7 9 10 11 9 7 7 8 6 4 6 9 13 15 18 21 23 26 29 32 35 35 36 38 41 44 46 47 50 53 58 63 69
13 11 10 6 6 5 6 6 7 7 8 7 7 7 6 8 10 5 1 5 8 11 14 17 20 23 25 28 30 32 33 33 35 38 41 43 44 46 48 54 59 63 68 74
10 10 11 10 10 8 9 7 3 5 8 7 5 7 6 3 2 5 6 8 11 15 19 22 24 26 28 30 30 30 32 35 37 41 42 43 45 47 51 56 60 66 73 77
10 9 8 8 8 5 10 10 8 10 11 11 10 7 3 4 4 4 7 11 16 19 22 24 27 28 29 28 29 32 34 37 40 41 43 44 47 51 56 60 66 70 75 81
9 11 9 11 9 11 10 11 10 11 14 15 10 6 6 6 7 10 13 17 22 25 27 29 27 25 27 29 32 35 37 39 40 41 42 46 50 55 60 66 70 75 79 84
14 11 13 13 11 8 11 13 17 21 19 15 14 10 10 11 14 17 22 26 28 29 29 25 25 27 29 32 34 37 38 39 39 42 45 50 55 60 64 69 74 80 85 91
11 11 12 13 12 12 11 13 17 23 20 20 19 17 17 20 23 27 29 29 29 27 25 26 27 30 32 34 36 36 37 38 41 45 50 55 59 64 69 73 78 83 88 74
11 12 12 13 14 16 15 16 20 21 22 22 24 24 25 26 28 27 26 26 25 25 26 28 30 31 33 34 34 35 38 41 45 50 55 59 64 68 72 77 84 86 70 55
14 12 11 12 13 13 14 18 19 21 21 24 27 27 27 25 25 24 24 24 25 26 28 29 30 33 33 32 35 37 41 45 50 54 59 63 68 72 77 84 86 69 55 44
11 11 12 14 14 13 13 14 15 16 18 20 21 22 22 23 22 23 24 24 25 26 29 30 31 30 32 34 37 41 45 51 55 59 63 69 72 75 84 87 70 55 44 32
15 15 15 16 17 17 17 18 20 21 22 23 23 21 20 21 22 22 23 24 26 28 29 28 29 32 34 37 41 46 52 55 59 64 68 72 75 82 88 72 55 43 33 19
15 15 15 15 15 16 18 19 19 19 19 18 19 20 21 21 21 22 24 26 27 26 27 29 31 34 37 42 47 52 55 58 63 67 71 75 83 90 75 57 43 33 20 4
17 17 17 17 17 18 18 18 19 20 21 20 21 21 21 21 22 24 25 24 24 26 28 31 34 38 42 46 52 55 58 62 66 70 75 82 91 74 59 46 35 22 5 9
21 20 20 20 20 20 20 21 21 20 20 20 20 21 22 23 23 22 21 24 26 28 31 34 38 41 46 50 53 57 62 66 70 75 81 91 74 60 51 40 24 5 13 14
22 24 24 23 22 22 21 21 21 21 21 21 22 22 22 21 20 22 25 25 27 30 34 37 41 45 49 53 58 61 64 69 74 80 88 74 60 52 43 27 3 17 19 16
26 25 25 25 24 24 24 23 23 23 23 24 24 22 19 20 22 24 25 27 29 33 37 42 45 50 53 58 61 64 68 72 77 86 73 58 51 44 25 1 20 23 20 16

GFSNGP_500_spd_042.txt.gz
Wind_Speed
10 5 8 16 19 25 27 25 27 26 27 26 26 22 18 26 23 26 35 44 47 42 39 38 40 42 43 41 39 38 39 38 36 36 36 37 37 38 38 37 38 41 44 47
3 5 10 12 17 24 22 18 22 22 19 17 17 11 4 14 16 32 37 39 40 37 37 38 39 42 41 36 35 37 37 35 34 33 35 34 36 36 36 38 40 43 47 49
7 6 10 14 14 22 19 11 13 11 7 1 9 14 13 24 25 27 31 29 33 36 36 36 35 34 32 32 33 34 33 32 32 32 32 33 33 35 36 39 43 46 46 48
4 6 7 10 15 19 16 11 5 14 15 15 9 8 16 19 24 25 26 27 28 28 28 29 28 28 29 29 29 29 29 29 29 29 30 31 33 36 39 41 42 44 48 51
3 4 6 7 10 16 12 14 2 6 6 7 4 5 9 21 24 26 26 23 24 23 22 22 22 22 23 23 22 22 24 26 27 27 29 32 33 35 38 40 44 48 50 52
4 2 4 7 9 11 11 9 4 9 5 5 2 5 13 24 25 25 23 21 20 20 21 21 20 20 20 19 20 22 23 23 25 26 27 30 32 35 39 43 46 48 49 51
5 3 6 8 9 11 9 5 7 5 9 8 2 4 7 13 15 21 24 22 22 23 22 22 21 19 19 19 20 20 18 19 22 25 28 31 35 38 42 43 45 48 51 53
6 5 4 5 6 5 4 2 8 9 4 5 2 3 4 14 12 12 11 16 19 20 19 18 18 14 10 9 11 15 18 21 24 27 30 34 36 38 40 44 47 49 51 55
6 2 4 2 4 4 2 4 3 2 6 12 5 15 13 10 9 7 11 12 5 4 2 5 6 6 6 10 14 17 20 23 26 28 31 34 37 40 43 45 47 50 53 53
7 5 5 3 1 4 5 6 9 4 2 5 3 17 11 9 13 7 6 7 7 5 5 6 6 7 10 13 15 17 19 23 26 30 33 36 40 41 43 46 49 51 51 52
11 8 8 5 3 4 4 7 6 6 4 5 6 8 11 7 5 6 5 4 5 7 7 5 5 7 10 13 16 19 23 26 29 33 36 37 38 42 45 47 48 49 51 55
13 12 11 5 2 4 6 3 9 4 4 5 5 7 7 8 8 8 6 5 5 5 4 4 7 11 13 17 21 24 27 30 32 33 34 38 41 43 45 46 47 50 55 59
14 13 8 6 4 2 5 4 6 7 5 3 3 3 3 4 6 6 6 7 5 3 4 8 12 15 19 22 25 27 30 30 30 34 36 39 42 43 44 46 51 55 60 66
13 9 8 8 9 6 7 6 4 9 7 8 8 8 9 11 10 8 6 4 1 4 9 13 17 19 23 26 27 27 28 30 33 36 38 39 41 42 45 49 54 60 66 69
12 8 10 10 10 8 8 9 10 9 12 14 11 11 12 9 6 5 3 2 5 8 14 18 21 24 26 26 25 27 30 33 35 37 38 39 41 45 49 53 58 63 68 73
8 7 8 9 9 7 7 10 10 8 9 13 13 13 11 7 7 6 6 8 13 19 23 25 25 25 25 26 27 30 32 34 36 36 37 40 44 49 54 59 63 67 72 76
10 11 10 10 9 8 7 12 12 14 14 17 18 16 12 11 11 11 12 16 21 24 24 24 24 24 25 27 29 32 34 34 34 37 40 44 49 54 58 62 66 71 76 83
12 9 11 12 14 12 10 12 14 14 15 21 21 18 17 16 16 18 20 23 22 23 23 24 24 25 26 29 31 33 32 33 36 40 44 49 54 57 62 66 71 76 82 88
13 12 13 12 12 12 12 12 12 13 16 24 21 19 19 21 21 23 24 23 22 22 22 23 24 26 28 31 31 31 33 36 40 44 50 54 57 62 67 70 76 83 86 72
11 12 13 13 12 12 13 14 15 14 15 16 17 17 19 21 20 20 21 21 21 21 22 23 25 28 30 28 30 32 36 40 45 50 53 58 62 67 71 76 81 86 70 49
13 13 13 12 12 12 12 12 12 13 14 15 15 16 18 19 20 21 20 20 20 20 22 24 27 26 27 29 32 36 40 45 49 53 59 63 68 70 76 81 86 69 49 38
11 11 11 11 11 12 12 13 15 16 17 18 19 21 20 18 17 18 19 19 20 21 24 25 24 26 28 32 36 41 44 49 53 58 62 67 70 76 80 88 71 51 40 27
15 15 15 14 14 14 15 16 17 18 17 17 16 16 16 17 18 19 19 20 21 23 22 23 25 28 32 36 39 43 48 53 58 62 66 70 75 81 88 75 54 43 29 11
16 16 16 16 16 16 16 16 16 17 18 18 18 18 19 19 20 20 20 21 21 20 23 24 27 31 34 39 44 48 53 57 62 66 70 74 80 87 77 57 47 31 11 10
19 19 19 20 20 20 20 20 19 19 19 19 19 19 20 20 21 21 22 20 20 22 24 27 31 34 40 45 48 52 56 60 65 68 73 80 85 79 60 49 31 7 12 15
22 22 23 23 24 24 24 22 20 21 21 21 20 21 21 21 22 22 19 20 22 24 27 30 35 38 44 47 50 56 59 64 68 71 79 85 77 58 47 28 2 17 18 14
27 27 27 26 25 25 25 23 22 22 22 22 22 22 23 23 21 19 20 23 24 27 29 34 37 42 46 49 55 59 63 66 70 78 83 74 55 44 23 4 19 20 16 14

GFSNGP_500_spd_045.txt.gz
Wind_Speed
19 18 13 11 14 19 29 31 31 25 34 38 35 36 39 39 34 28 28 28 30 40 41 41 44 39 42 44 46 44 42 43 41 40 37 33 35 37 39 41 41 42 45 44
18 11 11 14 17 22 26 21 19 25 25 26 29 25 17 11 9 9 13 18 21 28 32 39 37 40 42 42 40 39 39 38 39 37 32 32 35 36 38 38 41 44 42 42
15 12 16 15 15 17 16 12 12 12 19 28 29 22 13 10 5 1 9 19 27 27 33 33 33 35 37 38 38 37 34 33 32 30 31 33 34 35 35 41 40 40 42 45
15 12 14 12 12 14 11 11 13 15 17 18 29 15 18 17 18 20 20 22 24 27 28 28 28 30 32 32 30 26 24 24 28 29 33 32 30 36 38 37 38 41 43 45
13 11 9 8 8 10 12 13 16 16 13 18 17 28 1 9 15 18 21 22 23 23 21 21 22 24 21 20 20 20 19 24 27 31 28 32 32 32 34 38 39 40 43 47
11 8 7 4 6 10 12 12 12 13 14 15 22 9 12 23 20 21 22 20 19 19 18 17 15 13 13 14 21 22 27 25 30 26 27 28 31 34 33 35 38 43 45 47
10 7 4 5 7 8 9 9 8 9 11 10 11 13 9 9 10 17 19 18 20 21 21 21 23 22 24 25 25 26 25 24 23 25 28 27 27 30 34 38 40 42 45 48
8 4 2 5 6 7 7 9 4 10 12 4 6 5 4 11 9 9 12 14 12 16 18 18 18 19 20 20 20 20 20 20 19 19 21 25 30 32 35 38 41 45 47 49
7 4 3 6 7 5 7 7 5 6 8 5 5 11 15 10 7 9 9 7 9 13 13 12 13 13 14 14 12 10 11 13 17 21 24 27 30 34 38 41 43 44 48 50
10 9 6 8 9 8 6 8 8 10 5 7 3 4 3 5 8 5 2 5 6 7 9 8 7 6 5 5 6 9 11 15 19 22 26 30 34 37 39 40 43 45 47 47
14 11 9 10 11 9 6 8 7 5 5 2 2 6 7 2 7 3 2 2 4 4 3 3 3 1 2 5 8 11 15 19 23 27 30 33 34 36 39 42 44 44 45 48
13 12 12 12 12 9 6 6 4 4 5 3 4 4 4 4 3 3 3 3 2 2 2 2 1 4 6 10 13 17 21 24 27 30 30 32 36 38 41 42 42 44 48 52
15 13 11 10 11 7 4 4 6 5 5 5 5 5 4 4 4 4 4 4 4 3 2 1 4 7 11 14 18 22 25 27 28 29 32 35 38 39 39 40 44 48 53 59
17 16 14 10 12 10 6 7 6 8 7 7 6 6 5 6 7 8 8 6 5 3 2 5 9 13 17 20 23 24 25 27 29 32 35 37 37 38 40 43 48 55 59 62
17 14 15 12 12 13 11 11 10 8 8 9 11 10 9 9 9 8 7 6 4 4 9 14 18 22 23 23 24 25 26 28 31 33 35 35 37 39 43 48 54 57 61 67
13 13 14 11 9 11 9 9 14 13 11 10 12 10 12 12 9 8 8 7 8 11 15 20 22 22 22 22 24 25 27 30 32 32 33 36 39 43 49 53 56 62 67 69
14 14 12 10 10 12 9 10 11 11 10 11 9 13 18 15 12 11 11 13 16 19 21 20 21 21 22 23 25 27 29 31 31 33 36 39 44 48 52 57 61 67 70 76
11 14 12 15 15 14 9 9 11 12 12 16 16 21 22 17 17 17 18 20 21 22 21 20 21 21 23 24 27 29 29 30 32 35 39 44 48 53 57 62 67 69 76 79
11 11 11 12 13 15 14 13 13 14 15 16 18 20 23 22 19 20 22 23 21 19 20 20 21 22 24 26 28 27 30 32 36 40 44 48 53 58 62 68 70 76 80 82
14 11 11 13 14 14 13 13 13 12 16 19 18 17 17 18 19 20 19 19 20 19 19 21 22 24 26 25 26 29 31 35 40 43 49 52 58 63 68 72 77 83 84 66
12 12 12 13 15 15 15 14 12 12 12 14 16 16 16 17 17 19 20 19 18 19 20 21 23 25 24 26 27 30 34 38 44 48 52 58 63 68 72 77 86 85 65 48
8 9 9 10 11 11 11 12 13 15 15 17 17 17 18 19 18 16 16 18 19 20 21 23 24 23 25 27 30 34 38 44 48 51 57 62 67 71 77 85 82 64 50 38
14 13 13 13 14 14 15 15 15 16 17 17 18 17 16 16 17 18 19 20 20 22 24 24 23 25 26 29 33 37 42 47 50 55 61 67 68 78 84 84 63 51 38 16
16 16 16 15 15 16 17 17 17 17 17 17 17 17 18 19 20 21 21 21 22 24 24 23 25 26 28 31 35 40 46 49 54 61 67 68 77 82 84 64 52 33 10 6
19 19 19 18 18 19 19 20 20 20 19 20 20 20 21 22 23 22 23 23 24 24 22 24 26 27 30 34 39 44 48 52 58 65 68 76 78 83 61 47 25 7 11 13
25 23 22 22 22 23 24 24 24 23 23 23 23 23 23 23 24 24 24 25 25 23 24 25 27 30 33 37 42 46 49 54 61 68 73 75 82 60 42 20 7 12 12 11
30 29 28 27 27 27 27 26 26 25 25 26 26 25 25 25 26 26 26 25 24 24 25 26 29 32 35 40 44 48 52 57 65 69 72 79 61 40 16 7 11 11 11 10

GFSNGP_500_spd_048.txt.gz
Wind_Speed
18 22 17 15 19 20 22 23 29 24 25 25 34 43 42 38 31 29 24 27 21 17 16 21 29 28 31 31 31 38 40 44 42 39 38 40 39 38 34 33 35 37 37 42
20 16 14 13 17 19 21 22 23 24 19 30 32 31 45 36 28 25 21 14 10 7 14 21 24 18 22 24 33 37 40 40 35 35 38 36 34 31 32 33 34 40 38 39
15 15 16 16 18 19 18 20 21 22 24 27 32 39 39 24 18 18 12 1 5 6 12 16 17 21 22 30 32 33 34 33 31 32 30 30 30 29 28 35 34 36 38 43
16 18 16 13 16 15 17 20 19 20 17 22 27 18 13 17 16 18 13 10 11 14 17 19 21 24 25 27 27 28 28 29 29 28 27 26 26 26 32 32 33 40 42 43
17 16 13 11 13 13 14 11 15 14 17 19 21 20 10 17 16 13 17 16 19 22 24 24 22 22 23 23 25 26 23 22 23 23 28 20 23 28 30 35 37 38 39 41
15 12 11 10 10 9 7 10 12 13 14 15 17 20 12 14 9 9 17 20 20 18 16 17 18 18 19 18 18 18 19 20 21 22 21 27 28 29 31 34 36 37 39 42
13 10 11 10 7 7 8 8 8 12 14 12 13 16 13 8 12 15 12 18 19 19 18 18 14 22 21 21 21 19 19 22 33 20 22 25 25 29 30 31 35 38 39 42
10 11 11 9 8 8 6 6 10 10 11 9 13 11 10 4 7 5 10 10 12 5 12 14 16 18 21 18 25 19 21 21 19 19 22 23 23 27 30 32 34 37 41 43
12 10 6 7 9 9 8 7 7 10 12 7 11 6 4 11 13 12 3 8 8 7 6 7 10 10 11 10 12 16 18 18 18 16 18 22 25 27 30 34 37 38 41 44
14 12 9 10 12 12 10 9 8 7 7 1 7 4 3 5 8 8 7 8 4 5 7 5 4 4 5 7 9 8 7 8 13 16 20 23 26 30 33 34 37 40 42 43
18 13 12 13 14 14 9 10 10 6 3 1 2 2 3 2 2 5 4 3 5 6 6 6 6 6 5 4 5 6 8 12 16 19 23 26 28 30 33 36 39 40 41 43
19 14 15 15 15 14 10 9 9 5 3 3 4 2 1 4 3 1 1 2 3 4 6 7 5 3 3 3 6 9 13 17 20 22 24 27 30 34 36 38 38 39 42 46
17 17 15 15 15 12 8 7 6 5 3 2 3 3 1 2 3 2 3 5 4 4 4 4 2 1 5 9 12 15 18 21 22 24 27 30 33 35 35 36 39 42 46 51
15 17 19 18 15 14 10 7 8 5 10 6 5 3 4 4 4 7 9 7 5 5 4 2 4 9 15 19 20 20 21 22 24 27 29 32 33 33 35 38 42 47 52 56
23 21 20 18 14 16 15 12 12 10 8 8 8 7 10 9 10 9 7 6 6 7 5 9 13 17 20 20 21 21 22 24 26 29 31 30 32 34 38 43 47 52 56 62
27 21 18 17 14 16 16 14 15 17 14 13 12 10 12 12 12 8 7 9 9 11 13 15 18 20 19 21 21 23 25 27 29 29 28 31 35 39 43 47 52 58 62 65
22 17 16 14 14 14 12 12 12 11 13 13 9 10 9 13 16 14 13 14 14 17 19 21 21 20 21 21 23 25 27 28 27 28 31 35 39 43 48 52 58 63 66 72
18 16 16 15 14 13 14 13 10 10 12 13 13 13 13 16 18 16 16 19 21 22 24 23 19 21 22 23 24 26 27 26 28 31 34 39 44 48 52 58 64 67 73 80
16 13 15 16 13 16 16 16 14 13 12 13 13 20 19 21 22 21 21 20 22 23 20 20 21 22 23 24 26 26 25 27 30 34 38 43 47 52 57 63 67 75 82 91
17 17 14 16 15 15 14 15 15 14 12 11 14 17 21 21 19 18 21 22 19 19 20 20 21 23 24 25 25 24 27 29 33 37 41 47 51 57 63 67 75 83 92 84
17 15 13 13 13 15 16 16 16 14 14 16 16 15 15 17 19 19 19 19 19 18 19 21 22 24 25 24 24 26 28 32 35 40 46 51 55 62 66 74 82 90 83 68
9 10 10 11 12 12 12 12 13 13 14 14 16 17 18 19 19 19 17 16 18 20 21 22 24 25 25 24 26 28 31 34 39 44 50 54 59 63 73 80 89 81 63 36
9 9 9 10 10 10 10 11 12 14 15 17 19 19 18 17 16 16 17 19 20 22 23 24 25 26 24 25 28 30 34 38 42 47 51 55 62 68 74 88 77 54 27 10
15 15 14 14 13 13 13 14 14 14 15 15 16 16 17 18 19 19 19 20 22 23 25 26 27 24 25 27 29 32 36 40 44 48 52 61 62 71 82 77 47 20 11 11
18 17 17 17 17 17 17 17 17 17 18 18 19 19 20 20 20 20 21 23 25 25 26 28 26 25 26 28 31 34 38 42 46 51 55 61 68 71 78 49 16 9 9 8
25 24 23 22 22 22 22 22 22 22 22 22 22 22 23 23 23 23 24 25 26 26 28 28 25 25 27 30 33 35 40 43 48 51 57 62 65 76 56 20 6 5 5 7
32 31 29 29 28 27 26 25 25 24 25 24 24 24 25 25 26 26 27 26 27 28 28 26 25 26 29 32 35 38 41 45 50 53 57 63 69 64 35 8 2 2 3 4

GFSNGP_500_spd_051.txt.gz
Wind_Speed
12 12 15 16 20 18 15 17 20 15 24 23 25 27 34 35 40 47 41 38 25 23 23 24 24 23 21 23 30 35 38 38 38 42 41 39 38 34 34 29 34 32 33 33
15 15 15 12 15 15 15 19 18 23 18 22 19 26 24 29 33 38 32 29 16 11 11 14 11 12 17 18 25 28 31 33 35 38 35 33 31 29 25 34 31 32 32 30
16 15 10 11 12 13 17 16 18 19 19 17 19 23 16 23 28 29 30 21 12 2 6 12 14 17 16 18 20 24 30 32 32 31 26 25 22 26 33 28 27 31 38 34
14 12 11 10 13 13 14 11 13 13 14 13 11 12 13 19 25 23 22 17 9 2 9 15 16 18 20 24 24 26 27 27 24 20 29 25 24 28 22 24 23 27 39 39
14 12 10 10 10 10 9 9 9 7 10 10 12 12 16 20 23 16 17 15 12 9 9 10 11 15 18 19 22 24 24 24 21 25 24 26 25 20 22 26 28 32 38 41
12 9 11 11 7 8 7 7 5 7 8 11 11 15 17 12 17 17 11 13 13 16 13 13 15 17 18 17 18 17 15 23 21 18 22 22 31 27 29 32 30 37 39 41
10 9 11 8 7 9 8 8 7 5 11 11 11 11 13 11 10 13 13 9 7 12 11 15 15 19 21 20 13 16 19 13 13 18 24 33 32 29 27 32 34 33 36 39
10 11 12 8 6 7 8 10 9 5 6 8 6 8 10 14 11 9 11 12 14 7 2 8 4 9 12 17 13 8 13 16 18 16 16 20 26 29 26 28 31 34 37 40
12 12 8 6 3 6 8 11 11 6 5 6 4 5 7 10 9 14 11 10 9 13 15 12 11 8 4 5 5 5 5 9 12 12 12 14 18 22 25 29 33 36 37 39
14 12 9 7 6 10 12 10 10 8 3 2 1 2 2 6 7 7 10 11 11 7 5 3 3 4 6 7 8 6 5 5 4 7 13 17 21 25 28 31 33 35 38 40
16 13 11 9 9 12 13 11 12 9 6 5 2 2 5 4 0 4 5 6 7 5 5 4 4 5 5 4 2 2 5 7 10 14 18 22 25 27 29 32 34 36 38 39
18 14 13 12 12 13 14 10 10 5 2 6 6 3 1 3 4 3 2 1 1 1 1 3 3 2 1 2 3 5 9 12 16 20 22 23 25 28 31 33 34 36 40 43
16 16 15 14 14 14 12 10 9 7 3 2 2 3 5 6 4 4 4 3 4 3 6 5 3 3 3 5 9 14 17 18 20 22 23 25 28 30 32 33 36 39 43 46
18 17 16 17 16 16 14 12 11 10 8 8 4 3 2 3 5 5 10 10 5 4 5 5 6 6 9 14 19 20 20 21 22 23 25 27 29 29 32 35 39 42 47 52
20 20 20 18 19 17 15 12 14 13 11 5 7 6 7 8 12 12 12 10 9 8 9 9 9 14 17 20 20 21 22 22 23 25 27 27 28 31 34 37 41 46 51 57
23 24 23 22 22 19 15 14 15 15 16 12 11 12 14 12 13 12 12 10 9 12 12 14 18 19 22 23 22 22 23 24 25 27 27 28 30 34 37 41 46 51 57 62
24 25 24 22 20 16 13 13 11 12 11 14 14 12 11 12 12 10 10 11 14 15 16 18 22 24 25 22 22 23 24 26 28 26 28 30 33 36 40 46 51 57 63 69
23 24 23 19 16 14 13 14 14 11 11 12 12 13 13 11 11 13 14 14 15 16 20 23 25 24 21 21 23 24 26 27 26 27 30 33 36 40 45 51 56 62 69 75
21 19 17 16 16 16 16 18 15 14 13 14 14 14 14 18 17 18 21 18 19 21 22 24 22 22 21 23 24 25 27 26 27 29 32 36 39 44 49 54 60 67 73 83
16 15 15 16 17 17 15 16 19 19 17 15 15 13 12 18 22 21 18 18 19 22 22 21 20 21 22 23 25 27 26 26 29 32 35 38 43 47 52 57 64 70 82 82
16 17 18 18 17 17 17 16 15 16 15 16 17 18 18 18 16 15 17 19 20 20 18 19 21 22 23 25 27 27 26 28 31 34 37 41 44 49 54 60 66 77 82 54
12 15 16 16 16 17 15 14 14 14 13 13 13 13 14 16 18 19 19 19 17 18 19 21 22 23 24 26 28 26 27 30 33 36 38 41 47 51 56 64 68 80 50 23
13 14 14 14 14 13 13 11 6 13 13 14 15 17 18 20 19 17 17 18 19 20 21 22 23 24 26 28 27 27 29 31 34 37 40 43 49 54 57 64 69 63 23 15
15 15 15 14 14 13 12 13 14 15 14 14 14 15 15 16 17 18 19 21 21 21 22 22 24 26 28 28 27 28 30 32 36 38 41 45 51 53 58 65 68 39 16 11
16 16 16 17 17 16 15 15 16 17 16 16 17 17 18 19 19 20 21 22 22 23 24 25 26 28 29 28 27 28 30 34 37 39 42 47 51 54 60 67 64 24 13 9
24 23 22 21 20 20 20 19 20 21 21 21 21 21 22 22 22 23 23 23 24 25 26 27 28 29 29 27 27 29 32 35 38 40 44 48 51 57 62 68 52 17 11 8
31 31 30 30 29 28 27 26 25 25 24 23 23 23 24 23 24 24 24 24 26 27 28 29 30 29 28 26 28 31 33 36 38 42 45 48 54 58 66 63 36 13 10 9

GFSNGP_500_spd_054.txt.gz
Wind_Speed
11 11 11 14 16 15 13 14 9 15 17 17 21 22 19 25 26 30 35 42 44 35 32 26 24 27 28 29 34 40 39 38 40 43 43 41 42 44 44 42 37 35 33 35
10 12 14 13 15 13 11 13 13 13 16 18 18 16 19 17 23 27 31 35 32 30 24 16 11 22 20 22 26 27 30 36 39 39 39 36 37 40 39 34 30 30 35 32
11 13 12 13 12 11 11 13 11 11 12 13 10 9 11 16 20 22 24 27 27 23 19 15 12 10 10 13 15 14 16 26 33 33 33 30 33 31 31 29 31 30 28 27
12 13 12 11 9 10 10 11 9 10 9 8 9 12 17 17 14 20 21 23 22 20 14 9 4 3 8 15 21 19 18 18 28 29 29 29 31 30 28 33 29 21 24 28
13 12 10 10 8 7 8 8 6 7 10 9 7 8 13 9 12 17 18 20 20 18 13 7 5 6 9 11 10 10 22 24 26 27 27 27 24 23 33 22 18 20 27 34
13 12 9 8 7 5 4 5 6 8 9 13 11 10 8 9 11 13 17 21 15 15 15 11 6 9 9 11 14 18 20 21 22 26 25 23 24 16 14 20 28 36 38 36
11 11 9 7 5 4 5 7 6 5 9 9 7 4 6 10 6 9 16 18 11 12 14 13 12 14 16 18 18 3 12 17 14 6 6 12 13 16 24 30 38 32 33 35
12 13 10 7 5 4 4 3 5 7 11 11 8 4 5 7 9 8 9 11 12 12 15 9 10 6 7 5 10 12 11 10 8 6 3 10 18 21 21 23 24 27 30 35
13 11 10 10 7 2 3 6 6 6 9 11 9 7 9 4 5 7 10 8 7 8 9 12 10 11 9 6 11 9 4 9 7 8 6 7 11 14 18 22 27 31 35 37
13 11 11 11 8 5 5 7 7 7 8 7 9 7 5 5 4 7 7 7 7 6 7 7 5 3 4 4 5 5 3 2 3 5 6 10 15 20 23 26 28 30 34 37
16 13 15 13 9 7 7 10 9 8 9 9 10 8 11 7 4 5 6 5 5 4 3 2 3 3 4 5 6 4 2 2 5 9 12 17 19 21 24 27 30 33 35 36
21 17 17 15 13 9 8 9 8 6 5 6 8 9 6 6 5 7 6 7 6 6 3 1 2 2 2 3 3 4 6 11 15 17 20 21 23 24 26 28 30 31 34 38
20 16 15 16 14 12 9 9 9 8 8 6 6 7 10 10 7 8 7 6 6 7 3 3 3 2 2 4 8 13 17 19 18 20 21 21 23 26 28 28 31 34 37 41
23 18 16 17 15 11 11 11 10 12 10 10 9 8 6 5 6 8 9 10 12 10 7 8 7 7 9 12 16 18 19 20 21 21 22 24 27 27 28 31 34 38 41 47
24 21 19 18 16 14 14 13 13 12 11 11 7 10 10 8 8 13 14 15 15 13 11 12 12 11 14 18 20 22 23 22 22 23 24 27 26 28 31 33 37 41 46 52
24 23 22 20 19 17 18 16 15 14 14 13 12 11 11 12 12 18 16 13 13 11 12 12 13 16 20 22 24 24 22 22 23 25 27 26 27 30 33 37 41 45 50 55
24 25 24 21 19 19 17 12 13 14 14 13 15 17 16 13 13 12 8 11 8 11 13 15 18 21 22 25 24 23 22 23 25 27 27 27 29 32 36 40 44 48 53 58
24 25 23 20 21 20 15 12 12 11 11 11 13 14 13 15 16 10 9 13 14 12 14 17 20 22 24 24 22 22 24 25 27 27 26 28 31 35 39 42 45 50 55 62
23 22 20 20 21 18 15 14 12 13 16 14 12 14 14 13 14 17 18 18 20 20 19 20 20 23 23 21 22 24 25 26 28 26 27 30 34 37 40 43 48 52 57 64
19 18 19 19 17 16 18 16 16 15 18 18 16 16 18 18 18 17 20 24 22 17 19 20 21 21 20 22 23 24 26 28 27 27 29 32 36 39 41 44 50 53 61 66
16 16 16 16 17 17 16 17 19 17 18 20 20 20 21 20 18 17 16 15 16 18 20 20 19 20 21 23 24 25 27 28 27 28 31 34 38 39 42 45 50 56 59 65
11 14 17 17 19 17 17 17 16 16 17 18 19 18 16 14 15 15 17 18 20 20 19 19 21 21 23 23 25 26 28 29 29 30 32 35 38 40 42 48 51 56 61 55
13 11 13 11 16 17 17 15 13 7 10 14 18 17 16 17 18 20 20 19 18 19 20 22 22 23 24 25 26 29 30 30 29 30 33 36 39 41 43 47 52 56 63 45
12 12 14 16 16 15 15 14 15 17 14 18 18 18 18 18 18 17 17 18 20 21 22 23 24 25 25 26 28 30 31 31 30 31 35 37 39 40 45 47 53 58 63 35
15 17 17 16 17 16 17 17 18 18 19 19 18 18 18 19 18 20 21 21 22 23 24 25 25 25 26 28 30 31 32 31 31 33 35 38 39 42 46 49 54 60 61 27
22 22 20 19 18 17 17 17 18 19 19 19 19 19 21 22 23 23 23 23 23 24 24 25 27 27 28 30 32 32 32 31 32 35 37 38 39 43 46 51 54 62 53 20
29 29 29 28 27 26 26 25 24 24 23 23 24 24 24 24 26 25 24 25 25 25 25 26 28 29 30 32 32 31 31 31 34 36 37 38 41 44 47 53 57 63 40 15

GFSNGP_500_spd_057.txt.gz
Wind_Speed
13 13 14 14 14 15 13 17 12 16 15 20 21 21 22 21 22 23 25 28 32 33 34 36 35 40 35 28 24 25 34 37 34 32 38 41 46 42 44 49 45 42 42 41
12 13 14 15 15 13 14 15 11 12 17 15 19 19 17 14 11 17 17 22 26 28 33 29 31 29 25 18 19 18 16 19 24 26 29 30 30 30 34 40 42 42 38 36
14 15 14 13 13 12 12 11 11 12 12 14 15 13 12 13 17 11 17 19 26 27 29 29 23 22 22 15 12 13 12 11 13 16 21 24 23 25 28 34 34 32 33 34
13 11 10 11 11 9 9 10 10 9 10 8 9 11 7 10 11 15 14 17 19 25 22 25 21 18 14 11 7 2 5 12 17 16 20 20 23 20 25 24 23 25 31 30
13 11 9 9 9 6 8 8 6 7 5 4 6 10 10 10 11 14 14 14 12 19 21 17 18 16 12 6 6 10 1 16 9 17 17 19 18 22 21 24 31 30 37 32
13 11 9 9 7 7 6 5 6 7 8 9 9 7 6 9 6 10 14 10 8 10 14 19 13 12 15 13 12 9 3 1 6 13 15 16 17 19 19 19 26 25 24 23
15 12 10 8 9 9 7 7 7 8 9 9 7 4 5 8 6 9 9 9 11 12 6 10 11 13 14 10 12 8 4 6 6 11 16 10 13 19 25 18 14 22 32 28
14 12 11 10 10 8 6 7 7 6 9 11 10 6 6 7 7 9 9 5 6 9 14 7 6 11 13 11 9 9 6 2 10 7 9 4 3 11 10 14 18 20 23 25
13 13 11 11 10 7 4 4 7 8 10 10 10 8 10 10 5 6 6 7 8 8 7 7 8 9 13 12 12 10 7 9 8 3 3 1 2 5 9 13 18 23 27 30
13 14 14 14 15 11 7 7 8 9 9 11 10 6 4 8 8 6 7 8 7 7 7 7 6 6 7 9 10 9 8 6 5 5 5 7 10 13 17 20 22 25 28 32
14 17 16 17 17 11 9 8 9 8 10 11 12 10 8 8 8 9 10 10 8 7 8 8 7 6 7 8 9 9 8 7 8 10 12 14 16 18 19 22 24 27 29 30
16 19 18 19 16 12 10 9 8 6 8 6 8 9 10 4 6 7 8 9 8 7 6 4 3 4 4 4 5 7 11 13 15 14 15 17 18 20 22 25 25 26 29 32
19 20 21 21 19 16 13 10 9 7 7 9 8 9 9 10 9 6 6 7 7 10 9 5 4 4 4 6 10 14 16 16 18 19 20 20 21 22 24 23 25 28 31 35
22 20 23 23 20 17 13 10 10 11 10 8 11 12 10 7 6 8 6 6 12 13 12 10 9 8 10 12 15 17 19 20 20 20 20 21 22 23 22 24 28 31 34 39
22 21 25 22 20 18 15 11 12 13 14 13 11 12 13 11 10 12 12 13 16 13 10 10 10 12 14 16 18 20 21 20 20 21 21 22 24 23 24 27 31 35 38 41
21 22 26 25 22 19 16 14 17 15 16 15 14 13 12 13 11 14 15 14 13 10 8 9 10 13 16 19 22 23 23 22 21 22 23 25 25 25 27 30 34 37 40 42
21 24 27 28 25 19 16 15 16 14 15 17 18 17 17 15 15 15 15 15 10 8 9 11 13 16 19 21 22 24 23 21 22 23 24 26 25 26 29 33 36 39 41 44
21 24 26 29 27 21 18 16 15 14 13 11 13 14 14 17 17 16 15 14 12 12 14 16 18 20 21 21 23 23 22 23 23 25 26 27 26 28 31 34 39 40 42 47
20 24 25 26 25 22 18 17 15 15 14 15 15 13 14 15 15 15 21 22 20 20 21 22 20 19 21 22 22 21 23 24 26 27 28 28 28 30 32 36 39 41 43 47
17 20 23 24 24 20 18 17 17 17 18 18 17 15 16 15 15 17 19 21 20 22 24 20 20 21 22 21 21 22 24 26 27 28 30 29 29 31 34 38 40 40 44 48
12 14 17 19 20 18 17 16 16 17 18 16 18 17 18 20 23 25 24 23 22 19 18 19 21 21 20 21 23 24 26 27 28 30 31 30 30 32 36 38 40 41 44 51
10 11 15 16 17 17 16 17 17 17 17 18 19 21 21 22 22 22 19 18 17 18 21 21 20 21 22 23 24 26 27 28 29 31 31 31 31 33 37 39 41 42 45 52
13 12 8 10 11 15 17 16 16 17 17 16 16 17 19 19 18 18 18 19 21 22 20 20 21 22 23 24 26 27 27 29 31 32 32 32 32 35 39 40 40 44 46 51
18 14 15 14 11 13 14 17 17 20 19 18 17 16 16 18 20 21 21 21 21 21 21 22 23 24 25 26 26 27 28 30 32 32 32 32 34 37 39 40 41 46 49 52
17 17 18 19 21 23 20 19 20 22 24 21 20 21 21 21 22 20 20 19 20 22 23 24 25 26 26 26 26 27 28 31 33 33 33 33 35 38 40 41 44 45 50 54
20 20 20 20 20 19 18 18 19 20 21 21 21 21 21 19 19 20 21 22 24 24 24 25 26 27 29 28 27 27 30 32 33 33 33 34 36 39 40 41 46 47 51 56
24 25 27 27 26 26 25 24 23 23 22 22 22 22 22 22 23 24 25 26 25 25 26 27 27 28 29 31 31 29 31 33 34 34 34 35 36 39 40 43 46 50 53 57

GFSNGP_500_spd_060.txt.gz
Wind_Speed
11 13 13 14 14 14 13 15 11 16 16 21 18 17 18 19 19 19 20 17 19 23 24 26 26 35 31 30 36 45 36 34 31 29 33 29 29 25 33 39 43 45 49 48
12 13 13 14 13 12 13 12 13 16 18 17 18 18 19 18 17 16 16 15 20 20 22 18 24 30 27 29 32 36 27 22 18 18 19 15 13 17 21 20 29 33 39 39
12 12 11 11 11 12 13 13 13 14 15 17 16 16 16 15 15 16 12 17 17 18 17 14 19 29 23 23 25 28 24 14 10 7 5 9 5 8 10 16 17 22 28 31
12 10 9 11 12 12 11 11 12 13 14 13 14 13 10 9 10 12 10 14 17 9 13 14 15 19 23 21 21 21 20 11 3 3 5 8 14 7 12 14 15 18 21 23
11 9 8 9 12 13 12 11 12 12 11 8 6 8 10 10 9 9 8 12 11 8 11 16 15 14 16 23 21 21 17 14 5 3 7 8 5 6 11 12 8 16 19 23
13 10 10 10 11 12 13 11 10 11 9 8 5 6 6 4 4 6 8 10 6 10 9 11 15 13 15 16 19 17 15 17 10 2 5 2 2 6 9 14 12 11 16 20
15 13 11 10 12 13 12 8 8 8 9 7 8 7 7 3 4 6 7 7 7 9 15 7 7 14 16 12 12 15 12 16 11 6 4 2 3 4 9 8 9 15 13 12
19 17 14 12 12 13 12 9 9 8 7 8 10 10 8 7 5 7 7 8 9 12 8 5 10 10 12 12 13 11 11 14 15 9 7 3 2 7 8 6 6 9 12 16
18 17 13 13 13 13 11 8 8 10 10 8 8 8 10 12 9 6 5 7 10 10 9 7 7 8 9 7 7 9 7 7 9 8 9 9 8 6 7 9 13 16 19 21
17 16 14 16 16 16 13 9 8 8 9 9 10 8 8 8 8 8 7 9 10 10 10 9 9 8 7 8 9 10 9 9 8 8 7 7 8 9 11 12 14 16 20 23
16 17 17 18 18 19 14 10 9 9 8 8 10 10 10 11 10 8 8 9 8 7 7 6 5 4 3 4 5 6 9 11 12 12 11 11 13 14 16 17 19 21 21 23
17 19 17 19 19 20 16 12 11 9 7 7 6 6 8 10 5 7 9 7 5 4 5 4 4 3 2 3 6 10 13 13 14 15 16 16 16 17 18 20 21 21 22 26
19 21 19 23 22 23 20 15 13 10 10 9 9 7 5 7 10 10 5 1 4 7 8 7 5 5 6 6 10 13 16 17 18 18 17 18 19 19 21 22 21 22 25 28
21 23 21 24 24 24 22 18 15 13 12 12 11 12 11 8 7 8 6 5 5 11 13 9 7 7 8 11 13 16 19 20 20 20 19 19 20 22 23 22 22 25 28 31
21 22 25 24 26 26 24 20 17 15 13 15 15 15 14 13 14 12 7 9 12 13 14 8 8 9 12 13 15 18 21 22 21 20 19 20 21 24 25 24 26 28 30 33
22 22 27 26 27 27 25 23 21 18 17 17 18 17 16 15 15 14 12 12 9 10 12 8 9 11 13 16 19 20 22 21 21 20 21 23 24 26 27 27 28 30 32 35
20 22 26 28 27 29 27 24 21 19 18 17 17 19 19 19 17 17 14 15 12 10 12 11 11 14 16 19 21 22 23 22 21 22 23 25 26 28 28 29 30 31 34 36
21 23 26 29 28 30 30 25 21 20 18 17 17 18 19 19 20 22 17 21 16 14 16 15 15 18 20 21 22 23 23 22 22 24 25 27 28 30 30 31 32 33 35 36
21 22 23 28 28 28 30 27 24 21 20 18 17 15 15 16 16 17 18 18 17 19 22 25 23 24 23 21 23 24 23 23 24 25 27 29 31 32 32 32 32 34 36 37
19 20 22 24 24 26 28 28 26 24 21 19 18 18 19 19 17 17 18 18 20 26 27 27 25 22 21 22 23 23 23 23 25 27 29 30 32 32 33 33 33 35 37 38
16 16 17 19 19 22 25 27 27 24 21 19 21 20 21 21 20 20 21 17 23 27 28 25 20 20 22 23 22 23 23 24 27 29 30 32 34 34 34 35 34 36 37 39
15 12 12 13 14 17 19 22 23 21 19 20 21 21 21 21 21 22 23 26 27 26 22 20 21 22 22 22 23 23 24 26 28 30 32 33 34 35 35 35 36 37 38 40
14 14 11 13 14 14 15 17 20 21 20 20 21 22 19 19 21 24 24 22 21 21 21 22 22 21 23 24 25 25 26 27 29 30 31 34 35 36 36 35 37 38 39 40
13 18 15 15 17 17 15 16 17 17 17 18 20 21 21 19 19 20 21 22 22 22 22 21 21 22 24 26 27 27 27 28 28 29 31 34 35 36 36 37 38 39 41 43
22 21 21 19 17 17 18 15 15 16 21 23 20 21 21 20 20 20 21 23 22 21 21 20 22 23 24 27 28 29 28 27 27 29 32 35 36 37 37 37 38 41 42 45
16 19 25 26 25 25 25 24 24 23 24 26 26 25 24 22 22 24 20 23 24 22 23 23 24 25 26 27 28 30 31 33 31 31 33 35 36 38 38 39 40 42 43 48
23 24 23 25 27 27 27 25 24 23 23 23 23 23 22 23 24 24 24 28 28 26 26 27 27 26 28 29 29 31 33 35 35 34 35 37 37 40 39 39 42 43 45 48

GFSNGP_500_spd_063.txt.gz
Wind_Speed
14 14 16 16 17 17 17 17 16 18 17 17 16 18 19 17 18 20 19 18 19 18 18 19 22 21 18 21 30 31 35 39 37 36 32 30 31 33 33 35 32 32 35 37
15 16 15 15 14 14 14 13 16 14 16 16 15 15 14 15 17 16 15 14 17 14 15 20 19 13 19 19 24 26 30 32 32 18 18 17 19 21 24 20 18 18 14 14
13 13 12 11 10 11 11 11 12 16 16 14 13 15 17 17 16 15 14 15 15 15 15 12 11 12 14 14 19 23 29 21 16 15 15 16 10 4 4 7 15 13 13 20
12 11 9 9 9 10 11 12 15 16 14 13 14 14 15 13 12 14 16 16 15 15 11 10 9 12 12 12 15 17 22 16 13 12 9 6 6 9 8 8 7 8 13 12
10 10 8 7 8 10 11 12 13 13 13 13 11 12 13 12 12 13 12 13 11 8 10 15 11 10 10 12 11 12 13 13 11 7 7 9 8 9 6 4 3 5 8 10
10 9 8 8 8 10 12 13 12 13 12 12 12 9 9 11 8 8 9 12 9 5 9 10 4 7 10 8 10 10 10 8 9 8 7 8 8 2 12 7 5 5 6 8
12 11 10 10 11 12 13 13 10 11 11 13 12 10 7 9 7 7 5 5 5 4 8 3 3 8 8 8 8 9 12 10 7 14 11 9 9 10 9 7 2 2 2 3
16 15 14 12 13 13 14 13 11 11 11 12 12 11 10 9 10 8 6 6 3 2 4 5 8 7 8 4 4 4 5 8 7 10 10 10 9 9 10 8 6 7 8 10
18 18 18 15 15 15 14 14 13 10 11 11 9 9 9 12 12 11 10 7 4 4 5 5 7 7 7 5 5 3 3 6 9 10 10 10 10 10 10 11 13 13 14 15
18 19 18 17 17 17 17 15 13 8 6 8 9 8 8 7 8 11 11 10 9 8 7 6 5 4 0 1 2 4 5 7 8 9 9 9 9 10 11 11 12 13 15 16
18 19 19 18 18 19 19 17 13 8 8 9 10 10 10 10 11 11 9 7 7 7 6 4 2 1 2 1 1 3 8 9 8 10 11 11 12 12 13 14 16 18 18 17
17 20 18 20 19 20 20 20 16 10 9 10 8 5 6 8 9 9 8 7 6 5 4 4 4 5 5 4 5 8 11 12 13 14 13 14 15 16 16 18 20 20 19 20
20 22 19 22 20 21 23 25 19 14 12 10 10 9 8 7 8 12 9 7 7 4 5 7 8 8 9 8 8 11 13 15 15 16 16 17 16 18 19 21 22 22 22 24
20 24 23 23 21 23 24 27 23 18 15 13 13 13 13 12 8 8 8 10 9 6 7 9 8 10 11 11 11 13 16 17 18 18 19 17 18 20 21 23 24 24 25 27
20 23 25 25 26 25 27 28 27 23 20 17 13 15 17 14 14 14 12 12 12 12 10 10 8 7 10 12 12 15 18 20 20 20 20 19 20 22 24 25 26 28 28 29
23 22 23 26 28 28 28 29 29 27 24 20 17 16 18 19 19 15 16 15 13 13 12 11 11 10 11 13 15 17 20 21 21 22 21 21 22 23 25 27 29 30 31 32
21 22 24 24 28 29 29 30 30 30 26 23 22 20 19 19 20 18 18 18 15 11 14 13 13 13 15 15 18 21 22 22 22 22 21 22 23 26 28 30 32 32 32 32
23 24 22 24 27 28 30 31 31 30 26 25 23 21 19 19 21 20 20 21 19 16 17 15 18 17 20 23 24 24 22 22 23 22 23 24 26 28 30 32 33 33 34 35
21 24 24 25 27 28 31 30 32 31 28 28 25 22 19 18 17 18 19 20 21 19 22 22 23 23 25 25 27 24 22 23 22 23 24 26 28 30 31 33 35 36 36 36
19 21 23 24 25 26 29 30 31 33 31 30 27 24 23 20 21 19 19 19 19 20 24 25 25 24 28 29 25 23 24 23 23 24 26 27 30 31 33 35 36 37 37 36
18 18 20 21 22 23 25 28 28 29 30 32 29 26 25 24 23 23 23 22 22 25 24 25 26 30 32 26 24 24 23 23 24 25 27 29 30 31 33 35 36 37 37 37
16 15 17 19 18 18 20 23 24 26 28 30 29 28 27 26 24 23 25 26 27 27 26 28 30 31 26 25 25 23 23 24 25 27 28 29 30 31 32 35 36 36 36 37
12 14 15 15 16 16 16 16 18 21 23 24 25 25 24 24 24 24 25 24 23 26 29 31 28 26 27 24 24 23 24 25 27 27 27 28 29 31 33 35 36 37 38 38
7 11 12 13 14 17 19 16 16 18 18 20 22 24 25 26 25 23 22 25 26 26 27 27 27 25 24 23 23 24 26 27 27 26 27 28 29 32 34 36 37 39 40 40
9 9 14 22 18 18 17 19 17 15 16 16 17 18 19 21 23 23 22 21 21 22 23 24 24 25 23 22 24 25 26 29 29 29 31 32 32 34 36 36 38 40 40 41
14 13 14 16 17 20 19 20 21 20 21 20 20 23 24 26 26 26 25 24 24 23 23 24 26 26 26 25 26 26 27 31 32 33 36 36 36 37 38 37 39 41 42 44
21 20 19 19 20 26 30 30 29 28 28 27 25 24 24 26 29 30 30 30 31 30 31 29 29 29 29 30 30 30 32 34 36 37 36 37 36 36 37 38 39 41 43 45

GFSNGP_500_spd_066.txt.gz
Wind_Speed
12 14 14 15 15 18 20 21 24 25 24 22 18 19 21 23 24 24 24 24 26 24 24 25 26 25 24 25 22 21 19 21 25 29 29 30 34 33 36 35 36 39 43 43
12 11 12 12 13 15 17 20 22 21 23 20 21 21 21 22 21 20 20 21 24 24 22 22 21 21 23 22 23 19 15 18 20 23 19 22 24 25 24 28 28 27 25 33
16 15 16 16 16 17 19 21 21 22 21 19 18 18 18 18 17 18 20 23 23 19 18 21 20 21 18 20 20 17 13 13 12 15 15 15 15 16 20 16 15 19 19 12
13 14 14 15 16 16 16 16 18 17 17 17 15 15 15 16 16 18 20 20 20 18 19 21 18 14 16 17 18 16 12 9 9 9 11 12 12 10 14 15 13 13 10 6
12 13 12 12 12 14 15 16 17 17 17 16 14 13 14 16 16 16 14 15 15 17 17 16 19 18 16 14 14 14 10 10 9 8 8 7 7 12 15 13 11 10 10 6
13 12 12 10 9 9 12 15 15 15 15 14 14 13 12 13 13 12 12 13 15 16 14 12 13 11 8 10 11 11 6 8 11 9 9 9 11 11 12 12 7 12 13 6
14 14 12 11 9 8 10 13 12 12 13 15 15 15 13 10 11 10 10 9 11 14 14 11 9 8 11 10 9 8 8 5 5 5 7 7 9 10 11 9 8 8 8 7
15 15 14 11 11 10 10 12 12 13 13 14 16 15 15 12 13 11 9 11 10 13 11 9 13 12 10 10 11 10 10 9 8 6 4 6 8 10 12 12 12 11 11 11
17 16 16 16 14 14 13 14 15 14 13 14 13 15 16 16 15 15 14 12 12 12 10 9 11 12 13 13 12 10 10 8 4 7 10 11 12 13 15 16 15 15 15 15
20 20 19 18 18 17 16 16 16 14 12 12 14 13 14 14 14 16 16 15 13 12 10 10 10 10 10 9 7 7 7 7 9 9 11 13 14 14 14 14 14 14 15 15
20 21 19 19 19 19 18 18 17 15 14 11 11 14 14 15 15 14 13 13 13 12 12 12 10 10 10 10 10 10 9 10 10 11 12 13 13 14 14 14 16 16 17 17
20 22 20 21 21 21 21 21 21 18 16 11 9 10 13 14 15 15 14 14 15 12 11 11 11 12 12 12 11 11 11 10 12 14 14 14 16 15 16 17 18 19 20 21
19 21 21 21 22 23 22 23 22 23 19 13 11 12 13 11 12 13 15 13 12 12 11 11 13 14 14 14 14 14 14 14 15 16 17 17 17 16 17 18 19 21 23 25
19 23 24 24 23 24 24 25 26 26 23 18 14 15 15 15 14 13 13 16 17 15 13 9 9 12 15 17 17 18 17 16 17 19 19 18 18 18 18 20 22 24 26 28
18 22 24 26 26 25 26 26 27 29 27 23 19 17 17 17 18 20 15 14 17 17 19 16 11 9 13 15 17 18 17 17 19 20 20 21 20 20 20 22 24 26 28 31
21 22 24 26 28 28 27 27 28 29 30 28 25 22 19 17 19 21 19 20 20 20 16 17 15 12 12 13 14 16 18 21 23 23 22 22 22 22 23 25 27 29 30 32
22 22 22 25 29 30 30 29 29 30 31 31 29 26 25 22 21 22 21 22 22 24 20 16 17 15 16 16 17 19 23 25 26 25 24 24 23 24 25 27 29 31 33 35
24 24 22 24 27 30 30 30 31 31 32 33 31 29 28 26 22 20 23 23 23 25 24 20 19 20 20 17 20 23 25 26 28 26 26 25 25 26 27 29 30 32 34 35
24 23 22 25 26 28 30 29 30 32 32 34 33 30 30 27 23 21 22 25 24 24 25 25 24 26 28 27 27 27 28 28 27 27 27 26 27 27 28 30 31 33 34 36
25 23 21 22 25 28 29 28 29 32 33 33 34 32 31 29 26 23 22 21 23 24 25 26 28 29 29 29 27 29 32 29 28 28 27 28 28 28 29 30 32 33 34 36
19 20 20 20 20 23 24 25 27 30 32 32 33 34 33 31 29 28 27 26 26 25 26 28 28 30 30 26 27 30 31 29 30 29 28 28 29 29 29 31 32 34 36 37
14 15 16 17 18 20 21 22 23 26 29 30 30 32 33 33 31 29 29 28 27 29 29 29 32 31 28 28 31 33 29 31 30 29 28 28 28 28 30 31 32 35 37 39
6 12 16 16 15 15 17 16 18 21 25 26 27 29 30 30 29 29 29 29 28 29 31 32 29 26 26 31 32 31 32 31 29 28 28 27 29 29 31 33 34 36 39 40
6 7 10 13 13 13 15 17 17 16 16 18 21 23 24 24 25 27 28 28 29 29 28 27 28 30 30 29 31 32 30 28 27 27 28 29 32 34 36 36 35 37 40 41
6 7 7 10 13 15 16 18 20 19 15 16 18 16 18 20 21 23 25 26 27 27 27 25 25 27 27 27 28 28 27 27 28 28 29 32 35 37 40 39 38 38 39 39
13 12 12 9 12 13 17 23 22 20 18 18 19 18 18 18 20 21 21 22 25 26 25 26 27 29 28 27 27 28 30 31 32 34 36 36 37 39 39 38 37 38 38 39
20 19 17 17 18 18 19 18 18 20 22 24 25 26 26 26 26 28 29 30 30 30 30 30 31 31 34 35 32 32 32 32 33 35 35 36 37 36 35 35 37 39 39 38

GFSNGP_500_spd_069.txt.gz
Wind_Speed
16 17 17 18 19 22 22 22 26 27 26 26 24 22 23 24 27 27 26 28 27 26 26 27 27 27 27 29 28 27 26 27 25 24 23 20 22 26 30 31 31 32 29 32
13 14 16 16 18 18 22 24 24 26 26 24 22 21 23 25 26 26 26 25 25 25 25 24 23 24 25 26 26 27 28 26 24 24 20 18 16 17 19 24 30 29 31 32
12 13 12 13 15 17 21 27 27 23 22 18 21 22 23 24 23 23 24 25 24 23 24 25 24 23 24 26 26 25 23 25 26 23 21 18 15 16 16 19 23 26 27 27
12 13 14 13 15 16 17 17 21 21 19 20 19 21 21 21 22 23 23 24 24 26 26 23 21 20 21 21 18 19 22 24 23 22 19 18 18 16 19 23 27 24 27 27
13 13 12 15 15 16 17 17 19 19 19 19 19 19 20 21 22 23 23 23 22 21 21 22 22 21 19 19 19 21 21 20 20 21 19 19 17 15 16 16 18 15 17 17
13 14 14 13 14 15 16 18 18 18 18 18 18 18 17 19 18 18 19 18 18 18 20 20 18 15 20 21 17 18 18 19 18 18 18 18 16 16 17 17 17 14 18 17
15 14 13 12 12 12 13 14 16 17 16 17 18 18 18 16 14 14 15 14 14 16 18 16 15 17 18 17 17 16 15 16 16 16 16 17 16 15 16 16 17 18 20 18
16 15 15 13 12 11 11 10 13 17 17 17 17 18 17 16 14 13 13 14 12 11 15 14 15 15 17 15 14 15 17 17 16 16 17 13 14 15 16 19 20 21 20 19
17 17 16 15 14 14 12 11 13 16 16 15 16 16 18 18 16 15 16 14 11 12 12 14 14 16 18 17 18 18 19 18 16 12 14 15 14 17 18 19 20 19 19 19
19 19 18 18 18 18 18 15 15 17 17 17 15 15 15 16 18 18 18 18 16 14 15 14 16 17 18 18 16 16 15 13 13 14 15 15 16 17 18 19 17 17 17 18
23 24 23 22 22 20 20 18 17 17 18 16 14 14 17 16 16 17 16 17 17 17 18 19 18 16 16 15 14 14 14 16 18 17 15 15 16 17 18 17 17 16 18 19
23 24 23 23 22 22 22 21 19 19 19 17 16 14 16 16 16 17 18 17 17 17 17 18 16 16 16 16 16 17 18 18 18 16 16 17 18 17 18 18 18 18 20 22
19 22 23 23 24 24 23 23 22 21 22 20 17 14 14 14 15 18 19 19 19 17 17 17 16 16 16 17 19 21 21 20 19 18 18 20 20 19 20 21 20 20 22 24
17 18 22 25 25 24 25 25 25 23 24 23 21 18 15 15 16 17 17 18 20 18 18 17 15 14 17 21 22 22 22 21 20 18 18 21 21 22 22 22 22 22 24 26
19 20 22 24 27 27 26 26 27 25 26 26 25 23 18 16 17 19 19 18 18 20 22 20 20 17 16 15 17 20 20 20 19 19 21 23 24 24 24 24 24 25 26 28
24 23 22 24 25 27 29 28 28 28 27 28 28 27 24 20 19 18 20 22 24 22 23 23 22 21 20 17 15 17 17 17 18 22 25 25 26 26 26 26 26 27 28 30
23 24 24 24 24 27 30 30 30 30 29 29 30 30 30 26 24 23 21 21 26 27 27 26 25 22 23 22 20 19 20 21 22 23 26 28 27 28 28 28 29 29 30 32
27 27 27 25 25 27 30 31 32 32 30 31 31 31 31 31 29 27 26 24 24 28 29 27 26 27 23 23 23 22 22 25 27 28 30 29 27 28 29 29 30 31 32 33
31 30 28 24 24 27 29 30 31 32 33 33 32 32 32 33 31 29 27 24 23 25 28 29 27 29 30 29 29 29 29 30 31 31 32 31 29 30 31 30 31 32 33 34
29 28 27 27 25 26 28 30 30 31 31 32 33 33 33 33 32 30 28 26 24 25 27 31 31 30 32 32 30 33 32 30 30 30 33 31 31 32 32 31 32 32 33 35
20 21 21 23 23 23 23 27 29 30 31 31 32 33 34 33 32 32 30 29 27 26 27 27 29 30 32 33 35 33 33 32 31 32 34 32 33 33 32 31 32 33 34 36
12 15 17 18 19 19 19 20 21 24 26 27 28 31 33 32 32 33 33 31 30 28 28 30 31 31 32 34 36 36 35 34 33 35 35 34 34 33 32 32 32 34 35 38
9 9 10 13 15 15 15 17 19 20 21 23 24 25 28 29 30 30 32 32 32 30 29 30 32 33 34 36 40 34 30 32 34 35 35 35 34 32 33 33 33 36 39 40
8 11 10 10 15 18 17 15 15 16 15 15 16 19 21 23 26 27 28 29 28 28 29 30 32 32 34 31 28 28 30 31 33 34 35 34 32 33 35 36 37 40 41 38
9 8 7 10 9 11 15 15 17 21 18 15 14 15 18 19 21 23 24 26 29 30 30 29 29 29 29 30 28 28 29 29 30 31 32 32 33 35 36 37 39 40 39 36
17 16 16 15 11 10 12 12 14 20 23 21 19 17 14 13 13 15 15 17 18 19 20 23 24 25 27 27 27 28 31 31 30 31 31 32 34 35 36 37 38 39 37 38
25 23 22 21 20 18 16 15 15 16 23 27 27 23 22 23 22 22 22 23 24 26 27 28 28 28 28 29 30 32 33 34 35 34 33 35 37 37 37 37 39 38 37 38

GFSNGP_500_spd_072.txt.gz
Wind_Speed
14 18 18 18 19 20 21 22 22 21 18 18 19 19 19 20 22 24 27 28 28 27 30 28 29 28 29 29 28 28 29 31 30 27 26 25 25 26 26 24 23 23 22 27
10 17 19 18 18 18 21 24 25 24 24 23 22 20 19 19 22 24 25 25 26 27 28 28 29 27 26 26 27 29 30 27 26 26 24 25 25 27 28 26 24 24 26 29
12 13 15 17 18 19 20 23 26 26 25 24 20 18 19 21 22 23 23 24 25 26 25 25 25 25 25 26 26 25 24 25 25 23 24 25 27 26 26 27 25 27 29 24
13 13 15 14 16 17 19 21 23 23 23 18 17 19 21 21 21 22 22 22 24 23 24 24 25 25 25 22 21 21 21 20 19 19 23 25 26 26 26 24 23 24 25 26
11 10 10 12 12 14 16 16 17 21 21 19 20 21 20 20 21 22 22 22 22 22 24 25 25 23 22 22 21 20 19 18 20 21 23 25 26 26 24 21 23 24 23 22
11 11 12 10 12 13 13 14 15 15 16 18 18 18 17 18 19 20 20 21 22 23 24 24 21 21 21 20 18 20 19 19 20 21 23 23 25 23 22 24 25 21 23 25
13 12 10 12 11 12 13 12 16 16 16 18 18 18 19 19 19 18 18 18 20 20 20 20 19 20 18 19 18 16 17 17 17 18 18 20 21 21 22 21 20 22 24 25
13 13 12 11 11 11 9 10 11 14 16 17 17 17 18 18 16 16 14 14 14 13 14 16 18 17 17 16 14 14 15 15 16 18 19 19 19 18 18 19 20 22 23 21
14 13 14 13 13 14 11 9 10 12 15 16 16 16 16 17 17 17 15 15 15 15 14 12 14 14 12 15 18 18 17 18 18 18 19 16 17 17 18 19 20 22 21 20
15 15 16 16 15 16 15 14 12 12 14 15 15 16 17 17 16 17 16 16 16 15 14 14 14 14 14 15 17 19 19 17 15 14 14 16 17 17 17 18 20 21 20 20
19 19 18 18 17 18 17 18 17 16 16 17 17 18 16 17 16 16 17 17 19 19 18 17 17 17 17 17 17 17 17 15 14 15 17 18 17 17 19 19 20 21 21 22
21 21 23 20 21 22 21 21 20 20 19 19 18 17 15 17 17 17 16 17 17 16 16 16 17 18 18 18 18 17 17 17 17 18 18 18 17 19 20 19 20 22 23 24
16 17 21 20 22 23 23 23 22 22 21 19 20 18 18 18 17 17 18 18 19 18 18 17 17 18 19 18 18 18 19 20 20 20 20 19 17 18 20 21 22 23 25 26
14 16 17 18 17 22 23 25 25 23 23 22 22 22 20 18 17 16 16 17 17 17 18 17 17 16 16 16 18 20 21 22 22 22 22 18 18 20 22 23 24 25 26 27
18 18 18 19 19 21 23 24 27 27 25 25 24 25 25 22 18 17 18 16 16 17 18 20 20 20 18 17 15 17 19 20 20 20 19 18 20 24 25 25 25 26 28 29
21 21 22 23 21 21 22 24 26 29 29 27 26 27 27 26 24 20 18 18 19 20 21 20 21 22 23 23 22 20 19 18 18 18 19 19 20 23 26 27 27 27 29 29
24 23 21 23 24 23 23 24 26 28 29 31 30 28 28 28 29 26 22 19 17 17 19 24 26 25 25 25 23 23 23 22 21 22 22 24 27 28 30 29 28 29 30 31
28 29 28 25 26 25 27 27 26 27 30 31 32 31 30 30 30 31 29 25 23 23 23 25 28 30 29 29 28 25 26 25 25 26 27 30 31 31 30 31 30 31 31 33
29 29 27 27 28 30 29 29 30 30 29 31 32 33 32 32 31 31 32 31 28 26 26 26 26 29 30 29 28 30 29 29 30 31 32 32 32 31 31 32 33 32 33 33
31 31 31 32 34 32 31 30 30 31 30 29 31 33 33 33 33 33 33 31 31 30 29 27 24 27 30 31 31 32 32 33 33 31 32 34 34 33 34 34 33 33 34 33
25 27 30 30 29 29 30 30 29 30 29 29 28 29 31 33 33 34 33 32 34 33 31 30 26 26 26 28 32 32 33 36 36 36 35 39 38 37 37 35 34 34 34 32
11 13 14 19 21 23 24 24 24 24 24 25 26 27 29 30 32 34 34 33 35 34 33 31 29 27 28 29 31 32 33 34 34 35 38 39 38 37 37 35 35 35 34 33
9 10 9 8 10 13 14 16 18 20 21 21 22 23 25 27 28 30 32 32 32 34 34 34 32 31 31 32 33 34 36 37 36 39 38 35 35 37 36 34 35 34 34 36
8 5 8 11 10 10 14 17 18 16 17 15 13 15 17 18 21 23 26 27 28 30 31 32 33 33 31 30 33 34 37 37 36 34 33 33 35 33 33 34 35 35 37 38
14 15 12 9 9 10 12 11 14 17 18 18 16 14 13 15 18 19 21 22 24 25 25 26 28 31 34 32 31 31 29 27 26 26 27 28 29 30 33 35 37 37 38 38
18 19 19 18 17 15 13 11 12 14 14 19 20 19 19 17 14 12 12 13 15 17 19 20 20 20 22 22 22 23 25 25 24 25 27 29 31 34 37 38 39 39 38 39
31 30 28 27 25 23 20 19 18 16 13 13 16 21 26 25 23 22 20 19 19 18 19 20 21 23 25 26 27 27 28 28 29 30 32 34 37 37 38 38 39 41 41 41

GFSNGP_500_spd_075.txt.gz
Wind_Speed
12 14 17 16 16 19 21 24 25 26 17 15 13 11 14 17 23 25 30 33 34 33 31 31 32 31 30 30 29 30 30 31 31 30 30 31 30 27 28 28 28 30 32 30
13 16 20 21 20 18 20 21 20 22 18 14 16 15 10 12 16 19 21 24 26 25 25 26 26 27 27 27 28 28 28 28 29 30 30 28 26 27 27 27 28 29 29 33
12 12 19 22 21 19 20 21 22 22 19 21 19 17 13 17 20 19 19 20 21 22 23 24 24 25 24 25 26 27 27 28 28 27 26 25 26 26 27 28 27 26 29 30
15 15 15 17 20 20 20 23 22 22 24 20 17 16 22 22 21 20 20 19 20 22 22 22 23 24 24 25 26 26 24 23 22 22 22 22 22 26 26 27 25 26 28 26
14 12 12 14 16 16 17 18 18 19 20 18 19 23 19 19 19 19 19 20 21 21 21 22 23 23 23 23 23 22 21 21 20 19 20 21 24 23 25 24 24 25 26 28
12 11 10 12 15 13 13 14 12 13 15 20 23 19 21 20 21 21 21 21 21 21 22 22 22 22 22 21 20 21 22 22 21 20 20 22 21 22 22 22 22 25 25 26
14 11 10 12 12 12 13 9 11 13 15 16 18 20 19 19 20 20 20 19 18 19 20 21 21 21 21 20 19 20 19 19 20 18 17 18 17 18 19 21 22 22 22 23
15 13 12 9 10 10 10 9 10 12 16 18 19 18 20 20 20 19 18 17 16 17 17 17 18 18 18 18 17 19 19 16 16 16 16 17 17 18 20 20 20 21 22 23
13 13 13 11 11 11 10 8 9 10 11 15 18 17 17 16 16 18 17 16 15 16 15 14 13 16 18 17 16 16 16 15 16 16 17 16 16 16 16 19 20 21 21 23
13 13 13 12 13 13 13 12 11 10 11 11 14 15 15 15 15 16 18 18 17 17 15 14 14 14 15 15 15 16 17 17 17 17 16 14 14 15 18 19 19 20 21 23
14 14 13 12 14 14 13 14 14 13 14 14 14 16 16 16 17 17 18 19 18 17 18 17 16 15 16 16 14 15 16 16 16 15 14 14 16 18 19 19 19 20 21 22
19 17 17 17 18 18 17 18 18 18 17 18 17 18 18 18 16 16 17 18 19 18 19 20 19 18 18 18 17 17 16 16 16 17 17 17 18 19 20 20 20 21 22 24
14 16 18 17 18 19 20 21 21 21 20 20 19 19 19 19 16 15 18 19 18 18 17 17 17 18 18 16 16 17 17 18 19 20 20 20 20 21 19 18 20 21 23 24
10 10 9 10 12 15 17 19 21 22 23 22 21 20 22 21 20 16 17 17 18 19 19 20 20 20 18 17 16 16 16 19 21 22 22 22 22 21 19 20 22 24 25 26
17 14 13 13 13 15 17 18 19 22 24 25 24 23 23 24 24 21 19 19 18 17 18 17 18 18 17 18 19 16 14 15 19 22 23 22 21 19 19 19 20 22 25 27
25 23 20 18 17 20 21 21 21 20 22 26 26 25 24 26 27 27 24 20 20 21 20 18 17 16 18 20 23 23 22 20 19 19 21 21 21 22 23 24 27 28 29 29
32 28 25 24 22 21 23 24 22 22 21 22 26 29 27 28 29 29 30 27 23 22 21 19 21 20 21 22 23 25 24 23 23 23 23 24 24 25 26 29 31 30 29 30
38 34 30 28 25 25 24 24 25 26 26 24 24 27 30 30 31 31 32 32 29 26 24 23 22 21 21 24 28 29 28 28 28 27 27 27 27 28 30 33 32 32 32 33
34 37 34 32 31 31 31 29 28 29 29 30 29 28 29 31 33 34 33 34 34 34 32 29 27 25 24 23 27 31 31 30 30 31 31 29 31 33 33 34 35 35 35 36
24 28 32 32 31 31 31 31 31 32 32 32 32 30 29 31 33 34 35 34 35 36 36 35 32 29 28 26 26 27 30 32 32 33 35 36 36 36 36 38 38 40 39 39
21 23 26 28 30 33 35 36 36 35 33 32 33 32 29 30 31 33 34 35 37 36 36 36 35 34 32 30 27 27 28 30 34 36 37 37 39 38 41 43 43 40 40 40
8 12 14 18 22 26 28 29 28 29 31 32 31 28 26 27 29 30 32 34 37 36 36 37 37 37 36 34 31 30 30 29 31 33 35 37 40 43 43 42 42 39 39 37
9 11 12 11 9 9 13 17 20 21 21 22 24 24 24 24 26 27 29 31 33 34 35 36 37 38 39 37 35 34 33 33 34 36 39 41 41 40 39 38 36 37 37 34
2 5 8 8 10 10 11 9 14 17 18 19 19 21 20 19 21 23 25 27 29 30 32 33 34 35 36 37 36 35 33 33 35 38 42 41 39 39 37 33 34 34 34 35
11 13 15 14 14 14 11 9 12 13 13 17 17 18 18 16 14 16 19 20 22 24 26 28 30 31 32 32 33 34 35 37 38 36 34 32 30 29 28 30 33 35 36 37
20 21 21 21 21 20 21 20 17 16 12 15 16 17 20 20 18 17 16 16 16 18 20 22 23 24 25 26 26 27 27 28 26 26 27 27 27 28 30 33 36 38 39 41
32 31 30 29 29 29 29 27 26 23 21 19 16 14 14 16 21 22 22 20 19 18 18 18 18 20 21 22 23 24 24 25 25 25 27 28 30 33 35 37 38 39 41 42

GFSNGP_500_spd_078.txt.gz
Wind_Speed
14 14 15 16 21 26 26 25 30 27 24 22 23 24 24 23 28 33 35 35 34 34 36 36 38 37 36 36 34 34 33 32 31 31 31 32 33 34 34 34 34 33 32 32
13 14 16 18 19 20 21 21 21 21 21 21 19 17 14 14 19 25 28 30 33 34 35 35 35 35 32 30 29 29 29 29 30 29 29 31 32 33 32 32 31 31 30 31
13 14 16 19 21 22 22 21 23 23 19 19 17 13 16 15 15 16 18 19 23 26 29 31 32 28 27 26 26 27 27 27 28 29 29 30 31 30 30 29 29 28 29 30
15 17 17 15 20 22 22 23 21 22 21 19 19 17 15 17 16 15 16 17 18 19 22 24 25 25 25 25 25 26 27 26 26 28 28 27 27 27 26 26 27 28 28 30
15 15 15 15 17 18 19 21 21 22 23 18 17 18 20 18 19 19 18 19 19 19 20 21 23 24 25 25 26 26 26 26 26 25 24 24 23 23 23 24 24 26 27 26
14 15 15 15 14 14 15 15 15 18 19 19 18 21 22 19 17 17 18 20 21 21 22 22 23 24 25 25 24 24 24 25 24 25 25 24 22 22 22 21 23 23 23 24
16 15 15 14 13 14 13 13 12 14 14 17 20 22 18 18 18 19 20 22 22 22 22 22 24 23 23 23 23 23 23 23 23 24 23 20 20 20 20 19 19 20 23 25
16 17 16 13 14 14 13 14 15 14 13 16 18 18 19 20 21 22 21 21 21 20 19 20 20 21 22 22 22 22 21 21 22 20 18 20 20 18 18 18 19 21 22 24
16 18 16 16 15 15 14 14 13 11 11 15 17 18 18 19 20 19 19 20 20 19 18 18 17 17 19 20 20 21 20 21 21 19 19 19 17 18 18 18 20 20 22 24
17 17 15 16 16 15 13 14 11 11 11 11 14 17 19 19 17 16 17 19 19 19 17 17 17 16 16 17 19 19 20 20 19 17 18 18 18 18 18 19 20 21 23 24
17 17 15 16 17 16 15 15 13 14 14 14 13 14 16 17 17 16 17 18 19 20 18 18 17 16 15 16 18 18 19 20 20 18 18 19 19 18 18 19 21 23 25 25
19 16 17 17 18 16 16 16 16 16 16 16 16 16 16 18 20 18 18 19 19 20 21 21 21 20 18 18 18 18 17 17 17 17 18 19 19 19 19 21 23 24 24 23
20 21 21 20 19 19 19 19 19 19 20 19 19 19 19 18 19 19 17 17 19 19 20 20 20 20 20 21 20 19 18 18 18 19 20 21 21 21 22 23 24 22 21 22
17 19 18 17 17 17 16 17 19 20 21 21 21 21 21 21 20 20 19 17 18 20 21 21 21 20 19 20 21 20 19 20 21 21 22 23 24 25 25 26 24 22 21 19
17 16 14 14 14 14 15 15 16 17 19 20 22 22 23 22 23 23 23 21 19 20 21 22 22 22 22 22 21 21 20 19 19 19 22 24 26 27 27 27 25 24 23 25
24 22 20 18 17 18 19 19 20 19 18 19 21 23 24 25 24 25 25 26 24 22 21 21 21 21 21 22 23 23 22 23 22 19 20 21 23 26 27 28 27 27 28 29
32 32 31 29 26 24 24 24 24 24 23 21 20 21 23 25 26 26 27 28 29 28 24 23 24 23 24 23 23 23 24 25 27 28 26 26 26 27 27 28 28 29 30 31
38 38 39 37 34 31 29 28 27 25 24 24 25 24 22 23 26 29 29 29 30 31 32 29 26 27 27 28 28 27 27 27 28 30 30 30 30 30 30 31 30 31 34 35
30 36 38 38 38 37 34 33 32 31 30 28 28 28 28 28 27 28 31 32 31 32 35 36 33 30 29 29 29 29 28 29 32 35 35 35 35 36 34 34 34 35 37 39
23 24 28 31 34 37 37 35 34 34 35 34 32 31 32 32 31 29 31 33 34 35 36 37 38 39 37 36 34 32 32 32 31 33 34 35 35 35 36 38 39 39 42 44
18 19 20 21 22 24 28 31 35 36 35 35 35 36 37 35 33 31 31 32 36 36 36 38 38 40 41 42 40 39 37 35 32 32 33 34 37 38 39 40 42 42 46 49
9 9 11 13 15 19 24 28 31 32 35 37 38 37 34 33 33 32 32 32 34 35 36 38 38 40 41 41 41 41 41 39 37 35 35 34 36 39 41 42 44 47 46 45
10 10 11 12 14 15 14 12 13 17 22 25 26 26 25 27 27 28 29 30 31 32 34 36 37 38 39 40 41 41 42 41 40 39 37 38 38 39 40 42 44 45 43 40
11 6 3 5 7 8 9 12 14 13 12 15 18 19 21 23 24 25 26 26 28 30 31 33 34 36 37 37 39 40 40 40 41 41 40 38 37 40 43 45 47 42 39 35
8 8 10 12 13 15 16 16 17 17 13 14 16 17 20 21 22 23 22 19 19 22 25 27 28 30 32 32 34 36 37 37 37 38 38 39 41 41 38 38 36 32 30 30
17 18 20 21 23 24 24 24 23 22 22 22 21 18 18 20 20 21 22 20 19 17 19 22 24 26 26 27 27 28 29 30 31 32 33 34 34 32 29 28 28 29 31 33
27 27 29 31 32 32 32 32 31 31 30 28 25 24 23 22 18 17 18 22 23 23 20 19 18 19 20 21 22 23 24 24 25 27 28 28 28 27 27 27 28 30 32 35

GFSNGP_500_spd_081.txt.gz
Wind_Speed
20 20 21 24 28 32 33 29 29 21 26 24 27 28 23 23 20 30 35 39 37 35 34 34 38 41 39 38 32 31 36 38 41 42 41 39 38 37 36 35 36 35 35 35
20 19 17 18 21 23 25 27 23 24 25 24 23 23 23 22 22 24 32 34 35 36 36 35 38 37 34 43 45 36 36 36 38 38 36 35 35 34 33 34 34 33 33 34
17 18 19 20 19 21 22 25 26 29 22 24 22 21 18 20 20 22 25 32 35 33 34 35 34 36 35 36 36 36 35 36 34 33 33 33 33 33 32 32 30 32 33 31
14 16 18 16 17 19 20 22 22 18 18 17 18 19 17 18 20 16 16 21 25 28 31 33 35 36 36 33 30 33 33 33 32 32 32 32 31 30 29 30 31 31 30 29
18 17 15 17 15 15 17 19 22 21 20 16 17 19 18 17 18 21 25 22 19 20 22 25 27 29 33 32 32 32 30 30 30 30 30 30 29 28 29 30 30 28 27 27
17 17 15 15 16 15 15 17 19 21 21 17 17 18 21 24 20 15 16 18 19 21 21 23 24 24 26 28 29 29 29 30 30 29 29 28 27 27 26 24 24 24 23 23
18 17 15 15 15 14 15 15 15 16 17 16 18 22 23 20 20 18 18 18 19 20 21 22 22 23 24 26 27 27 28 28 28 27 27 28 27 27 25 25 23 22 22 22
21 17 18 17 15 16 15 14 15 15 17 19 18 18 20 22 21 20 20 21 22 22 21 21 22 23 24 24 24 25 25 26 26 26 26 25 26 25 23 23 22 21 21 22
20 20 18 19 17 16 16 15 14 17 17 17 17 18 18 18 20 21 21 21 21 20 20 20 20 21 21 22 24 24 24 25 25 25 24 23 22 22 22 21 20 21 22 23
19 19 19 20 18 18 17 16 20 16 16 12 13 15 17 18 19 19 18 19 20 20 21 20 19 19 19 19 20 22 23 23 23 23 23 23 22 21 20 20 21 21 21 21
19 20 19 19 19 19 18 13 13 17 12 12 12 11 13 16 19 19 18 19 19 19 21 20 20 18 19 18 18 19 21 21 22 22 22 20 21 21 22 22 21 21 21 22
20 19 19 20 19 19 19 18 16 15 15 15 15 15 15 15 17 19 19 20 20 20 21 21 22 20 20 17 17 18 19 20 20 21 22 22 22 22 22 22 22 21 21 23
24 21 21 21 21 20 20 19 19 19 18 19 19 19 18 18 19 19 20 21 20 21 21 21 22 22 23 23 21 20 20 20 20 20 21 22 22 23 23 24 23 23 24 25
20 22 24 25 23 22 22 22 22 22 22 22 22 22 22 21 21 21 21 21 21 19 20 21 21 21 21 23 24 23 23 23 23 22 21 22 23 25 26 27 26 27 27 27
16 17 19 20 21 22 22 21 20 19 20 20 21 22 23 23 23 23 23 22 22 22 20 21 23 24 24 24 24 24 22 22 23 24 25 26 28 28 29 30 30 30 29 29
21 19 18 17 18 19 19 18 18 18 18 19 19 19 21 23 24 25 25 25 25 26 25 22 23 24 26 27 26 26 26 25 25 26 25 26 24 25 28 30 30 31 31 30
29 25 24 22 22 23 23 23 23 23 23 23 23 23 21 21 23 25 26 27 27 27 28 29 27 25 27 27 27 27 27 27 27 28 28 30 28 26 27 28 28 29 31 31
34 33 33 32 32 32 32 31 31 30 29 30 27 24 24 23 23 23 24 26 28 29 30 32 33 31 29 29 29 29 29 29 29 30 30 30 32 31 31 30 31 32 34 34
30 32 34 35 36 37 38 38 38 37 35 33 31 30 28 27 26 27 26 25 27 29 33 34 35 34 35 33 32 32 32 33 33 33 33 34 35 35 35 36 37 38 38 38
26 27 28 30 32 33 34 36 36 36 38 38 38 37 37 36 34 31 29 29 30 31 31 35 37 37 37 38 38 36 35 34 35 34 34 34 33 36 40 41 41 40 39 39
23 24 23 23 24 25 26 26 27 28 31 35 37 37 36 36 37 36 35 34 35 33 33 34 36 39 40 40 40 41 41 41 41 40 39 38 38 37 36 38 41 43 44 43
18 18 18 18 17 18 19 21 22 25 28 32 35 37 37 39 38 40 41 40 36 35 34 34 36 37 40 42 41 40 41 42 43 44 43 42 42 41 39 39 41 40 41 43
10 11 9 9 11 12 11 12 14 16 18 20 22 24 28 30 31 32 33 32 31 31 32 34 35 36 37 39 41 41 41 42 43 43 44 44 44 45 44 42 41 41 41 42
15 17 16 12 9 7 8 11 11 11 13 15 18 18 21 24 24 25 26 29 29 28 29 30 31 33 34 35 37 39 40 41 42 42 43 43 43 43 43 42 41 39 43 46
15 22 20 14 11 13 14 15 17 19 20 21 21 20 19 20 23 24 26 27 25 25 25 24 24 25 29 32 35 37 38 39 40 40 38 37 37 38 39 39 38 41 42 40
21 21 20 19 19 20 21 24 25 25 27 26 26 27 26 25 26 22 22 26 26 25 25 23 21 20 22 25 27 28 29 29 28 29 30 30 31 33 34 37 38 35 32 29
28 27 27 28 28 29 30 32 33 33 34 35 35 35 33 31 28 27 26 26 19 20 24 27 25 24 22 21 21 22 24 26 27 27 28 28 28 28 29 30 31 31 30 30

GFSNGP_500_spd_084.txt.gz
Wind_Speed
21 18 19 23 26 29 33 33 34 25 29 22 25 24 25 26 29 28 25 26 30 33 39 39 35 38 41 39 35 29 30 34 36 38 38 39 40 39 40 41 43 42 42 41
19 23 24 23 25 28 28 27 33 30 28 26 27 26 23 27 27 28 28 28 32 35 34 35 35 33 31 31 41 32 35 34 30 30 33 37 39 43 45 42 40 39 41 38
19 20 20 19 19 22 25 28 29 31 28 30 26 23 26 26 27 26 25 27 30 36 38 38 37 36 36 35 35 34 42 40 39 36 36 36 35 39 40 40 38 37 35 34
16 20 20 16 19 19 21 22 25 21 22 24 21 21 22 22 21 20 24 25 24 29 36 31 34 37 36 37 36 39 36 36 42 46 44 44 40 40 37 35 34 34 32 32
18 17 15 17 17 17 17 19 23 20 21 18 18 19 18 19 21 19 21 19 23 23 25 30 34 35 35 35 37 39 36 35 35 36 38 37 36 36 34 33 32 31 33 31
17 16 15 14 15 16 15 17 17 17 19 17 18 15 18 21 23 20 19 21 25 21 21 22 26 28 29 32 33 36 37 39 36 37 35 34 33 34 32 31 30 31 29 27
18 16 15 15 16 16 18 15 14 14 15 15 18 21 24 24 22 19 18 18 15 16 21 26 22 22 24 26 29 31 32 33 34 33 32 31 31 31 29 30 30 26 25 25
19 18 17 16 16 17 15 13 13 14 15 16 17 19 21 22 20 19 18 17 17 20 20 21 23 24 25 26 25 26 29 30 30 31 31 32 32 30 29 28 27 26 25 25
21 22 20 18 17 17 15 14 13 13 15 16 15 17 18 19 20 22 21 21 22 24 24 23 23 23 23 24 25 26 26 27 29 29 29 29 27 26 26 25 26 25 25 23
18 19 20 19 18 18 17 15 15 17 19 18 18 17 16 18 20 20 21 22 23 22 21 22 22 21 21 21 22 22 24 26 26 25 25 24 25 25 24 24 24 24 24 23
18 19 18 19 18 19 18 18 18 17 20 19 18 14 11 14 16 19 20 20 21 20 21 21 22 22 21 20 20 19 19 20 22 23 23 23 23 23 24 24 24 24 23 23
20 20 18 19 19 19 19 19 20 16 16 18 18 15 16 14 14 15 17 19 20 20 20 20 20 22 22 21 20 19 18 19 20 21 22 22 23 23 23 24 24 25 25 24
22 22 21 21 20 21 20 20 21 20 18 17 17 16 16 16 18 19 19 19 20 22 21 20 22 22 22 22 22 21 19 19 19 20 21 22 24 25 24 25 25 26 26 25
18 23 25 24 23 23 23 22 22 22 22 21 21 21 21 21 22 22 21 21 21 22 22 22 22 23 23 23 22 22 23 23 22 21 22 23 23 24 25 26 26 27 28 28
16 15 18 22 25 27 27 26 25 23 23 23 24 24 24 24 24 24 24 24 23 23 24 24 23 22 23 22 23 21 23 25 26 26 25 25 25 26 27 28 29 30 31 32
21 19 17 16 17 20 22 23 23 23 23 22 21 20 20 21 22 23 24 25 26 26 25 26 26 24 23 24 26 27 26 26 26 26 26 27 28 29 30 31 31 32 33 35
26 25 23 19 18 18 19 20 20 21 22 22 22 22 22 23 24 23 21 22 24 28 28 28 28 29 28 26 26 27 29 30 30 29 28 30 30 29 30 29 29 29 30 30
30 30 29 27 26 26 26 26 27 28 28 28 28 29 29 28 27 25 24 23 22 24 28 30 30 30 31 31 31 29 30 30 31 31 32 30 30 32 31 33 34 33 33 32
26 28 29 31 33 33 34 34 35 36 38 38 38 39 38 35 33 30 28 27 25 26 27 27 29 31 33 34 35 36 34 33 33 34 35 34 33 33 35 36 37 37 38 39
23 24 26 27 28 29 29 31 32 33 34 35 37 38 38 39 38 37 36 36 34 33 31 30 29 31 32 35 37 37 38 39 38 37 37 38 37 35 34 35 36 36 38 42
20 21 23 24 25 25 26 26 26 26 27 28 29 30 31 33 36 38 39 39 37 38 37 37 35 34 34 36 37 38 40 41 41 42 41 40 39 38 38 38 38 38 40 40
17 20 22 23 22 21 21 20 20 20 20 21 23 26 28 30 32 34 36 39 40 40 39 41 41 40 38 38 38 39 40 42 43 43 43 44 44 45 45 45 45 45 44 45
12 15 17 18 17 14 12 13 11 10 10 11 13 15 17 20 23 26 30 32 34 35 36 38 38 38 37 38 38 39 40 40 42 44 44 45 45 46 46 46 45 45 44 44
15 15 16 17 16 16 16 13 12 11 12 13 15 18 20 20 18 22 26 28 28 28 28 30 33 34 35 35 36 36 37 37 39 40 42 44 44 44 44 45 45 44 43 43
17 17 17 20 24 25 21 17 16 17 18 19 20 22 23 24 26 26 26 26 27 30 31 32 31 28 29 29 29 30 32 34 36 37 39 40 41 41 40 39 39 39 39 39
25 24 25 23 22 24 25 25 24 25 25 27 27 28 29 30 30 32 33 31 33 31 28 29 30 30 31 29 27 27 27 28 30 31 32 33 33 34 33 32 33 34 35 37
33 31 31 31 30 30 31 33 33 34 34 35 36 36 37 39 40 40 38 36 34 36 34 30 29 24 27 29 30 28 27 26 25 25 27 29 31 32 33 33 33 32 31 31

GFSNGP_500_spd_087.txt.gz
Wind_Speed
24 18 19 22 24 24 25 25 27 23 21 17 20 30 23 23 28 30 33 33 34 28 26 27 35 39 42 44 45 44 42 44 46 42 38 42 46 48 45 42 39 39 38 36
24 16 20 19 22 24 28 26 27 26 23 24 24 27 26 26 29 29 31 31 30 29 29 29 31 33 36 34 38 40 39 38 37 36 32 32 35 36 39 39 39 40 41 41
30 21 20 20 21 23 24 24 28 28 24 31 26 26 27 27 29 29 29 27 28 30 30 30 31 31 34 35 32 32 33 32 33 39 33 32 30 32 34 35 38 39 40 43
19 21 21 19 20 21 21 23 26 24 22 29 26 28 28 28 26 27 26 26 24 22 27 31 31 34 34 36 36 36 34 31 29 35 33 39 40 38 37 36 37 37 42 40
17 15 15 17 18 19 18 20 21 18 20 24 22 23 22 21 23 26 22 21 21 19 21 27 29 32 32 33 34 36 36 36 36 35 34 36 39 45 48 48 44 41 38 36
14 13 12 13 15 17 17 19 17 15 18 21 20 20 22 22 25 25 19 20 23 22 19 22 25 27 33 35 34 35 34 35 36 35 40 39 39 39 38 37 36 36 35 33
19 16 15 15 16 16 17 16 14 14 16 18 21 24 25 25 23 21 17 16 17 20 23 23 21 22 21 23 27 28 31 33 34 36 36 38 38 36 35 33 33 33 32 33
18 17 17 13 14 16 15 13 14 14 15 16 19 21 23 23 22 21 19 18 18 19 19 21 20 23 28 26 24 24 25 28 31 30 32 34 35 34 32 29 29 31 30 30
17 17 17 17 18 18 16 15 14 14 15 16 15 15 18 19 19 19 19 20 19 20 20 20 19 21 23 24 26 28 29 29 26 29 31 31 30 29 29 32 33 31 29 28
17 18 18 18 20 19 16 17 15 14 14 14 15 16 17 16 18 20 20 20 22 23 23 24 24 24 24 24 24 23 24 25 26 28 28 29 31 31 30 28 27 28 29 29
18 18 17 16 16 17 17 18 17 16 17 17 18 17 16 14 17 19 19 20 20 21 22 21 22 21 22 22 22 22 23 23 22 23 24 25 26 26 26 26 27 26 25 26
19 17 17 18 16 16 16 18 17 18 17 16 18 16 18 17 15 13 15 17 20 20 21 21 20 20 21 21 21 22 22 21 20 20 21 22 23 24 26 26 26 25 26 25
15 19 20 20 19 17 17 18 18 18 19 19 17 17 17 18 18 17 16 17 18 19 20 21 21 21 20 21 21 22 22 22 21 20 21 22 23 24 25 24 24 24 25 25
16 16 19 23 23 21 20 20 20 20 20 21 21 20 19 18 17 17 18 20 20 21 22 23 23 24 22 21 22 22 23 23 23 23 22 21 22 22 23 26 26 26 26 27
19 17 16 17 22 25 25 23 23 23 22 22 23 22 22 21 21 21 21 22 23 23 23 23 24 24 23 22 22 22 23 24 22 23 23 23 23 23 24 25 27 27 28 29
23 20 19 17 16 17 19 23 25 26 27 26 25 22 22 21 21 20 20 20 21 23 24 25 26 25 25 26 24 25 26 26 24 23 23 25 27 28 28 28 28 27 29 30
29 26 24 22 20 18 17 17 18 18 19 20 21 21 21 21 20 19 19 20 22 22 23 24 26 26 26 27 29 29 26 26 26 25 26 27 28 28 29 29 29 30 33 34
24 27 26 27 25 24 24 24 22 21 22 23 23 24 24 25 26 26 27 26 26 25 25 23 22 22 24 28 29 30 32 30 29 30 30 29 31 32 31 30 31 32 33 32
22 23 23 23 25 26 27 28 28 27 27 29 31 33 34 36 36 37 37 37 35 31 28 27 25 24 24 25 27 29 32 34 35 35 33 33 34 33 33 34 34 34 36 37
19 22 22 22 22 22 23 24 24 25 27 28 30 32 33 35 36 37 37 37 36 37 36 35 34 34 32 30 28 28 31 33 35 37 38 38 37 38 38 39 39 39 40 40
18 20 21 21 21 20 20 20 21 23 24 25 26 27 28 30 31 32 33 33 34 34 35 36 37 36 35 36 36 35 33 34 36 36 39 40 42 42 41 40 40 40 39 39
13 16 19 20 21 21 20 20 19 20 20 21 21 21 21 20 21 22 25 28 31 32 33 35 36 37 38 39 40 40 41 39 39 40 40 41 43 44 45 45 46 45 45 45
13 12 14 14 15 17 18 19 16 17 16 13 12 11 11 11 14 15 15 16 18 21 25 29 32 34 36 37 39 41 41 41 41 41 41 42 43 44 45 46 47 46 46 47
11 13 13 15 17 18 19 20 19 20 21 18 16 15 14 15 15 18 20 23 24 25 24 23 26 30 31 32 33 35 37 37 39 40 40 41 41 41 42 45 46 47 47 47
19 18 18 19 20 21 19 20 22 24 24 22 21 19 20 22 24 25 26 26 27 28 30 31 32 31 31 33 35 34 32 32 33 35 37 37 37 38 39 40 42 43 44 45
32 28 27 27 26 26 26 25 25 26 28 29 28 28 29 31 31 31 33 34 35 35 36 34 34 36 37 35 32 32 32 34 34 32 32 32 32 33 33 35 37 39 41 41
35 36 36 35 34 34 32 32 33 33 32 33 36 38 39 39 40 40 40 41 42 43 42 39 38 36 37 37 36 35 31 27 32 34 33 31 30 29 29 30 31 33 33 35

GFSNGP_500_spd_090.txt.gz
Wind_Speed
25 24 26 21 21 17 19 21 21 19 18 21 26 28 32 31 29 24 25 25 27 30 31 32 33 30 30 38 42 44 45 47 47 49 50 47 49 51 52 52 50 49 49 49
23 14 16 22 23 21 21 19 17 19 19 23 27 24 26 29 28 27 26 30 29 29 31 34 34 31 32 33 38 44 43 42 42 42 43 43 43 40 43 47 44 46 48 46
28 20 16 17 17 19 21 23 24 20 20 24 23 23 22 25 31 27 28 30 31 31 32 32 32 35 34 32 32 38 37 34 37 38 41 39 37 35 38 38 38 38 38 39
24 26 19 15 17 18 19 19 19 19 20 23 24 24 28 26 27 29 28 29 31 32 30 30 30 30 30 30 31 33 36 34 34 36 38 38 40 38 38 36 37 34 35 36
18 23 21 19 19 19 18 17 17 16 17 20 21 20 21 25 28 29 29 30 28 26 28 25 23 23 28 32 33 34 35 37 37 37 36 35 34 40 41 43 43 46 41 41
15 17 17 19 19 17 17 19 18 17 17 19 20 19 23 22 24 23 23 25 24 26 26 24 24 22 20 25 32 34 35 34 36 36 37 39 39 39 39 36 39 38 43 44
16 18 18 18 18 16 17 17 16 17 17 19 21 22 22 23 23 21 22 21 22 23 22 22 24 26 24 22 23 29 35 38 38 41 41 38 38 39 37 39 34 32 33 36
18 20 22 18 17 18 18 17 17 18 19 20 21 21 22 24 24 22 23 23 23 24 25 23 24 25 29 26 26 23 23 24 27 28 30 32 34 34 35 34 36 36 34 33
15 17 19 19 19 19 18 17 17 18 18 19 19 19 20 21 21 22 22 23 25 26 26 25 23 20 20 18 22 26 29 29 30 30 28 27 32 30 32 30 33 34 30 28
17 17 18 18 18 19 20 19 18 19 18 17 17 17 18 17 17 20 22 21 22 23 24 23 24 24 24 25 26 26 27 27 27 26 27 28 28 30 34 32 30 29 29 30
17 18 19 18 18 18 19 21 19 20 19 18 18 17 19 20 19 21 21 21 22 22 23 24 25 26 26 25 24 25 25 24 24 24 26 25 26 26 27 28 30 30 29 29
17 17 19 18 17 17 17 18 20 20 20 20 20 18 19 19 21 20 20 21 21 22 19 25 25 24 25 24 24 24 24 25 25 24 24 23 23 23 24 25 26 27 29 29
17 17 17 20 19 18 18 18 19 20 20 20 21 20 17 22 20 19 22 24 22 20 21 21 23 24 24 23 23 23 23 24 25 25 23 23 23 23 24 25 27 28 28 28
19 19 17 16 18 20 19 19 20 21 20 20 21 22 21 18 18 19 19 17 17 18 18 19 21 22 21 23 24 23 23 24 25 26 26 26 26 26 25 26 26 27 27 27
24 22 20 17 15 16 20 21 22 22 22 22 22 23 23 22 20 19 18 18 19 19 20 22 23 24 23 24 24 24 24 23 25 25 26 26 26 25 28 26 26 26 27 27
29 24 22 20 18 16 16 17 22 24 26 26 25 26 26 26 24 21 20 20 20 20 20 21 23 23 24 25 25 26 26 26 26 25 25 24 23 23 24 25 26 26 28 29
18 26 28 26 23 19 19 18 16 16 17 19 21 22 22 21 22 22 22 21 19 19 18 20 22 22 22 24 26 28 28 29 30 28 28 27 28 27 27 26 26 29 31 33
22 21 21 26 28 26 25 24 22 21 20 20 20 20 20 21 22 23 23 23 24 25 26 26 26 26 26 25 23 24 27 29 29 30 31 29 29 29 29 29 29 30 32 33
20 22 22 22 21 23 25 27 28 27 26 26 25 25 26 26 27 28 30 32 34 35 36 37 35 33 31 29 26 25 25 26 28 30 32 33 35 34 33 34 33 33 34 35
22 23 22 22 22 23 23 23 23 24 25 26 26 26 27 29 31 32 33 33 33 33 34 35 34 34 35 36 35 34 34 32 30 29 29 32 35 37 39 40 39 40 39 39
14 15 19 21 20 21 22 22 21 21 21 22 23 24 25 26 27 29 30 31 33 34 35 36 36 36 36 36 36 35 35 35 36 37 37 35 35 36 38 41 42 44 44 43
13 15 17 18 18 18 19 19 19 20 20 21 22 22 22 23 22 20 21 21 22 24 26 30 33 35 36 37 38 38 39 40 40 41 41 42 43 42 42 42 42 45 46 48
12 13 13 13 14 15 16 17 18 19 19 19 20 20 19 19 19 17 15 14 15 16 17 17 17 19 21 24 28 32 34 36 38 40 42 44 45 46 46 46 45 45 45 48
22 16 14 14 14 15 17 18 19 20 22 22 23 27 26 24 21 19 18 18 19 21 22 23 25 25 26 27 28 29 30 34 36 38 38 38 40 42 43 44 45 46 46 47
28 27 27 22 20 19 19 21 23 22 21 22 23 25 27 27 26 24 22 23 24 26 26 28 29 30 32 33 33 35 37 35 34 36 40 40 38 38 38 41 43 43 44 44
34 33 31 31 31 29 28 28 28 27 29 29 27 29 30 32 33 34 34 34 36 37 38 38 38 39 40 40 39 37 39 40 39 39 36 39 38 37 36 35 35 36 38 40
35 36 36 34 33 34 34 34 35 35 34 35 36 36 36 36 36 37 38 39 40 42 43 44 43 43 43 43 41 40 39 41 41 40 41 37 34 34 37 38 37 36 35 35

GFSNGP_500_spd_093.txt.gz
Wind_Speed
24 19 17 26 17 15 14 14 15 17 18 22 25 25 31 33 32 31 30 27 24 19 19 19 21 25 26 28 30 32 33 41 46 47 47 48 47 50 55 53 49 48 50 51
24 18 17 19 14 14 11 13 14 16 17 20 23 27 28 30 33 31 28 27 23 19 22 24 25 28 30 32 36 35 35 36 39 46 47 48 47 47 44 43 45 44 45 45
20 14 13 13 15 15 16 15 14 14 19 22 21 22 23 25 27 28 28 27 25 25 27 28 29 30 32 35 37 38 41 40 38 40 44 45 45 43 41 42 39 42 43 44
22 17 15 11 13 14 13 15 16 17 18 20 21 21 19 25 24 23 26 30 27 27 29 30 31 33 33 34 35 37 37 36 36 36 37 35 36 40 40 41 40 43 42 40
18 20 22 18 15 14 15 15 14 13 14 17 18 20 23 26 26 27 26 27 31 30 29 30 30 29 31 31 30 31 33 32 35 34 36 36 35 37 41 41 41 45 43 41
14 17 24 26 25 23 19 18 15 14 15 16 17 19 19 23 26 27 30 30 32 31 29 28 28 28 30 30 28 28 30 32 32 37 35 37 37 36 35 39 39 38 45 44
15 17 20 22 23 21 20 18 16 17 17 18 19 20 20 22 24 26 27 27 27 26 25 26 27 27 28 27 28 28 25 26 31 33 36 40 40 38 39 39 39 38 37 41
18 18 21 21 20 20 20 18 18 18 18 19 19 21 22 23 25 26 27 28 28 26 26 27 26 27 29 28 28 28 26 23 24 23 24 27 30 32 35 40 44 43 41 40
18 20 21 21 23 22 21 19 19 20 20 19 20 21 20 21 23 24 25 26 28 29 29 28 29 30 31 29 25 24 24 24 25 30 33 32 31 29 27 28 33 34 31 35
16 18 20 21 23 24 24 23 22 22 22 22 21 21 21 22 21 22 23 22 24 25 25 26 28 29 28 28 27 25 26 27 28 28 29 30 29 29 30 31 32 34 32 32
17 17 19 20 21 21 22 23 22 23 24 24 23 22 21 20 20 22 23 24 23 23 24 25 27 28 28 29 30 29 28 27 26 25 26 25 26 27 27 27 28 29 30 32
19 19 20 21 22 22 21 21 19 21 24 25 25 23 24 22 21 23 23 23 24 26 27 27 27 26 27 27 28 28 28 28 28 27 28 27 26 27 26 26 25 25 26 27
21 21 21 21 21 22 22 22 21 21 22 23 24 25 26 25 21 21 21 22 25 26 26 26 28 29 30 28 28 28 27 27 26 27 28 28 28 27 25 24 25 25 25 27
25 23 22 20 20 20 22 23 22 22 23 23 24 25 25 25 24 22 22 24 24 24 26 28 29 28 24 23 24 24 24 27 27 26 27 27 28 28 27 26 26 26 26 27
27 26 25 24 22 20 19 20 24 24 23 24 25 25 25 25 25 25 23 22 22 21 20 20 21 20 22 24 25 25 25 26 25 26 26 27 28 27 28 27 26 26 27 26
26 29 31 31 27 24 22 21 20 22 26 26 26 26 26 27 27 27 26 25 23 21 21 21 21 21 21 22 23 25 26 27 27 28 28 27 27 26 26 25 24 24 25 26
27 24 22 28 31 27 25 23 23 20 19 21 24 25 27 30 30 29 28 27 25 24 23 23 20 19 19 21 23 23 24 26 28 29 30 30 30 29 29 29 29 25 24 26
24 26 24 22 24 29 31 29 28 26 23 22 21 20 20 21 22 23 23 24 24 25 25 24 24 24 26 28 29 28 28 28 27 26 29 31 31 32 33 30 30 29 29 29
23 25 24 24 25 25 26 29 31 30 31 29 28 27 26 26 25 26 27 26 25 26 27 29 31 32 33 33 32 32 32 33 31 29 28 28 29 31 33 34 35 34 34 35
18 19 24 26 23 23 25 25 26 27 26 27 29 30 31 31 30 30 29 29 31 33 33 33 33 33 33 34 34 35 35 36 37 38 37 35 35 33 32 32 34 37 38 40
19 17 16 16 18 19 21 24 25 25 25 25 25 25 26 27 27 27 28 29 30 31 32 33 34 34 35 36 37 37 38 39 39 39 39 39 38 39 39 39 38 37 37 39
20 16 17 16 17 19 19 18 18 19 19 20 22 23 24 25 26 27 27 26 25 25 26 25 25 25 26 26 28 30 32 35 38 40 42 43 43 43 44 44 44 44 44 44
20 21 14 14 15 15 16 18 20 21 21 20 20 21 22 23 23 24 25 25 24 22 20 18 18 19 20 21 22 23 25 26 27 30 33 36 37 39 40 41 43 45 48 49
26 24 23 25 20 17 17 17 18 20 20 21 21 21 25 24 27 30 30 29 29 28 25 23 23 23 24 25 25 26 27 28 28 30 33 35 35 37 41 42 43 43 43 45
31 31 32 28 27 27 26 23 21 22 24 25 24 24 23 24 24 24 28 31 32 31 29 28 29 31 34 35 35 35 35 34 34 35 35 37 39 40 40 39 41 43 42 43
36 37 36 37 34 33 32 32 32 30 29 28 28 28 29 30 30 30 31 32 34 35 36 36 37 38 40 40 41 41 40 40 41 41 40 41 42 44 44 45 42 40 42 41
28 27 28 33 37 36 37 37 36 36 36 35 36 35 34 34 35 36 37 39 40 41 41 42 42 43 44 45 45 45 45 46 47 45 46 45 43 44 46 45 46 43 41 38

GFSNGP_500_spd_096.txt.gz
Wind_Speed
12 18 21 12 17 15 10 18 13 12 12 23 25 27 28 31 27 29 29 27 24 24 22 19 18 20 21 21 20 22 25 27 28 30 33 35 41 43 45 47 49 48 52 54
15 11 12 19 11 9 10 11 12 14 16 19 24 24 27 32 29 27 27 26 24 21 19 19 21 22 22 25 28 30 31 32 34 35 35 36 38 41 45 48 47 47 48 45
13 11 9 15 11 8 8 9 8 11 18 18 18 20 24 25 26 29 28 28 25 22 19 18 24 25 25 25 27 30 32 34 35 38 39 41 42 41 42 44 46 46 47 44
14 13 10 10 10 11 11 11 10 12 12 14 17 19 18 21 25 26 27 27 26 26 25 24 25 26 26 26 29 33 35 35 37 37 40 39 38 39 39 42 43 43 44 43
16 19 17 14 11 8 9 7 9 12 15 15 16 17 19 20 20 25 25 23 23 24 28 28 29 28 27 28 30 33 35 35 36 36 36 36 36 36 35 37 40 42 43 42
13 17 22 18 20 18 14 12 12 12 13 14 15 17 17 20 23 25 25 26 26 26 27 30 32 31 30 31 32 34 33 34 33 33 32 36 35 35 34 36 37 36 35 38
14 17 17 20 21 21 23 20 17 16 16 17 17 18 18 21 23 25 28 29 29 30 33 32 32 32 32 32 33 33 30 31 30 31 29 30 33 34 33 37 37 36 35 39
17 18 19 18 18 19 19 17 18 19 18 18 19 20 21 22 24 25 26 27 28 29 29 29 30 31 31 31 32 32 30 31 31 30 26 27 27 24 24 27 31 36 41 43
17 18 19 18 19 22 21 21 20 20 20 18 19 20 22 23 23 24 26 28 27 29 29 30 32 32 32 32 33 34 33 30 27 24 24 26 27 30 32 31 31 33 29 28
17 18 18 20 21 22 24 24 23 21 20 20 20 20 22 22 22 23 23 24 25 26 27 29 29 30 32 32 32 33 31 30 29 28 29 31 30 29 28 28 28 28 30 31
17 17 20 19 21 21 23 23 23 23 23 23 24 23 22 22 21 21 21 22 23 23 25 28 28 30 29 30 30 29 29 30 31 32 30 29 29 28 27 26 25 28 29 29
18 19 19 19 21 22 23 24 23 23 24 25 26 26 25 24 23 23 22 22 25 26 26 28 29 29 29 29 29 29 27 27 28 29 28 30 28 28 28 28 27 26 26 28
24 22 24 21 20 22 23 24 23 24 24 24 25 26 27 27 26 25 26 24 23 24 26 27 25 26 27 28 29 29 30 29 29 29 29 28 27 27 27 27 27 28 25 23
24 27 25 24 22 21 21 22 24 25 24 24 25 26 26 26 27 28 28 27 25 26 27 27 27 27 29 31 30 30 29 28 27 27 28 29 28 27 27 26 26 26 26 24
22 24 29 28 26 24 24 23 22 22 25 26 26 27 27 28 29 30 29 29 28 26 24 24 26 26 26 26 26 24 24 25 26 27 27 28 28 28 26 25 25 25 25 25
21 24 24 28 30 30 29 27 25 24 23 23 27 29 28 28 29 29 30 30 30 28 26 26 25 24 22 22 23 23 23 24 25 26 27 29 29 29 29 27 27 27 26 24
22 23 24 27 26 27 32 36 30 28 27 24 22 24 27 29 30 30 31 31 31 30 29 28 28 26 26 25 23 22 21 22 23 25 26 25 27 30 30 30 30 29 27 27
18 21 25 25 25 27 25 27 32 30 30 28 26 25 24 23 23 24 25 26 28 29 29 28 28 28 28 27 27 27 28 29 29 30 30 30 29 28 27 29 31 31 32 31
22 22 22 23 26 25 25 24 27 33 36 34 33 31 29 28 27 27 26 26 26 27 27 27 28 28 28 30 31 32 33 34 33 32 32 33 34 33 32 30 30 30 31 33
24 22 22 22 22 23 25 24 24 26 28 29 31 32 32 32 32 32 31 32 31 30 30 31 32 34 34 35 35 35 35 36 36 37 37 38 38 39 39 38 38 37 36 34
24 22 22 24 22 21 20 20 23 22 24 26 26 26 26 25 26 28 28 28 29 29 29 30 31 32 33 33 34 35 35 36 37 38 38 40 41 42 42 42 42 41 39 39
26 26 23 22 23 20 19 20 22 21 19 17 19 19 19 22 24 25 27 27 27 27 28 27 27 27 27 26 24 22 22 23 24 25 26 29 33 36 39 41 42 44 45 46
25 26 26 25 26 26 22 19 19 18 19 21 22 22 23 23 24 25 24 25 25 25 26 28 27 25 23 22 22 23 24 24 25 26 26 26 27 30 32 33 35 37 39 40
28 28 28 29 29 29 28 27 21 18 18 20 22 23 24 25 23 24 25 24 26 29 30 30 32 33 34 33 31 29 26 27 30 32 32 32 32 31 32 33 35 38 39 39
25 27 30 34 35 35 36 32 29 28 27 24 23 24 25 26 26 25 25 26 27 26 27 29 32 34 37 37 36 36 36 38 41 40 39 38 37 38 38 38 38 40 42 43
31 30 33 35 33 32 34 38 37 35 33 32 31 32 31 30 29 29 28 29 30 31 32 34 35 37 38 39 39 40 41 42 43 43 44 44 44 44 44 45 46 47 47 48
28 29 32 31 29 29 27 30 37 40 39 38 38 37 36 36 35 35 35 35 36 37 38 39 40 41 41 42 43 43 44 45 47 48 50 51 52 52 52 51 50 49 47 47

GFSNGP_500_spd_099.txt.gz
Wind_Speed
10 14 17 16 6 19 16 12 13 9 15 18 24 31 29 27 32 38 34 30 32 30 28 27 26 24 22 21 20 21 23 25 25 25 27 28 31 33 36 38 39 40 45 49
3 11 14 14 9 14 12 16 15 14 14 18 18 24 29 35 29 31 34 36 34 28 27 27 25 23 24 23 22 22 23 25 28 30 30 32 34 35 36 38 39 39 42 43
8 9 5 15 13 9 8 14 15 17 17 14 19 24 27 28 31 30 29 30 30 29 26 26 26 26 27 28 26 26 27 28 28 30 32 34 35 37 39 41 43 43 43 41
6 9 7 7 14 6 8 10 9 8 9 12 16 17 18 19 23 25 29 29 27 26 25 26 29 30 31 31 31 30 29 29 30 32 35 36 37 39 42 42 42 40 40 40
9 10 11 9 10 8 8 10 11 11 12 12 13 15 18 21 22 24 26 27 28 27 26 29 29 31 31 32 32 30 31 31 32 34 36 36 37 37 37 37 37 38 39 38
11 14 17 17 16 13 12 13 10 8 10 13 15 16 17 20 22 25 24 26 26 25 26 27 29 33 33 33 33 34 33 32 33 34 36 37 37 37 35 34 37 38 38 37
13 13 12 15 20 22 23 19 16 15 14 15 18 18 19 20 22 24 26 27 28 29 30 31 31 31 33 35 36 36 36 34 33 34 34 36 35 35 36 34 32 33 34 34
13 15 16 15 16 19 21 22 22 23 21 20 21 20 20 20 22 23 25 26 26 28 32 33 33 35 34 34 36 37 35 34 33 33 34 35 34 32 31 32 31 30 29 30
16 16 16 18 19 20 21 21 20 20 20 22 22 22 21 21 22 22 22 23 25 27 28 29 29 30 31 32 34 35 34 34 34 34 35 34 32 29 28 29 30 30 30 31
14 16 18 17 20 21 21 21 22 22 22 21 21 22 22 21 22 22 23 23 24 25 26 27 28 30 31 32 33 33 34 34 33 35 34 33 33 33 32 31 30 31 30 30
14 16 15 17 17 19 22 23 23 23 24 24 24 24 24 23 23 22 22 23 24 24 25 25 26 27 29 30 31 32 32 32 32 33 33 33 34 33 32 30 30 30 31 30
16 19 17 17 19 19 21 21 22 23 24 25 26 26 26 26 26 25 25 26 25 25 25 26 28 29 31 31 31 31 31 31 31 32 31 31 31 30 30 29 29 29 30 31
20 20 20 21 21 22 22 23 23 23 24 25 25 25 26 26 27 28 28 28 28 28 26 26 29 31 31 29 30 32 31 30 31 31 31 30 30 30 30 29 28 28 27 27
18 20 19 21 27 26 24 22 22 23 25 26 26 26 27 29 29 29 30 31 32 31 30 28 27 29 29 29 30 30 31 32 32 32 31 30 29 28 27 27 28 28 26 26
17 17 17 19 20 26 27 27 25 24 24 24 25 27 28 30 30 30 30 30 30 31 31 31 30 29 28 29 30 29 29 30 29 26 26 26 27 28 28 28 28 28 27 26
16 15 18 19 20 21 25 30 31 30 28 27 25 24 27 30 31 31 32 33 33 33 33 32 32 31 30 30 30 29 26 25 23 25 26 25 25 25 26 28 29 29 30 29
19 18 17 18 21 23 21 23 23 31 35 34 32 30 28 27 28 31 33 33 33 33 32 33 33 33 32 32 32 30 30 30 29 26 26 26 27 27 27 27 26 27 30 30
25 20 19 20 21 21 23 24 24 27 26 30 35 34 32 30 28 27 27 28 29 30 30 31 33 34 33 33 32 32 33 32 31 31 31 32 32 32 33 32 31 29 28 28
30 24 21 21 21 20 21 21 23 23 24 25 31 34 34 34 34 32 31 29 29 28 28 29 29 29 29 30 31 32 34 35 35 36 36 37 38 37 36 35 35 35 35 34
33 29 23 21 21 22 20 21 21 21 23 25 27 30 32 33 37 37 35 34 34 33 33 33 33 33 33 34 35 35 35 36 37 38 38 38 39 40 40 40 40 40 40 40
35 33 28 23 23 23 22 21 22 21 23 25 26 27 28 28 27 24 24 26 29 30 31 31 32 32 32 33 33 33 33 33 34 34 34 34 34 35 36 37 39 40 41 42
35 34 32 25 23 23 23 24 24 22 20 23 25 24 23 23 23 23 25 27 29 29 29 30 31 31 30 29 29 29 28 27 26 25 26 26 26 27 28 29 30 31 32 33
35 35 35 27 24 22 22 25 26 27 26 21 21 21 21 22 23 24 26 26 28 29 29 28 29 29 29 30 30 29 29 28 28 28 27 27 27 27 28 29 30 30 30 31
35 36 35 31 28 27 26 28 30 32 29 29 26 19 20 22 24 27 28 27 27 28 28 26 26 29 30 31 31 33 36 38 39 39 39 36 35 36 37 38 37 36 36 37
36 36 36 34 30 28 28 31 31 29 31 32 31 31 31 29 25 25 26 27 29 29 28 28 29 30 31 31 32 34 35 33 33 36 41 43 44 44 45 46 45 45 45 45
37 37 37 35 30 30 30 29 29 30 31 31 37 38 36 36 34 33 32 31 32 32 31 31 32 33 34 35 36 37 39 40 41 41 42 43 44 45 45 46 46 47 49 50
38 38 37 35 30 28 28 27 27 27 28 27 28 34 41 39 39 40 38 36 35 35 35 36 37 38 39 40 42 42 43 44 45 46 47 48 49 50 51 52 53 55 56 56

GFSNGP_500_spd_102.txt.gz
Wind_Speed
9 10 9 12 7 13 17 17 17 18 15 30 25 27 27 29 28 34 33 35 35 43 38 40 43 43 39 36 37 34 31 28 28 29 30 30 31 32 32 32 34 36 38 39
14 13 13 11 5 15 17 16 15 7 15 14 25 30 31 34 33 31 31 33 36 40 43 45 42 40 36 34 34 34 31 30 30 29 28 27 28 31 32 34 36 35 36 38
4 9 12 13 10 13 14 15 17 15 15 17 18 30 31 34 35 32 32 33 33 33 33 35 35 33 33 35 35 34 33 33 31 31 30 31 32 33 35 36 36 36 39 42
7 7 7 7 14 14 14 16 18 19 18 16 17 17 25 34 38 36 36 36 36 36 37 34 34 34 35 36 35 35 35 34 32 32 33 34 35 35 34 35 37 38 40 41
9 9 9 9 11 13 9 14 14 15 14 14 15 18 18 18 19 22 36 33 33 35 34 35 37 38 37 35 35 35 37 37 36 36 36 36 36 35 34 36 38 38 39 40
12 14 16 15 15 14 13 14 15 15 14 14 15 16 17 18 21 22 23 25 30 40 38 35 35 36 36 37 38 38 38 38 38 39 38 39 37 36 36 38 38 39 39 37
16 15 15 18 22 22 21 17 16 16 16 17 16 15 16 19 20 22 25 26 27 27 29 30 32 37 38 39 41 41 41 40 40 41 41 40 39 38 37 38 38 39 37 36
16 16 17 17 17 20 24 27 26 24 24 22 20 20 21 21 21 22 23 25 28 30 30 31 35 36 36 37 37 39 42 43 43 44 42 39 39 38 38 38 38 37 35 32
14 16 16 16 19 19 20 23 27 29 29 28 26 26 25 23 23 24 24 24 25 27 29 30 30 32 33 34 35 37 37 37 37 38 38 38 38 39 38 38 38 36 36 36
13 14 14 15 16 18 20 21 23 24 27 27 26 26 26 25 25 25 24 24 25 25 26 28 29 31 31 32 33 33 34 35 36 37 37 37 38 38 37 38 38 38 38 37
13 14 16 16 16 18 19 20 21 23 25 27 29 28 27 25 25 25 25 25 25 26 27 28 29 30 31 31 31 32 34 36 36 36 36 34 33 34 34 35 35 36 36 34
12 15 16 18 18 17 19 19 20 21 23 26 26 27 28 28 28 28 27 27 27 28 28 29 29 29 29 30 31 32 33 34 33 34 33 32 33 34 35 35 36 35 35 34
11 16 20 18 17 18 19 20 20 22 23 24 25 26 27 27 28 29 29 29 29 30 31 31 30 29 29 31 33 33 33 33 33 34 35 35 35 35 36 34 34 33 34 33
25 12 15 17 21 19 23 30 28 26 24 25 27 27 27 28 29 30 30 29 29 30 32 33 33 33 33 32 31 32 33 35 35 34 35 36 36 35 34 34 32 32 32 31
26 23 16 15 17 19 22 21 24 26 28 27 27 27 29 29 30 31 32 31 31 31 32 33 35 36 35 35 33 33 33 35 35 34 33 33 32 31 31 31 31 32 32 31
26 24 23 18 16 17 19 20 23 24 28 33 32 30 28 28 29 32 35 35 34 33 34 34 34 35 37 37 37 35 35 34 34 33 33 31 30 30 30 28 27 28 28 28
27 25 24 22 18 18 19 20 23 24 25 25 31 36 35 34 33 32 31 31 33 36 37 37 36 37 37 37 38 38 37 37 36 37 34 33 33 33 32 30 30 30 31 31
26 27 27 26 24 19 19 21 21 22 25 26 27 28 28 33 38 38 35 32 31 30 32 33 34 35 36 36 36 36 36 37 37 38 36 36 36 35 35 36 35 34 35 35
25 26 27 27 27 25 21 21 23 22 23 23 26 25 24 28 36 35 35 33 32 32 32 31 31 31 30 31 31 31 30 31 33 34 34 36 38 39 39 40 39 40 40 39
27 26 27 28 29 28 24 21 25 24 22 22 24 26 27 29 32 33 34 34 34 36 35 34 34 34 34 33 33 33 34 34 35 36 35 35 37 38 39 40 41 41 41 41
29 28 27 28 29 29 26 23 22 26 26 24 25 26 27 29 31 31 32 32 29 28 28 30 32 32 32 32 32 33 33 33 33 33 33 34 35 34 35 35 34 33 33 34
31 29 28 28 29 29 28 24 23 23 25 26 26 26 27 27 28 27 27 28 30 30 30 31 30 29 29 30 31 31 31 31 30 29 30 31 31 31 31 30 30 30 30 30
33 31 30 29 29 30 29 27 25 26 29 31 31 29 26 26 25 24 23 24 25 27 29 29 28 28 29 29 29 29 30 31 32 32 32 33 34 34 35 35 35 35 35 35
34 34 32 31 30 30 30 29 28 28 28 28 29 30 29 28 29 26 20 21 23 26 29 32 30 30 31 31 29 29 31 33 34 35 35 37 39 42 44 45 46 47 47 46
35 35 33 33 31 31 30 30 30 29 30 29 28 28 30 32 35 31 32 31 30 27 26 28 29 30 31 32 32 31 31 32 34 36 37 38 39 40 40 42 43 44 45 46
36 36 35 35 34 33 32 30 30 29 31 32 32 29 29 29 31 40 35 32 33 33 33 33 32 32 34 35 35 35 35 36 36 37 38 40 41 42 44 45 47 48 49 50
38 37 37 36 35 34 33 31 30 30 30 30 29 26 25 24 23 22 28 36 30 30 33 34 34 33 33 33 35 37 37 38 39 40 41 43 44 45 46 48 50 51 53 54

GFSNGP_500_spd_105.txt.gz
Wind_Speed
6 8 15 13 8 9 13 17 23 20 18 20 20 21 22 24 25 28 28 37 38 36 38 40 44 42 42 45 49 48 49 50 46 44 45 44 46 37 32 31 30 30 31 33
3 8 9 12 9 9 11 13 14 17 19 22 22 27 28 28 28 28 29 34 42 43 41 41 41 44 46 45 44 45 44 43 43 44 44 43 37 33 33 31 31 31 32 35
4 10 10 11 11 11 13 16 17 17 16 25 18 29 29 28 29 30 28 35 37 42 43 43 39 41 44 45 44 45 47 46 47 44 45 41 38 37 34 34 34 35 36 39
10 12 13 14 15 15 14 16 17 18 14 14 13 14 19 28 30 32 34 34 37 35 38 41 41 39 39 39 39 41 41 41 44 47 44 41 40 37 37 38 38 40 39 40
11 10 9 9 8 9 11 14 15 16 18 17 17 17 18 22 29 31 32 38 35 35 32 33 34 35 37 38 42 43 42 43 44 43 43 43 41 40 40 39 40 40 41 40
10 12 14 13 12 13 11 10 12 15 18 18 18 19 20 21 22 26 31 40 40 39 40 36 36 37 39 36 36 39 40 42 42 42 44 45 44 43 42 42 41 41 42 42
14 14 15 17 19 18 17 15 15 18 18 17 18 18 18 19 20 22 25 26 28 33 39 39 43 45 39 39 41 42 41 42 43 44 45 45 44 44 44 45 44 43 44 43
15 15 17 19 19 22 24 23 23 21 22 21 19 19 19 19 19 19 20 23 26 27 29 30 36 43 42 43 46 43 42 43 44 45 46 45 45 46 46 46 45 46 45 44
10 16 19 16 19 22 22 24 27 29 29 29 27 26 25 23 23 23 22 23 24 25 25 28 30 30 31 34 34 34 37 39 42 42 41 43 44 46 45 44 44 43 43 44
4 10 15 17 18 20 21 23 24 26 27 30 30 31 30 29 28 27 26 25 25 27 27 28 29 31 32 33 34 37 38 38 38 39 42 43 44 42 42 42 42 42 42 43
11 6 12 16 17 18 19 20 21 23 25 27 29 29 30 29 29 27 27 28 27 27 28 29 30 31 32 33 34 35 36 37 37 38 38 39 40 40 40 40 39 38 38 39
23 16 6 10 17 20 21 21 19 20 21 23 25 25 27 28 29 31 29 28 28 28 29 29 30 31 32 33 34 34 35 35 36 36 37 38 38 39 39 38 37 38 39 38
28 26 20 10 13 18 20 23 23 23 23 22 22 23 26 27 29 29 29 30 31 30 31 31 31 32 32 32 33 33 34 34 36 37 38 39 39 39 39 38 39 37 37 37
29 27 26 23 15 12 17 23 25 24 28 31 29 25 26 28 30 30 30 29 30 30 30 31 32 33 34 34 34 34 34 34 35 36 37 37 37 37 37 38 39 39 38 37
28 27 25 23 22 17 14 17 22 25 28 27 29 30 30 28 28 29 30 31 32 31 30 31 31 33 34 36 37 38 38 38 38 37 36 36 37 38 38 38 37 35 35 35
26 25 24 24 22 20 17 16 17 21 25 27 28 28 31 34 33 30 29 26 32 34 36 35 34 34 34 35 36 38 39 39 40 40 39 38 36 36 37 38 36 33 32 32
27 25 23 22 21 21 22 19 17 18 23 24 27 31 32 31 34 37 37 35 36 35 35 34 35 37 37 37 37 38 40 40 40 40 41 41 40 39 39 39 36 34 35 35
30 28 25 23 22 21 21 21 20 18 19 24 26 27 28 32 33 33 35 38 40 42 39 36 35 33 32 33 36 37 38 39 39 39 40 40 40 40 40 41 38 37 38 38
30 29 28 26 25 23 22 22 21 21 19 20 25 26 27 28 31 32 32 31 31 34 37 39 37 36 33 31 31 32 32 33 34 35 35 35 35 35 37 37 38 39 39 40
32 32 30 29 27 25 24 23 23 23 22 20 20 26 27 26 27 31 31 32 37 38 36 35 36 36 36 35 32 31 32 32 32 32 32 34 35 36 36 35 35 36 38 39
34 34 32 30 28 27 26 25 25 25 25 24 23 25 28 29 29 29 31 33 34 34 33 34 34 33 32 32 32 33 34 34 34 34 34 34 34 34 33 33 33 35 36 36
36 35 34 31 29 29 27 26 27 27 26 26 26 28 31 33 34 32 30 31 31 32 31 30 31 34 33 31 31 30 30 30 31 31 32 32 32 32 31 31 33 34 36 35
37 37 35 32 31 30 29 27 27 28 28 28 28 29 31 31 32 33 31 30 26 26 25 24 27 30 32 30 29 29 30 30 30 30 31 32 33 34 35 36 37 37 39 40
39 39 37 35 34 32 30 28 28 28 29 30 29 30 32 33 30 29 30 32 30 28 22 20 18 19 21 26 29 31 31 32 31 29 30 32 34 36 38 39 39 40 41 42
40 40 38 37 35 34 33 31 30 29 29 29 30 30 33 36 34 30 30 32 35 33 31 31 31 27 25 23 26 28 28 29 31 32 33 33 34 35 37 39 41 43 44 45
41 41 40 38 36 36 35 33 32 31 30 30 31 33 33 35 34 28 28 29 29 32 35 26 28 30 29 27 27 27 27 28 30 31 34 35 36 38 40 41 42 43 44 45
43 43 41 40 38 38 37 35 34 33 32 32 33 32 31 32 31 28 25 22 19 20 23 28 27 26 23 23 25 26 27 29 30 32 33 34 36 37 39 41 43 45 46 48

GFSNGP_500_spd_108.txt.gz
Wind_Speed
8 9 9 11 6 4 8 9 9 10 11 12 15 17 18 17 18 19 23 26 28 31 34 33 33 34 34 34 36 40 41 46 45 46 46 43 41 41 43 43 45 46 43 41
8 6 5 2 1 0 3 6 16 18 14 14 16 17 17 22 25 24 25 27 29 29 32 38 39 38 40 43 46 45 46 46 46 50 51 48 48 51 51 48 46 47 43 40
3 5 4 6 6 5 7 9 11 15 18 20 22 23 24 27 26 24 25 26 29 30 32 36 37 37 41 43 44 44 44 46 48 49 49 49 51 50 51 47 48 44 41 41
6 5 8 9 10 10 11 11 9 13 16 13 18 19 18 21 28 29 27 28 32 32 32 38 39 41 42 43 44 44 46 47 46 47 48 47 45 48 50 50 48 44 45 45
11 10 10 11 10 9 10 12 14 15 15 15 13 16 15 16 19 28 28 28 28 28 34 31 37 40 41 41 42 42 42 44 46 46 45 47 50 49 46 49 47 46 46 48
8 13 13 12 11 9 8 8 12 14 15 16 19 20 21 21 19 20 23 26 26 25 30 33 35 32 37 41 41 37 34 36 40 41 41 42 42 44 48 48 47 47 48 47
14 12 13 15 15 15 15 15 13 14 15 16 19 20 21 21 20 21 21 22 26 30 33 34 37 40 39 37 36 36 38 40 38 39 40 38 40 45 48 46 47 49 49 50
7 13 14 17 16 17 19 19 19 19 19 19 20 20 19 19 19 19 20 22 26 28 28 30 30 34 40 43 48 46 43 42 44 44 44 44 46 47 45 44 45 45 46 48
14 7 8 16 16 18 20 22 23 24 25 26 26 25 24 23 21 21 21 22 23 24 24 25 27 29 34 37 42 44 41 45 46 44 46 50 48 49 48 45 42 43 45 45
28 23 13 9 12 17 20 21 22 25 27 28 30 33 34 32 31 30 29 28 26 25 27 28 28 28 28 29 30 33 37 42 46 48 44 41 40 41 42 43 45 45 44 45
26 28 25 19 7 11 15 19 20 21 23 27 30 31 32 34 35 35 33 32 31 31 30 30 31 31 31 31 32 33 34 35 37 37 38 39 40 40 41 41 42 43 43 43
25 24 25 24 21 14 9 15 18 20 21 23 25 28 29 30 32 33 34 34 32 32 33 32 32 33 33 34 34 35 36 37 37 38 38 39 39 40 41 41 41 41 40 39
24 23 23 22 22 21 17 11 14 18 20 23 24 25 27 29 29 29 29 30 32 33 37 34 34 35 35 35 35 36 36 37 37 37 37 37 37 37 38 39 39 40 40 40
25 23 20 18 19 19 19 16 14 13 17 23 26 27 27 31 32 30 31 31 31 31 32 34 36 36 37 37 37 37 37 37 37 37 36 37 37 37 38 38 39 39 39 39
26 25 22 20 17 16 16 16 15 15 15 17 21 25 29 29 30 32 33 32 31 31 31 32 32 32 34 36 37 38 38 39 39 40 40 39 39 39 38 38 38 38 39 39
29 28 26 23 19 17 16 15 15 15 16 17 19 21 24 28 31 32 32 34 35 32 28 28 32 33 35 36 36 37 37 38 39 40 41 42 42 41 41 41 40 39 38 38
30 30 29 26 23 21 19 17 16 16 18 19 20 21 23 26 27 28 33 35 34 38 38 38 39 38 36 35 35 37 39 38 38 39 40 41 42 43 44 43 43 42 41 40
29 30 30 28 25 24 22 21 19 19 20 22 23 22 23 25 27 28 29 30 33 36 36 40 44 45 42 39 37 37 36 37 38 39 40 40 41 41 42 41 41 41 41 41
30 31 31 30 28 26 25 24 23 21 22 24 26 26 25 25 26 27 27 29 28 31 34 35 35 38 37 37 40 41 40 37 35 35 35 35 36 36 37 38 39 39 38 38
32 32 33 32 30 28 27 26 25 24 22 24 27 30 29 27 27 28 29 30 29 31 32 35 36 36 38 38 38 38 38 38 37 35 35 34 34 34 34 35 36 36 36 36
34 34 34 34 33 31 29 29 27 26 25 25 27 30 33 32 30 31 31 32 34 33 34 35 37 37 37 36 36 36 37 38 37 37 37 36 36 36 36 36 36 36 36 35
37 36 37 37 35 33 32 30 29 29 28 26 27 30 34 35 33 33 34 35 32 33 33 34 34 35 36 36 35 34 34 35 34 33 33 33 34 34 34 35 35 36 35 34
38 38 39 39 39 36 34 32 31 30 29 28 29 30 34 36 34 34 34 36 36 34 32 32 32 28 28 32 30 29 34 35 36 35 34 32 32 33 34 33 34 34 36 36
39 39 41 42 41 39 37 35 33 32 31 31 31 31 34 37 37 36 37 37 32 32 33 33 33 30 27 24 25 27 31 32 34 33 33 34 33 31 31 33 34 35 36 37
40 41 42 44 43 42 40 38 35 34 33 32 33 34 35 36 37 38 37 36 33 29 31 33 32 33 30 27 24 25 24 23 26 28 28 29 30 32 34 35 35 36 37 38
41 42 44 45 44 43 41 39 37 36 35 35 36 36 37 38 39 38 37 34 33 30 29 29 26 25 26 27 27 25 25 24 24 24 24 25 26 28 29 31 33 36 37 38
43 45 46 46 45 45 43 42 40 38 37 37 38 38 40 40 40 36 34 32 30 31 27 24 21 21 19 19 21 20 23 23 23 24 26 27 28 29 30 31 32 34 35 37

GFSNGP_500_spd_111.txt.gz
Wind_Speed
10 14 17 16 11 8 7 8 8 8 9 9 10 12 13 13 15 12 11 23 22 21 24 30 33 35 39 39 37 36 37 37 39 43 42 41 41 41 41 43 42 40 38 39
13 10 12 11 10 8 6 4 4 3 2 3 4 6 8 8 10 14 18 15 14 15 18 18 20 21 26 34 35 35 39 38 35 34 33 36 39 41 41 42 42 41 43 46
8 8 7 5 4 3 2 2 1 3 8 11 11 9 11 13 16 17 17 18 19 22 24 25 27 30 30 32 31 32 33 34 35 36 41 41 43 46 47 45 44 46 46 46
3 2 1 1 3 2 3 5 4 5 6 10 14 16 18 18 20 21 21 22 22 27 28 30 32 35 38 40 42 42 42 43 44 45 44 42 44 46 46 45 45 45 44 45
6 5 4 5 5 7 7 8 7 6 7 10 13 11 16 18 21 25 25 26 29 31 31 31 35 37 38 41 43 44 46 47 49 49 47 46 46 46 46 48 48 45 44 44
5 7 8 8 6 6 5 6 8 9 12 13 13 15 15 17 18 21 21 24 28 30 32 31 33 36 36 43 45 47 48 49 50 49 48 50 50 51 51 51 47 44 43 42
3 6 9 10 10 10 10 9 9 10 10 11 13 16 19 21 22 23 22 23 24 29 32 31 31 31 31 35 34 37 42 42 44 46 44 44 44 45 46 44 42 43 45 44
19 9 1 6 10 12 14 12 15 16 16 16 16 17 18 21 22 23 23 23 24 26 27 30 31 30 32 34 38 41 38 37 37 37 41 44 46 47 46 45 47 43 41 44
27 22 19 10 2 8 14 15 17 18 20 21 22 23 23 23 23 23 23 24 24 24 26 28 30 30 33 34 34 37 44 45 46 48 48 44 45 45 45 47 48 50 49 47
27 25 23 22 17 10 2 11 16 20 21 22 24 25 27 29 30 30 30 29 28 27 27 28 28 29 29 30 30 33 37 40 42 46 48 43 43 48 49 49 49 51 50 46
24 25 23 22 21 19 13 8 5 11 18 21 22 25 27 29 29 30 31 32 33 34 34 33 32 32 33 33 32 32 33 33 34 35 36 37 40 41 43 44 44 43 41 41
23 23 22 21 19 17 15 14 11 7 9 15 21 23 24 25 27 29 29 30 31 32 33 34 35 36 36 36 36 36 38 37 37 35 41 39 34 44 42 42 42 41 41 42
22 22 23 21 18 14 13 13 9 9 9 10 15 20 25 27 27 28 29 30 30 31 33 34 36 39 39 38 38 38 39 40 41 41 41 41 42 42 41 41 40 40 40 40
23 23 22 21 17 15 13 9 7 6 6 8 11 14 19 26 31 32 30 31 33 32 32 34 34 35 37 40 42 41 41 42 42 42 42 43 43 42 42 41 40 40 40 39
23 23 23 22 20 16 15 13 11 9 9 9 12 15 19 22 24 27 30 32 32 33 35 35 35 35 35 36 38 39 41 44 45 45 44 44 44 43 42 41 41 40 40 39
23 23 24 24 23 20 17 15 15 14 14 14 14 16 20 24 26 28 28 29 32 34 35 36 37 34 33 34 38 39 41 41 42 43 44 45 44 45 45 45 44 44 44 43
24 24 25 27 26 24 22 20 17 16 16 19 19 21 23 26 29 31 33 31 29 33 33 34 38 38 41 40 40 40 39 39 40 41 42 43 44 44 44 45 46 46 46 46
25 26 27 28 29 28 25 24 21 18 19 19 21 24 25 29 31 33 34 36 35 31 30 34 34 37 39 41 46 50 49 46 43 41 40 41 43 45 46 45 46 47 47 47
26 27 27 29 30 30 28 27 24 21 21 21 22 24 26 29 33 35 35 36 37 36 35 33 33 34 36 36 37 35 39 44 44 44 45 41 42 42 43 44 45 45 44 44
27 29 28 29 32 32 31 30 29 26 24 23 23 26 28 30 33 37 38 38 38 38 37 37 35 35 37 38 40 41 42 41 39 40 40 42 43 43 41 40 40 40 40 40
30 32 33 33 34 34 34 33 33 30 27 25 25 27 30 32 33 36 39 41 40 39 40 39 37 35 37 39 39 39 40 41 40 40 40 39 40 40 41 39 39 39 38 39
34 35 36 36 36 37 37 36 36 34 31 28 28 29 31 33 36 37 39 41 42 42 40 37 36 36 39 36 35 35 36 38 38 37 37 36 36 37 36 37 37 37 38 38
37 38 39 38 38 39 39 39 39 37 34 32 30 31 33 34 37 39 40 42 44 42 38 38 34 31 34 35 34 36 36 30 35 36 33 32 35 36 35 34 33 33 34 34
39 41 41 40 41 40 41 41 42 40 37 35 33 33 34 36 38 39 42 43 44 44 41 38 35 29 31 33 33 31 28 28 27 30 31 32 33 33 33 34 33 33 34 35
43 44 45 43 42 42 44 44 44 42 40 38 36 35 36 38 39 42 43 45 44 43 41 38 36 32 30 31 28 25 26 25 29 25 24 24 26 26 27 29 30 30 32 34
47 47 48 45 44 45 47 46 46 45 43 42 41 39 39 40 41 44 47 45 43 41 37 35 34 33 29 28 25 23 26 27 29 23 21 21 21 21 22 23 23 23 25 27
50 50 50 47 46 48 49 49 49 48 47 45 45 44 43 44 45 47 47 45 43 40 36 34 32 31 29 27 24 21 18 16 18 18 18 18 20 21 23 24 25 27 28 29

GFSNGP_500_spd_114.txt.gz
Wind_Speed
23 24 20 18 17 19 15 18 13 20 17 16 13 12 8 6 6 8 5 17 37 42 45 45 41 44 37 35 39 34 29 30 31 31 31 30 29 31 34 35 37 37 37 36
14 17 19 17 16 15 14 13 14 16 15 13 12 10 8 8 6 2 6 5 16 18 32 34 43 44 43 41 42 40 36 27 32 30 30 31 32 34 36 36 34 36 38 39
12 12 12 13 12 11 10 9 7 5 5 6 7 6 6 5 6 6 7 7 8 12 20 19 16 19 30 31 33 36 36 37 37 36 37 36 32 31 35 36 38 40 41 41
8 7 5 6 6 6 4 4 4 2 2 2 2 6 7 6 6 7 9 10 12 14 15 18 21 23 24 24 24 27 28 31 32 33 36 37 36 35 37 39 41 42 43 44
4 3 4 3 5 6 3 4 4 1 1 3 4 6 8 13 16 16 15 17 17 19 22 24 25 26 28 31 33 34 36 38 38 41 41 42 45 45 43 42 43 43 44 45
4 4 4 3 2 1 4 1 5 4 5 6 6 7 7 10 15 18 21 21 25 29 29 30 31 32 32 36 38 39 41 41 42 44 44 43 44 45 46 45 45 45 44 45
17 11 4 5 7 8 4 3 5 5 5 6 5 8 13 15 16 17 18 21 23 25 27 34 39 39 40 39 40 42 43 44 45 46 46 44 43 44 44 44 45 42 40 40
27 19 13 14 3 5 4 10 10 11 12 12 13 13 14 14 19 23 24 24 25 28 28 29 30 36 41 42 43 44 46 44 43 42 43 44 44 44 43 43 44 44 44 44
29 27 27 24 18 10 2 7 13 16 18 19 20 21 21 21 22 23 24 26 26 27 29 31 31 31 32 38 44 46 47 46 45 46 45 42 41 41 41 42 45 47 48 50
26 26 25 25 22 19 17 11 3 9 15 22 26 28 28 29 30 31 32 32 31 31 31 32 32 32 33 34 36 38 40 42 42 44 47 50 51 50 51 52 52 51 51 51
25 25 23 22 20 19 17 13 11 9 8 5 7 13 21 27 30 31 32 32 33 34 36 38 39 38 37 35 34 36 38 38 39 41 43 44 46 49 51 52 53 51 51 50
20 22 21 20 18 17 15 11 9 7 6 6 7 9 11 14 20 25 29 32 34 34 33 34 36 39 39 40 40 40 41 40 41 43 41 37 34 37 44 44 47 45 46 49
16 18 18 19 18 15 12 10 8 5 4 5 7 9 11 14 15 17 22 27 31 34 35 35 35 37 40 42 44 44 44 46 47 48 47 47 50 50 50 43 42 38 44 46
15 15 16 16 15 15 14 10 7 5 5 7 10 12 14 17 20 23 23 25 27 29 34 38 39 40 39 40 42 44 46 48 48 48 49 51 51 51 51 51 49 51 53 50
13 15 15 16 16 16 16 14 10 8 7 9 13 16 18 21 24 27 29 30 32 33 32 31 32 37 40 41 40 39 41 42 44 46 49 51 52 53 53 53 52 51 50 48
14 14 16 17 18 17 18 18 15 12 10 9 12 17 21 24 27 29 32 34 36 36 36 36 35 34 34 39 42 42 42 43 43 45 46 46 48 50 53 54 55 54 51 50
15 17 18 20 21 21 21 20 20 18 15 13 14 16 22 26 29 33 35 37 39 39 39 39 38 36 34 35 37 43 47 46 40 43 45 46 46 47 48 49 49 51 53 52
16 19 21 23 24 25 25 24 23 23 20 18 17 19 21 26 30 34 36 38 40 40 40 39 39 39 38 35 33 37 43 48 47 45 49 50 48 46 44 43 45 47 47 49
18 20 23 26 28 29 29 28 27 26 27 25 22 23 24 25 29 34 37 40 41 42 42 41 39 39 39 38 36 35 39 41 46 46 41 43 45 46 49 49 47 44 45 46
20 23 25 30 32 32 33 32 31 30 31 30 29 27 26 28 31 35 38 41 43 44 44 44 42 40 38 37 36 36 38 43 43 46 50 46 44 43 43 45 47 48 46 46
22 26 29 33 36 36 36 36 36 35 35 35 34 32 30 30 32 34 38 42 44 45 46 46 45 44 39 35 35 35 39 43 45 41 43 45 47 44 46 46 46 46 45 47
25 30 33 35 38 40 40 40 40 39 38 39 39 36 34 32 33 35 39 42 44 45 47 46 46 45 43 38 34 31 34 40 38 38 39 38 41 42 43 43 43 43 42 41
28 32 36 39 41 44 44 42 43 42 41 41 42 39 37 36 36 38 40 43 44 45 47 47 47 45 43 39 35 32 33 37 37 34 35 37 36 37 40 41 40 39 39 38
32 36 40 42 44 46 47 46 45 44 43 44 44 42 40 39 40 40 42 44 45 47 48 47 46 44 40 37 35 33 31 32 31 29 27 25 27 28 33 36 35 34 37 39
37 41 44 46 48 49 50 49 48 46 46 46 46 44 43 43 43 44 43 44 47 48 47 45 45 41 37 34 34 32 29 28 25 24 26 27 29 27 27 31 34 33 33 32
40 44 47 49 51 52 52 50 49 48 47 48 48 47 46 47 47 48 48 49 49 47 46 45 43 39 35 33 33 31 28 27 25 22 22 17 16 16 15 16 17 17 17 17
42 45 48 51 52 53 53 51 50 51 49 49 50 51 50 51 51 51 52 51 50 47 46 44 41 38 35 34 33 31 29 28 25 23 20 17 15 15 15 15 16 18 19 20

GFSNGP_500_spd_117.txt.gz
Wind_Speed
20 17 19 24 25 23 18 19 16 22 18 20 21 21 22 20 18 20 19 24 33 38 41 37 38 38 34 32 29 30 27 28 29 26 29 24 21 21 21 24 26 31 34 33
16 16 18 21 22 21 20 21 19 21 18 18 16 17 16 15 15 9 9 16 20 27 26 29 29 32 30 29 29 30 31 32 32 30 31 30 27 27 27 31 34 32 34 32
13 14 15 17 17 16 16 15 15 16 15 16 15 13 13 13 10 8 9 9 2 15 21 18 20 28 33 34 32 34 28 30 30 33 32 30 29 29 30 31 33 34 36 34
11 11 11 11 11 10 11 14 14 12 11 9 8 7 6 6 5 4 3 1 7 10 10 13 15 19 19 20 26 32 34 33 35 32 29 30 31 31 33 34 34 34 35 37
6 8 7 9 9 9 10 13 12 10 7 4 3 4 5 6 6 5 5 6 10 12 14 17 19 21 21 20 21 22 22 23 25 29 31 32 31 33 35 37 38 37 37 39
1 1 2 6 7 10 10 11 7 6 5 3 3 4 7 10 12 13 14 15 17 17 20 21 22 23 24 26 28 29 31 32 34 35 37 39 40 40 41 42 45 44 44 46
17 13 13 8 4 8 12 10 5 3 1 1 3 3 7 10 12 12 15 17 19 22 23 25 28 31 32 33 34 34 36 37 39 41 43 46 47 48 49 49 49 49 49 48
26 24 21 30 22 22 22 11 5 2 4 7 9 10 11 12 13 14 17 20 22 23 25 27 28 30 32 34 37 41 42 43 42 43 46 47 49 49 49 50 49 50 48 46
30 30 31 31 30 29 25 23 19 14 8 7 10 14 16 19 22 25 27 26 25 25 28 31 34 34 35 36 37 38 40 43 45 45 45 45 46 46 45 43 44 45 45 45
27 26 27 27 27 27 26 24 23 21 20 17 12 8 7 9 15 21 27 31 34 37 37 37 37 37 38 39 39 41 41 41 42 46 47 47 48 48 46 46 44 44 43 42
23 22 22 21 22 22 21 20 19 17 15 14 13 8 5 4 7 10 14 19 23 29 37 42 43 45 45 44 44 42 40 40 41 42 42 42 42 43 45 47 48 48 47 48
18 19 20 19 19 18 16 15 14 13 12 10 8 6 3 1 5 10 14 18 20 25 29 30 31 39 44 44 46 46 45 45 45 45 45 45 43 41 37 36 37 40 45 42
15 16 17 18 18 17 16 14 11 9 8 5 4 3 5 9 12 15 19 24 27 30 32 34 36 37 34 33 41 45 47 49 49 49 50 51 49 47 51 44 50 44 39 38
13 14 15 16 16 17 16 15 15 14 9 5 2 3 8 14 16 23 26 28 31 33 36 38 40 41 41 38 33 34 43 47 49 51 51 51 51 52 53 56 57 56 55 52
9 11 13 15 15 16 17 18 17 16 15 14 9 7 8 13 15 19 25 29 33 36 39 41 42 43 44 40 36 34 33 36 44 48 50 50 50 52 54 55 56 57 56 56
9 11 12 15 17 18 20 21 21 20 20 20 18 17 15 15 16 21 24 29 34 37 41 44 45 45 46 44 40 37 35 34 36 42 48 50 51 52 50 49 50 50 52 54
9 11 13 16 19 20 22 24 25 24 23 23 23 22 21 22 20 21 24 27 33 38 43 47 47 48 47 46 41 39 38 36 36 39 42 46 51 51 47 48 51 51 51 51
13 13 14 18 21 23 24 27 29 29 28 28 28 28 27 26 24 28 28 27 33 37 43 49 49 49 48 46 44 40 38 39 37 38 41 43 45 47 49 53 52 50 47 46
15 16 16 19 22 25 28 30 32 33 33 33 33 32 32 32 30 28 28 30 33 36 43 48 51 52 50 48 46 43 42 35 36 39 40 43 46 46 45 47 48 50 49 49
16 17 19 21 25 27 30 33 35 36 36 37 36 35 35 35 34 33 31 31 34 38 43 48 52 53 51 49 48 45 41 37 33 37 40 43 48 49 48 46 47 49 46 46
17 19 21 25 29 31 34 37 39 40 40 40 39 39 39 39 38 37 35 35 36 40 44 48 52 52 51 50 50 46 42 39 37 33 34 38 43 42 41 42 43 44 49 47
21 22 25 29 33 36 38 40 42 43 43 43 44 43 42 42 41 40 39 38 39 43 47 50 52 52 51 50 49 44 40 38 35 34 35 37 39 39 38 37 39 40 41 45
23 26 30 33 36 39 41 42 44 45 45 47 47 45 45 44 43 42 42 42 44 46 48 49 50 50 49 49 47 43 39 36 34 34 35 36 37 36 35 35 35 37 39 39
28 30 32 35 39 41 44 45 47 47 48 49 50 48 47 46 46 45 45 46 48 49 49 50 50 49 49 48 46 41 38 35 35 33 31 31 30 26 27 28 27 28 29 30
30 31 35 40 42 44 47 48 50 51 52 53 54 52 49 48 47 49 49 51 52 52 52 52 50 49 48 47 44 40 36 35 35 32 30 29 26 26 25 24 24 20 26 27
34 36 39 42 42 44 48 50 52 54 54 54 55 53 51 49 50 51 54 56 55 56 54 52 50 47 45 44 42 39 36 35 34 32 30 28 26 23 20 14 15 11 9 10
37 40 43 45 45 47 50 53 55 56 56 56 54 53 52 52 53 56 59 60 61 61 56 50 44 41 40 40 40 38 35 35 34 32 31 29 28 25 20 18 14 14 12 11